Date StartTime U_cm/s V_cm/s W_cm/s Ustd_cm/s Vstd_cm/s Wstd_cm/s Uvar_(cm/s)^2 Vvar_(cm/s)^2 Wvar_(cm/s)^2 KE_(m/s)^2 TurbulentKE_(m/s)^2 HorizWindSpeed_cm/s FrictionSpeec_cm/s DragCoef SpeedOfSound_m/s SonicTemperature_C Pressure_mb 
07/19/2013  00:00:00      -67.252      -55.114       10.574       74.479       40.169       31.966     5547.124     1613.544     1021.856        0.793        0.409       86.951       28.977        0.111      347.454       26.432      862.844
07/19/2013  00:01:00      -63.963      -86.044        9.043       71.954       58.974       34.859     5177.419     3477.885     1215.143        1.072        0.494      107.214       42.295        0.156      347.381       26.307      862.826
07/19/2013  00:02:00      -27.508      -36.766        7.838       40.750       23.333       21.765     1660.563      544.406      473.696        0.242        0.134       45.918       23.923        0.271      347.379       26.304      862.812
07/19/2013  00:03:00       -2.134        2.528        3.762       35.726       19.868       12.074     1276.377      394.742      145.793        0.092        0.091        3.308       14.041       18.013      347.209       26.013      862.819
07/19/2013  00:04:00      -27.579       22.799       -6.066       19.286       19.657       12.126      371.936      386.394      147.032        0.111        0.045       35.783        5.550        0.024      347.357       26.266      862.827
07/19/2013  00:05:00       -6.453       50.303        1.337       10.948       16.077       16.243      119.861      258.472      263.823        0.161        0.032       50.715        8.758        0.030      347.219       26.029      862.837
07/19/2013  00:06:00      -20.623       62.731       -8.184       19.593       20.386       13.756      383.902      415.598      189.227        0.271        0.049       66.034       13.030        0.039      347.131       25.877      862.858
07/19/2013  00:07:00      -58.575       78.597      -12.311       18.123       13.087       10.164      328.442      171.258      103.298        0.518        0.030       98.023        5.843        0.004      347.314       26.192      862.863
07/19/2013  00:08:00      -27.369       27.513       -2.987       22.166       22.997       12.746      491.343      528.845      162.451        0.135        0.059       38.808       15.965        0.169      347.249       26.080      862.855
07/19/2013  00:09:00      -27.835       29.604       -8.975       21.015       13.450       12.442      441.610      180.908      154.815        0.125        0.039       40.635       12.621        0.096      347.386       26.316      862.855
07/19/2013  00:10:00        4.007      -20.412        3.511       14.422       20.257        5.039      207.986      410.327       25.392        0.054        0.032       20.802        4.662        0.050      347.389       26.322      862.861
07/19/2013  00:11:00       14.712      -86.490       -4.744       26.980       31.977       12.556      727.941     1022.524      157.663        0.481        0.095       87.733       12.346        0.020      347.330       26.221      862.832
07/19/2013  00:12:00      -25.244     -159.896        1.829       38.538       42.948       24.679     1485.166     1844.520      609.046        1.507        0.197      161.877       16.949        0.011      347.394       26.330      862.820
07/19/2013  00:13:00      -20.258      -80.453       15.478       57.569       57.507       23.626     3314.162     3307.094      558.190        0.715        0.359       82.965       29.785        0.129      347.368       26.287      862.805
07/19/2013  00:14:00      -35.540      -67.263       -8.544       62.661       39.386       22.277     3926.349     1551.269      496.261        0.592        0.299       76.075       19.778        0.068      347.425       26.385      862.807
07/19/2013  00:15:00      -41.344       56.960        5.260       51.862       42.929       31.528     2689.702     1842.861      994.014        0.525        0.276       70.383       34.117        0.235      347.178       25.959      862.841
07/19/2013  00:16:00       35.033       52.186        0.778       18.598       43.524       27.860      345.878     1894.353      776.187        0.348        0.151       62.855       27.923        0.197      346.843       25.383      862.849
07/19/2013  00:17:00        5.976       84.783      -18.961       12.118       15.564       10.489      146.835      242.246      110.018        0.404        0.025       84.993        9.632        0.013      346.930       25.531      862.865
07/19/2013  00:18:00       25.139       68.880       -4.905       12.945       13.840        9.322      167.573      191.551       86.901        0.292        0.022       73.324        4.246        0.003      347.022       25.692      862.864
07/19/2013  00:19:00       50.081       10.551       -3.960       16.915       28.310       13.194      286.132      801.440      174.079        0.195        0.063       51.180        6.974        0.019      347.031       25.705      862.865
07/19/2013  00:20:00       51.837      -33.732       -7.311       27.974       17.850       11.591      782.534      318.634      134.342        0.256        0.062       61.846       12.988        0.044      346.958       25.580      862.854
07/19/2013  00:21:00       42.216       -2.416        5.865       34.575       19.106       18.588     1195.397      365.044      345.517        0.186        0.095       42.285       15.027        0.126      346.940       25.550      862.833
07/19/2013  00:22:00        0.485       13.052       15.557       61.092       25.685       28.340     3732.240      659.720      803.163        0.280        0.260       13.061       30.491        5.450      347.012       25.673      862.839
07/19/2013  00:23:00      -42.719       35.513       -7.244       42.471       24.501       20.261     1803.789      600.317      410.513        0.298        0.141       55.552       24.452        0.194      346.484       24.765      862.880
07/19/2013  00:24:00       -6.705        0.012       -6.916       21.469       12.245       11.108      460.913      149.939      123.395        0.041        0.037        6.705       13.791        4.231      346.729       25.185      862.879
07/19/2013  00:25:00      -27.505      -20.753       -4.749        7.787       13.512        6.263       60.643      182.586       39.225        0.075        0.014       34.456        6.478        0.035      347.013       25.675      862.886
07/19/2013  00:26:00       -7.459      -44.566        2.232        9.774        9.794        7.612       95.532       95.928       57.936        0.115        0.012       45.185        3.369        0.006      346.978       25.614      862.900
07/19/2013  00:27:00        4.719      -84.097       -0.360       11.926       19.677        8.554      142.230      387.194       73.168        0.385        0.030       84.229        4.379        0.003      347.135       25.884      862.888
07/19/2013  00:28:00       14.277      -89.301       -6.504       23.522       16.837       12.135      553.262      283.468      147.257        0.460        0.049       90.435        8.321        0.008      347.241       26.068      862.864
07/19/2013  00:29:00      -10.939      -97.267       -2.298       30.651       22.646       18.108      939.502      512.856      327.917        0.568        0.089       97.880        8.847        0.008      347.235       26.057      862.851
07/19/2013  00:30:00      -27.773     -128.602       -0.406       29.675       40.686       17.130      880.584     1655.361      293.433        1.007        0.141      131.567       15.533        0.014      347.373       26.295      862.822
07/19/2013  00:31:00      -48.580      -17.378        4.378       32.058       29.063       16.133     1027.688      844.674      260.284        0.241        0.107       51.595       21.026        0.166      347.085       25.798      862.800
07/19/2013  00:32:00       -6.897      -71.073       -2.650       43.106       28.169       15.454     1858.144      793.514      238.822        0.400        0.145       71.407       11.341        0.025      347.105       25.834      862.782
07/19/2013  00:33:00      -67.446     -107.109       -3.258       40.477       59.280       20.556     1638.368     3514.166      422.539        1.080        0.279      126.576       19.447        0.024      347.149       25.910      862.776
07/19/2013  00:34:00      -15.846      -73.140        7.067       29.975       55.040       15.383      898.499     3029.369      236.640        0.491        0.208       74.837       15.191        0.041      347.235       26.058      862.784
07/19/2013  00:35:00      -11.586       24.408        0.989       26.735       42.489       21.155      714.761     1805.328      447.518        0.185        0.148       27.018       21.516        0.634      346.813       25.330      862.803
07/19/2013  00:36:00     -104.268       78.034      -15.624       25.599       45.915       15.182      655.283     2108.165      230.490        1.010        0.150      130.235        9.395        0.005      346.892       25.467      862.821
07/19/2013  00:37:00      -72.009      -34.459        1.810       48.766       24.559       18.402     2378.164      603.123      338.636        0.485        0.166       79.829       24.460        0.094      346.975       25.609      862.816
07/19/2013  00:38:00      -33.216      -49.348        2.905       32.242       26.241       16.688     1039.528      688.585      278.476        0.278        0.100       59.485       15.719        0.070      346.893       25.468      862.791
07/19/2013  00:39:00      -18.991      -49.121        3.651       26.947       37.922       17.007      726.157     1438.065      289.241        0.262        0.123       52.664       16.837        0.102      347.020       25.687      862.771
07/19/2013  00:40:00      -57.337      -41.759       -2.016       25.277       37.403       14.572      638.926     1398.948      212.336        0.364        0.113       70.932       11.423        0.026      347.041       25.723      862.780
07/19/2013  00:41:00      -62.354       41.175        5.525       37.579       28.859       22.606     1412.217      832.848      511.030        0.418        0.138       74.723       17.758        0.056      346.748       25.219      862.800
07/19/2013  00:42:00      -57.187       32.266       -5.208       22.636       23.357       18.650      512.387      545.545      347.804        0.287        0.070       65.661       15.890        0.059      346.742       25.208      862.793
07/19/2013  00:43:00      -48.334      -35.569       -0.483       28.108       23.209       13.674      790.038      538.641      186.982        0.256        0.076       60.011       15.936        0.071      346.773       25.263      862.775
07/19/2013  00:44:00      -54.279      -56.911        6.220       36.770       33.702       21.948     1352.033     1135.841      481.712        0.460        0.148       78.646       18.399        0.055      346.675       25.093      862.764
07/19/2013  00:45:00      -99.034     -122.506      -10.734       71.757       55.702       39.624     5149.010     3102.757     1570.061        1.737        0.491      157.529       25.813        0.027      347.166       25.937      862.754
07/19/2013  00:46:00      -78.089     -116.564        8.158       67.874       55.154       45.460     4606.880     3042.015     2066.572        1.473        0.486      140.304       48.051        0.117      347.141       25.895      862.745
07/19/2013  00:47:00     -114.157      -99.263        1.575       69.557       62.807       35.364     4838.193     3944.667     1250.605        1.646        0.502      151.278       30.546        0.041      347.021       25.687      862.757
07/19/2013  00:48:00     -147.469      -93.016       -6.556       71.663       70.209       33.041     5135.612     4929.314     1091.679        2.080        0.558      174.353       35.170        0.041      347.068       25.767      862.739
07/19/2013  00:49:00     -119.643      -88.000        5.836       78.639       50.647       42.350     6184.081     2565.150     1793.557        1.632        0.527      148.521       48.395        0.106      347.029       25.702      862.718
07/19/2013  00:50:00     -160.979      -62.040        2.445       87.246       58.036       32.749     7611.796     3368.183     1072.475        2.091        0.603      172.520       40.725        0.056      346.916       25.505      862.729
07/19/2013  00:51:00     -183.523      -47.152       -8.341       59.229       42.495       30.797     3508.033     1805.792      948.455        2.112        0.313      189.484       26.668        0.020      346.964       25.588      862.705
07/19/2013  00:52:00      -46.612      -41.723       11.196       47.072       42.578       25.873     2215.787     1812.919      669.426        0.437        0.235       62.558       20.807        0.111      346.829       25.358      862.680
07/19/2013  00:53:00     -114.314      -33.909       -3.766       56.400       40.671       28.051     3180.966     1654.098      786.857        0.993        0.281      119.237       31.503        0.070      346.816       25.337      862.690
07/19/2013  00:54:00     -167.816      -51.474       -4.276       57.684       43.881       33.782     3327.392     1925.538     1141.198        1.861        0.320      175.533       30.069        0.029      346.799       25.306      862.710
07/19/2013  00:55:00     -114.514       -2.581       -4.152       41.438       29.469       27.418     1717.093      868.446      751.752        0.824        0.167      114.543       19.659        0.029      346.850       25.395      862.699
07/19/2013  00:56:00      -70.741      -25.736       -4.722       64.505       31.321       21.488     4160.889      980.996      461.720        0.565        0.280       75.277       27.185        0.130      346.755       25.230      862.700
07/19/2013  00:57:00       -3.888       24.825        3.853       19.964       21.357       16.907      398.556      456.137      285.845        0.089        0.057       25.127       16.089        0.410      346.515       24.818      862.697
07/19/2013  00:58:00      -15.649      -12.744        4.627       20.637       26.382       17.988      425.891      696.035      323.561        0.094        0.072       20.182       11.249        0.311      346.679       25.100      862.693
07/19/2013  00:59:00      -79.154       25.687      -12.703       30.794       32.485       18.616      948.247     1055.266      346.556        0.472        0.118       83.217       18.220        0.048      346.558       24.891      862.715
07/19/2013  01:00:00      -86.394      -63.743        3.075       52.947       46.858       27.831     2803.381     2195.631      774.583        0.865        0.289      107.364       26.804        0.062      346.523       24.832      862.709
07/19/2013  01:01:00     -108.198      -17.227        4.854       67.404       59.799       33.864     4543.339     3575.891     1146.797        1.064        0.463      109.561       34.710        0.100      346.544       24.867      862.674
07/19/2013  01:02:00     -112.772      -64.899        3.225       93.339       77.232       36.655     8712.116     5964.809     1343.560        1.648        0.801      130.114       42.475        0.107      346.703       25.139      862.660
07/19/2013  01:03:00     -157.088      -11.029       -3.057      103.729       54.602       43.231    10759.800     2981.413     1868.897        2.021        0.781      157.474       46.537        0.087      346.804       25.314      862.674
07/19/2013  01:04:00     -124.349      -33.927       -2.100       50.645       39.889       25.476     2564.883     1591.167      649.005        1.071        0.240      128.894       27.628        0.046      346.744       25.212      862.674
07/19/2013  01:05:00     -159.219      -69.796        0.098       75.553       65.025       38.131     5708.268     4228.282     1454.010        2.080        0.570      173.845       23.916        0.019      346.795       25.297      862.677
07/19/2013  01:06:00     -162.612      -27.292       -1.729       65.047       60.216       39.374     4231.087     3625.912     1550.332        1.830        0.470      164.886       34.852        0.045      346.784       25.279      862.673
07/19/2013  01:07:00     -176.161      -36.183      -12.241       58.129       65.331       33.580     3379.006     4268.084     1127.622        2.063        0.439      179.839       32.182        0.032      346.710       25.152      862.678
07/19/2013  01:08:00     -175.824      -68.837       -6.900       69.172       48.938       33.483     4784.783     2394.972     1121.099        2.200        0.415      188.819       25.774        0.019      346.676       25.093      862.679
07/19/2013  01:09:00     -193.796      -25.539       -9.020       72.075       63.524       35.928     5194.762     4035.275     1290.849        2.440        0.526      195.472       36.468        0.035      346.744       25.209      862.674
07/19/2013  01:10:00     -139.051      -77.396        4.240       88.162       56.469       35.310     7772.555     3188.787     1246.820        1.877        0.610      159.139       35.423        0.050      346.749       25.219      862.657
07/19/2013  01:11:00     -153.188      -82.423       -6.703       94.150       86.430       47.983     8864.158     7470.201     2302.338        2.447        0.932      173.955       53.416        0.094      346.774       25.260      862.662
07/19/2013  01:12:00     -146.981      -51.433        1.336       91.357       55.114       40.951     8346.047     3037.522     1677.011        1.865        0.653      155.720       45.592        0.086      346.776       25.265      862.667
07/19/2013  01:13:00     -106.699       -8.582        2.652       67.231       46.018       33.808     4519.956     2117.698     1142.980        0.962        0.389      107.043       32.512        0.092      346.661       25.067      862.669
07/19/2013  01:14:00     -151.283      -32.640       -7.125       55.417       64.337       35.612     3071.027     4139.291     1268.213        1.624        0.424      154.764       21.450        0.019      346.793       25.295      862.666
07/19/2013  01:15:00     -139.607       -2.715       -0.159       58.480       67.789       33.367     3419.914     4595.346     1113.350        1.431        0.456      139.634       31.788        0.052      346.752       25.224      862.689
07/19/2013  01:16:00     -132.399      -20.220       -0.000       58.677       44.814       28.529     3442.942     2008.331      813.928        1.210        0.313      133.934       32.234        0.058      346.703       25.140      862.701
07/19/2013  01:17:00      -49.616      -40.172       10.462       45.846       49.671       23.910     2101.835     2467.233      571.694        0.466        0.257       63.840       22.025        0.119      346.636       25.025      862.698
07/19/2013  01:18:00      -38.779      -33.220        2.883       59.343       56.385       30.115     3521.638     3179.277      906.943        0.511        0.380       51.062       29.379        0.331      346.718       25.168      862.695
07/19/2013  01:19:00       44.633        7.911       27.037       26.554       48.504       26.595      705.131     2352.668      707.314        0.327        0.188       45.328       20.245        0.199      346.381       24.589      862.688
07/19/2013  01:20:00       18.657       57.468       -1.671       28.216       31.154       26.292      796.165      970.595      691.272        0.306        0.123       60.421       25.395        0.177      346.192       24.261      862.709
07/19/2013  01:21:00       43.153       59.704      -18.754       18.372       24.000       11.801      337.523      575.993      139.259        0.342        0.053       73.667       12.128        0.027      346.105       24.111      862.718
07/19/2013  01:22:00       41.996       29.173      -12.530       24.329       11.966       16.697      591.914      143.191      278.783        0.189        0.051       51.135        9.818        0.037      345.973       23.886      862.710
07/19/2013  01:23:00       45.640       16.055       18.227       27.726       15.443       17.733      768.755      238.488      314.473        0.200        0.066       48.381       17.953        0.138      346.014       23.957      862.683
07/19/2013  01:24:00       11.145       33.991       27.909       18.018       17.690       16.873      324.663      312.950      284.711        0.149        0.046       35.772       10.555        0.087      346.028       23.982      862.658
07/19/2013  01:25:00       -7.233        8.307        2.997       24.118       14.049       11.289      581.701      197.367      127.448        0.052        0.045       11.015       12.592        1.307      346.224       24.319      862.686
07/19/2013  01:26:00       37.591       32.721       12.443       12.595        6.223       13.834      158.630       38.731      191.376        0.151        0.019       49.837        6.830        0.019      346.233       24.333      862.688
07/19/2013  01:27:00       51.199       41.579       23.763       19.261       15.329       18.815      370.990      234.988      353.990        0.294        0.048       65.955        8.148        0.015      346.197       24.271      862.671
07/19/2013  01:28:00       15.700       25.783       19.378       17.108       18.227       10.241      292.667      332.222      104.880        0.101        0.036       30.187        6.676        0.049      346.072       24.057      862.674
07/19/2013  01:29:00       -0.494       -4.904        4.063       10.296       10.280        8.275      106.009      105.686       68.483        0.016        0.014        4.928        6.011        1.488      346.085       24.079      862.681
07/19/2013  01:30:00        0.228       -0.282       -3.276       13.187        4.691        4.125      173.905       22.001       17.018        0.011        0.011        0.362        5.334      216.652      346.176       24.235      862.685
07/19/2013  01:31:00      -14.947       -6.721       -3.510       10.328       10.474        7.700      106.660      109.709       59.290        0.028        0.014       16.389        9.250        0.319      346.341       24.521      862.686
07/19/2013  01:32:00       18.725      -26.775        0.565        7.151        5.500        4.958       51.133       30.247       24.577        0.059        0.005       32.673        3.463        0.011      346.291       24.433      862.670
07/19/2013  01:33:00        3.332      -38.608        2.122       20.297        8.628        6.352      411.977       74.447       40.344        0.102        0.026       38.751        8.472        0.048      346.389       24.601      862.649
07/19/2013  01:34:00      -23.919      -40.280       11.618       27.158       14.858       13.806      737.576      220.755      190.603        0.174        0.057       46.846       14.249        0.093      346.500       24.791      862.649
07/19/2013  01:35:00        6.272      -40.712       -8.683       18.876       13.821        8.004      356.285      191.026       64.068        0.119        0.031       41.193        7.329        0.032      346.367       24.565      862.658
07/19/2013  01:36:00      -11.313      -32.455       -3.767       11.949        7.250        9.181      142.787       52.568       84.291        0.074        0.014       34.370        5.934        0.030      346.123       24.145      862.640
07/19/2013  01:37:00      -34.391      -48.326       -3.897       22.446       11.553        7.501      503.825      133.477       56.259        0.211        0.035       59.314        7.041        0.014      346.149       24.188      862.627
07/19/2013  01:38:00      -55.796      -87.720       -8.012       32.642       31.475       17.109     1065.489      990.670      292.703        0.661        0.117      103.961        9.672        0.009      346.328       24.496      862.624
07/19/2013  01:39:00      -38.187     -102.110       -0.824       25.929       58.026       24.224      672.327     3366.976      586.817        0.825        0.231      109.017       23.444        0.046      346.318       24.480      862.616
07/19/2013  01:40:00      -30.974     -109.118        0.913       30.082       28.804       15.041      904.926      829.666      226.236        0.741        0.098      113.429       12.777        0.013      346.337       24.511      862.609
07/19/2013  01:41:00      -42.136      -53.681        1.002       35.393       22.460       21.494     1252.686      504.459      461.994        0.344        0.111       68.243       13.299        0.038      346.166       24.217      862.616
07/19/2013  01:42:00      -33.729      -31.599        3.676       28.555       22.492       16.603      815.400      505.890      275.657        0.187        0.080       46.218       12.997        0.079      346.176       24.235      862.622
07/19/2013  01:43:00      -24.341      -41.409        9.897       18.463       34.184       13.136      340.894     1168.542      172.560        0.204        0.084       48.033       11.356        0.056      346.192       24.261      862.620
07/19/2013  01:44:00      -29.602      -41.614       16.693       30.427       35.478       21.510      925.791     1258.715      462.681        0.277        0.132       51.069       19.037        0.139      346.246       24.355      862.613
07/19/2013  01:45:00      -11.859      -60.178        6.551       21.998       43.463       15.620      483.893     1889.022      243.994        0.321        0.131       61.335        8.667        0.020      346.154       24.198      862.618
07/19/2013  01:46:00       10.089      -23.028       10.033       21.792       54.734       11.300      474.874     2995.853      127.682        0.216        0.180       25.141        9.182        0.133      346.078       24.066      862.621
07/19/2013  01:47:00      -10.358       14.776        5.326       28.254       14.263       10.001      798.289      203.427      100.029        0.073        0.055       18.045       12.173        0.455      345.877       23.721      862.614
07/19/2013  01:48:00       -1.047       -9.300       -5.981       16.230       10.374       10.169      263.420      107.624      103.414        0.030        0.024        9.359        8.791        0.882      346.000       23.933      862.618
07/19/2013  01:49:00       11.520       -2.193        4.688       13.406       13.483       11.423      179.733      181.778      130.484        0.033        0.025       11.727        9.197        0.615      345.981       23.899      862.605
07/19/2013  01:50:00       11.359       50.713       -0.940       14.185       27.959       15.597      201.204      781.714      243.257        0.196        0.061       51.970       19.605        0.142      345.610       23.263      862.594
07/19/2013  01:51:00       34.181       92.615      -14.552       14.483       14.354       12.862      209.752      206.033      165.439        0.527        0.029       98.722       11.202        0.013      345.270       22.681      862.596
07/19/2013  01:52:00       12.761       44.617       -1.690       19.109       28.088       15.589      365.150      788.957      243.024        0.178        0.070       46.406       16.342        0.124      345.125       22.432      862.595
07/19/2013  01:53:00       14.237       14.461        5.870       14.970       21.543       14.130      224.111      464.079      199.657        0.067        0.044       20.293       12.699        0.392      345.084       22.362      862.588
07/19/2013  01:54:00       26.337       22.187        1.313       16.136       14.828       11.799      260.376      219.856      139.217        0.090        0.031       34.437        9.720        0.080      345.246       22.639      862.587
07/19/2013  01:55:00       35.418       20.366        5.936       15.075       13.135       10.081      227.270      172.517      101.625        0.110        0.025       40.856        6.960        0.029      345.310       22.749      862.594
07/19/2013  01:56:00       -2.169       -6.311        8.378       14.155       21.790       10.677      200.372      474.824      113.996        0.045        0.039        6.673        7.380        1.223      345.424       22.944      862.583
07/19/2013  01:57:00       -5.742      -40.022       -4.745        8.027        9.803        9.307       64.431       96.104       86.628        0.095        0.012       40.432        6.549        0.026      345.633       23.301      862.578
07/19/2013  01:58:00       -1.738      -30.258       -2.676        6.684        8.306        4.330       44.672       68.996       18.748        0.053        0.007       30.308        2.852        0.009      345.861       23.693      862.584
07/19/2013  01:59:00      -11.039      -16.137       -0.046        9.670        8.270        6.744       93.513       68.391       45.484        0.029        0.010       19.551        6.103        0.097      345.655       23.340      862.588
07/19/2013  02:00:00       -9.627      -27.671       -2.635        8.236        7.285        6.089       67.840       53.074       37.073        0.051        0.008       29.298        3.107        0.011      345.751       23.506      862.585
07/19/2013  02:01:00       -1.957      -31.043       -4.863        4.993        6.853        5.934       24.931       46.968       35.208        0.055        0.005       31.105        2.918        0.009      345.688       23.397      862.591
07/19/2013  02:02:00       10.304      -29.336        2.067        8.819        7.637        7.374       77.779       58.321       54.382        0.058        0.010       31.093        5.490        0.031      345.812       23.610      862.586
07/19/2013  02:03:00       19.431      -42.959       -2.425        8.632       10.744        6.286       74.511      115.435       39.518        0.123        0.011       47.149        4.985        0.011      345.908       23.776      862.579
07/19/2013  02:04:00      -23.437      -25.630       -1.418       20.541       12.368        7.950      421.922      152.966       63.199        0.092        0.032       34.730        3.704        0.011      345.862       23.697      862.578
07/19/2013  02:05:00      -40.007      -25.064       -6.719       10.969        8.175        5.973      120.327       66.824       35.674        0.125        0.011       47.210        3.572        0.006      345.692       23.404      862.573
07/19/2013  02:06:00      -33.314       -7.155       -4.961       13.058        9.332        7.714      170.519       87.085       59.500        0.075        0.016       34.074        8.109        0.057      345.530       23.126      862.562
07/19/2013  02:07:00      -30.513       45.632       -7.552       14.176       27.262        7.846      200.959      743.243       61.559        0.204        0.050       54.894       10.650        0.038      345.339       22.799      862.557
07/19/2013  02:08:00       23.596       58.859        1.458       21.120       21.210       14.484      446.050      449.855      209.784        0.256        0.055       63.413        9.191        0.021      345.284       22.703      862.551
07/19/2013  02:09:00       10.015        3.342        1.566       19.310       18.687        9.258      372.884      349.200       85.717        0.046        0.040       10.558        7.404        0.492      345.440       22.972      862.535
07/19/2013  02:10:00       -0.866      -24.902        2.834       13.480       11.756       10.325      181.717      138.197      106.607        0.053        0.021       24.917        6.326        0.064      345.641       23.315      862.531
07/19/2013  02:11:00        2.195      -17.360        6.750        8.273       12.371       12.538       68.447      153.038      157.191        0.037        0.019       17.498        9.763        0.311      345.400       22.904      862.538
07/19/2013  02:12:00      -52.670       -6.920       -6.923       28.588        9.374        9.193      817.293       87.867       84.514        0.193        0.049       53.122        6.450        0.015      345.298       22.729      862.542
07/19/2013  02:13:00      -52.564      -23.622       -7.690        9.685        8.199        7.233       93.796       67.217       52.309        0.180        0.011       57.628        4.042        0.005      345.151       22.477      862.535
07/19/2013  02:14:00      -39.462      -14.425       -5.696       15.801       11.010        8.860      249.669      121.209       78.494        0.112        0.022       42.016        8.196        0.038      345.178       22.522      862.534
07/19/2013  02:15:00      -10.319      -14.044       -7.097       11.378        7.452        9.430      129.468       55.532       88.916        0.031        0.014       17.428        5.430        0.097      345.542       23.146      862.534
07/19/2013  02:16:00      -19.124      -11.720        1.716        7.385        8.113        8.604       54.537       65.814       74.025        0.035        0.010       22.430        2.247        0.010      345.427       22.947      862.520
07/19/2013  02:17:00      -22.199       20.619       -2.751       17.579        6.465        9.536      309.021       41.798       90.940        0.068        0.022       30.298       10.838        0.128      345.097       22.385      862.520
07/19/2013  02:18:00      -54.233       12.070      -11.562       13.635        7.830        6.421      185.917       61.306       41.231        0.175        0.014       55.560        3.914        0.005      345.115       22.414      862.531
07/19/2013  02:19:00      -47.091       14.528       -8.489       11.760       11.332        5.638      138.303      128.424       31.784        0.140        0.015       49.281        6.052        0.015      345.090       22.372      862.528
07/19/2013  02:20:00       -6.076        0.860       -2.400       15.680        5.425        3.995      245.869       29.432       15.962        0.017        0.015        6.137        5.865        0.913      345.236       22.625      862.521
07/19/2013  02:21:00       -0.514       -2.068        5.425       12.885        7.898        5.293      166.026       62.375       28.013        0.015        0.013        2.131        5.321        6.237      345.303       22.737      862.519
07/19/2013  02:22:00      -21.012      -21.732       -4.659        8.718       12.430        6.563       76.009      154.502       43.074        0.060        0.014       30.229        4.870        0.026      345.364       22.841      862.530
07/19/2013  02:23:00      -57.858        0.672       -8.046       15.818        8.502        5.969      250.215       72.282       35.631        0.189        0.018       57.862        3.997        0.005      345.144       22.466      862.541
07/19/2013  02:24:00      -86.482        1.620      -10.415       14.655       11.981       10.970      214.757      143.552      120.349        0.403        0.024       86.498        6.247        0.005      344.923       22.085      862.551
07/19/2013  02:25:00      -88.996        3.918       -9.838       14.325       11.129       10.415      205.201      123.861      108.473        0.423        0.022       89.082        7.715        0.008      344.880       22.012      862.556
07/19/2013  02:26:00      -87.965      -12.099      -12.328       18.389       14.683       10.255      338.170      215.578      105.172        0.435        0.033       88.793        7.263        0.007      344.947       22.128      862.555
07/19/2013  02:27:00      -82.128      -34.065      -11.524       12.605       14.536        9.821      158.891      211.309       96.454        0.425        0.023       88.912        4.677        0.003      344.873       22.001      862.543
07/19/2013  02:28:00      -39.290      -46.548        7.849       45.528       29.900       22.754     2072.810      893.997      517.724        0.363        0.174       60.913       29.074        0.228      344.732       21.760      862.538
07/19/2013  02:29:00      -73.979      -65.483       -3.537       39.669       30.953       17.050     1573.642      958.085      290.700        0.630        0.141       98.797       17.592        0.032      344.989       22.200      862.549
07/19/2013  02:30:00      -76.836       -5.860       -3.916       28.650       31.881       10.438      820.839     1016.370      108.944        0.395        0.097       77.059        9.512        0.015      344.880       22.013      862.554
07/19/2013  02:31:00      -81.148       21.471      -12.422       14.836       18.394        9.946      220.116      338.347       98.916        0.393        0.033       83.940        6.121        0.005      344.730       21.756      862.552
07/19/2013  02:32:00      -82.624      -22.683       -6.285       16.830       23.810       12.203      283.258      566.896      148.925        0.419        0.050       85.681       11.933        0.019      344.560       21.466      862.557
07/19/2013  02:33:00      -55.624      -14.992       -8.761       18.044       14.786       13.214      325.572      218.617      174.607        0.206        0.036       57.609       11.433        0.039      344.613       21.558      862.551
07/19/2013  02:34:00      -52.549      -18.874       -0.691       12.903       14.023       10.897      166.493      196.658      118.737        0.180        0.024       55.835        8.540        0.023      344.638       21.599      862.535
07/19/2013  02:35:00      -56.871      -22.640       -5.079       26.937       12.217       10.895      725.580      149.247      118.698        0.238        0.050       61.211       12.628        0.043      344.692       21.693      862.535
07/19/2013  02:36:00      -69.357      -34.788       -8.998        9.686        7.464        6.996       93.818       55.710       48.940        0.315        0.010       77.592        4.131        0.003      344.896       22.039      862.543
07/19/2013  02:37:00      -63.583      -27.784       -2.352       19.608       12.909       12.199      384.484      166.652      148.821        0.276        0.035       69.389       11.414        0.027      344.780       21.842      862.550
07/19/2013  02:38:00      -79.509      -46.138       -8.440       16.689       11.668       12.044      278.509      136.142      145.052        0.454        0.028       91.926        3.388        0.001      344.688       21.685      862.552
07/19/2013  02:39:00      -61.739      -33.298       -5.652       26.132       14.620       12.778      682.871      213.756      163.270        0.301        0.053       70.146        9.933        0.020      344.705       21.713      862.564
07/19/2013  02:40:00      -81.558      -34.256       -8.171        7.787        8.542        7.621       60.636       72.966       58.081        0.404        0.010       88.460        2.763        0.001      344.759       21.808      862.563
07/19/2013  02:41:00      -83.100      -26.998       -6.994       12.643       13.933        9.169      159.837      194.135       84.067        0.406        0.022       87.376        7.549        0.007      344.675       21.660      862.577
07/19/2013  02:42:00      -73.898      -42.298       -1.206       35.794       19.559       12.909     1281.199      382.549      166.647        0.454        0.092       85.148       13.446        0.025      344.633       21.589      862.587
07/19/2013  02:43:00      -93.236      -32.731       -3.113       41.227       17.453       15.577     1699.677      304.602      242.645        0.601        0.112       98.814       17.867        0.033      344.580       21.500      862.590
07/19/2013  02:44:00     -114.681      -32.299      -16.256       18.064       21.375       13.608      326.293      456.872      185.180        0.771        0.048      119.143        5.957        0.003      344.438       21.256      862.588
07/19/2013  02:45:00     -114.403      -46.355       -1.635       23.498       25.699       16.987      552.141      660.461      288.568        0.837        0.075      123.437       13.513        0.012      344.443       21.264      862.581
07/19/2013  02:46:00      -99.450      -52.939        1.251       36.223       31.432       18.607     1312.137      987.978      346.206        0.767        0.132      112.662       16.961        0.023      344.558       21.462      862.568
07/19/2013  02:47:00      -14.585      -22.196       18.937       39.546       32.938       20.671     1563.923     1084.902      427.303        0.207        0.154       26.559       20.995        0.625      344.539       21.429      862.570
07/19/2013  02:48:00      -24.093      -33.892        7.421       38.696       22.613       21.852     1497.393      511.342      477.503        0.213        0.124       41.583       18.773        0.204      344.615       21.560      862.568
07/19/2013  02:49:00      -47.103      -70.767        6.307       44.858       27.887       21.174     2012.263      777.667      448.325        0.525        0.162       85.010       23.270        0.075      344.859       21.978      862.566
07/19/2013  02:50:00      -30.070      -85.322       -3.963       25.724       27.532       11.978      661.739      758.011      143.476        0.488        0.078       90.466       10.367        0.013      345.014       22.243      862.578
07/19/2013  02:51:00      -43.141      -93.960       -3.394       24.218       24.753       20.347      586.532      612.711      413.984        0.616        0.081      103.391       13.142        0.016      345.016       22.246      862.585
07/19/2013  02:52:00      -63.783      -26.372        1.081       18.577       38.835       18.717      345.094     1508.185      350.338        0.348        0.110       69.020       13.960        0.041      344.956       22.144      862.590
07/19/2013  02:53:00      -70.294       -3.747        2.313       30.197       20.866       13.299      911.850      435.386      176.875        0.324        0.076       70.394       12.001        0.029      344.820       21.909      862.593
07/19/2013  02:54:00      -85.163        2.402       -3.478       25.722       21.603       12.282      661.624      466.709      150.841        0.427        0.064       85.197       11.962        0.020      344.603       21.539      862.604
07/19/2013  02:55:00      -63.669      -30.098       -1.209       22.989       19.711       14.271      528.477      388.514      203.668        0.304        0.056       70.425       14.118        0.040      344.558       21.463      862.590
07/19/2013  02:56:00      -56.080      -24.688        3.835       31.436       26.094       13.839      988.219      680.914      191.510        0.281        0.093       61.274       13.406        0.048      344.504       21.370      862.583
07/19/2013  02:57:00      -47.433      -41.500        7.287       27.271       21.217       17.508      743.713      450.162      306.525        0.276        0.075       63.025       17.447        0.077      344.617       21.563      862.570
07/19/2013  02:58:00      -41.656      -52.774        2.504       28.867       17.749       12.672      833.309      315.037      160.569        0.292        0.065       67.233       13.045        0.038      344.685       21.680      862.555
07/19/2013  02:59:00      -26.977      -26.289        2.416       21.282       25.791       11.954      452.923      665.170      142.896        0.134        0.063       37.668       10.206        0.073      344.745       21.782      862.558
07/19/2013  03:00:00      -24.734      -21.846       -1.259       23.311       21.391       13.369      543.383      457.554      178.730        0.113        0.059       33.000        9.426        0.082      344.607       21.546      862.553
07/19/2013  03:01:00      -60.586      -34.654        5.768       48.023       28.646       19.405     2306.197      820.571      376.566        0.420        0.175       69.796       18.522        0.070      344.642       21.605      862.544
07/19/2013  03:02:00      -46.480      -37.395        2.899       27.269       22.694       18.384      743.612      514.995      337.961        0.258        0.080       59.656       15.237        0.065      344.626       21.578      862.534
07/19/2013  03:03:00      -31.465      -38.161        5.287       31.433       36.406       19.977      988.003     1325.375      399.062        0.259        0.136       49.460       17.003        0.118      344.518       21.394      862.512
07/19/2013  03:04:00      -90.252      -79.646       -0.736       42.973       30.199       22.888     1846.665      911.985      523.879        0.889        0.164      120.370       21.448        0.032      344.687       21.684      862.496
07/19/2013  03:05:00      -65.113      -59.177       -4.103       42.143       31.028       15.514     1776.064      962.746      240.679        0.537        0.149       87.986        5.296        0.004      344.695       21.696      862.500
07/19/2013  03:06:00      -65.145        0.747       -6.804       30.567       21.824       17.705      934.327      476.285      313.471        0.301        0.086       65.149       17.090        0.069      344.545       21.439      862.501
07/19/2013  03:07:00      -76.151       21.316       -2.882       30.309       19.013       14.368      918.634      361.512      206.440        0.387        0.074       79.078       11.048        0.020      344.418       21.224      862.516
07/19/2013  03:08:00     -100.792       18.620       -6.041       26.532       25.034       18.048      703.949      626.722      325.734        0.610        0.083      102.498       14.206        0.019      344.406       21.202      862.535
07/19/2013  03:09:00     -100.331        6.147       -8.034       44.921       26.554       20.263     2017.870      705.135      410.584        0.665        0.157      100.519       15.850        0.025      344.214       20.875      862.525
07/19/2013  03:10:00     -100.171      -38.729       -1.505       32.215       23.126       16.991     1037.781      534.796      288.702        0.670        0.093      107.397       14.796        0.019      344.153       20.769      862.507
07/19/2013  03:11:00      -60.372      -37.939        5.764       37.041       21.326       17.711     1372.064      454.797      313.685        0.363        0.107       71.303       17.868        0.063      344.167       20.794      862.493
07/19/2013  03:12:00      -55.673      -27.083        3.179       27.384       17.961       12.510      749.895      322.581      156.512        0.254        0.061       61.911       12.730        0.042      344.251       20.936      862.471
07/19/2013  03:13:00     -103.984      -11.423       -5.967       32.703       22.374       17.955     1069.484      500.576      322.391        0.644        0.095      104.609       15.310        0.021      344.241       20.921      862.475
07/19/2013  03:14:00     -140.644       12.636      -11.032       58.301       46.030       25.128     3399.053     2118.789      631.399        1.310        0.307      141.210       26.060        0.034      343.945       20.412      862.499
07/19/2013  03:15:00     -167.358      -12.061      -11.233       47.118       37.342       21.528     2220.127     1394.404      463.440        1.618        0.204      167.792       20.676        0.015      344.037       20.570      862.503
07/19/2013  03:16:00      -85.180      -32.399        5.909       52.041       36.355       24.927     2708.312     1321.714      621.370        0.649        0.233       91.134       17.344        0.036      344.120       20.712      862.499
07/19/2013  03:17:00      -29.790      -47.072       12.636       40.941       26.366       16.718     1676.141      695.156      279.483        0.296        0.133       55.707       16.528        0.088      344.230       20.901      862.491
07/19/2013  03:18:00      -70.155      -53.311        2.951       45.817       29.659       18.570     2099.195      879.628      344.843        0.555        0.166       88.113       19.759        0.050      344.284       20.994      862.471
07/19/2013  03:19:00      -92.274      -38.168       -1.504       46.971       33.146       22.539     2206.316     1098.686      508.018        0.689        0.191       99.856       23.917        0.057      344.229       20.900      862.468
07/19/2013  03:20:00     -110.937      -14.655       -0.532       39.714       33.689       30.625     1577.172     1134.929      937.906        0.809        0.183      111.901       29.413        0.069      344.019       20.541      862.454
07/19/2013  03:21:00     -105.753      -34.394       -2.812       41.369       26.682       21.582     1711.420      711.903      465.793        0.763        0.144      111.205       24.231        0.047      344.139       20.748      862.427
07/19/2013  03:22:00      -27.311      -48.204       11.221       45.743       30.226       20.235     2092.380      913.627      409.464        0.330        0.171       55.403       25.045        0.204      344.205       20.858      862.397
07/19/2013  03:23:00      -63.524      -35.343        4.190       52.960       25.760       18.566     2804.809      663.555      344.700        0.456        0.191       72.694       16.867        0.054      344.220       20.885      862.366
07/19/2013  03:24:00     -110.042      -13.628       -4.616       36.471       22.485       15.810     1330.107      505.557      249.961        0.720        0.104      110.883       13.739        0.015      344.167       20.795      862.361
07/19/2013  03:25:00     -118.053        4.459       -9.522       31.464       25.508       16.958      990.010      650.653      287.584        0.799        0.096      118.137       14.638        0.015      343.991       20.492      862.336
07/19/2013  03:26:00      -58.120      -39.390       -0.345       17.275       17.977       11.195      298.409      323.183      125.326        0.284        0.037       70.210        9.096        0.017      344.044       20.584      862.321
07/19/2013  03:27:00      -85.865      -14.785       -6.275       21.489       15.816       14.010      461.767      250.150      196.290        0.427        0.045       87.128        9.350        0.012      344.141       20.749      862.293
07/19/2013  03:28:00      -72.052      -19.885       -8.366       21.098       16.785       14.400      445.132      281.725      207.359        0.330        0.047       74.746       10.052        0.018      344.139       20.748      862.284
07/19/2013  03:29:00      -58.709      -42.577       -4.699       29.007       22.655       14.917      841.393      513.231      222.512        0.343        0.079       72.523       14.161        0.038      344.031       20.560      862.289
07/19/2013  03:30:00      -37.208       -5.339       -4.194       36.184       18.570       16.892     1309.301      344.839      285.347        0.168        0.097       37.589       19.207        0.261      343.956       20.434      862.298
07/19/2013  03:31:00       -7.019      -37.794        4.786       29.408       22.565       21.914      864.842      509.174      480.202        0.168        0.093       38.441       12.208        0.101      343.962       20.444      862.307
07/19/2013  03:32:00      -27.015      -31.280        2.996       32.205       28.151       23.273     1037.181      792.488      541.629        0.204        0.119       41.331       19.394        0.220      343.911       20.357      862.307
07/19/2013  03:33:00      -44.288      -24.316        1.030       20.881       18.715       14.151      435.997      350.268      200.240        0.177        0.049       50.524        8.958        0.031      343.927       20.385      862.322
07/19/2013  03:34:00      -48.260      -16.957       -8.732       21.576        9.108        9.348      465.522       82.952       87.378        0.166        0.032       51.152        9.942        0.038      343.927       20.380      862.332
07/19/2013  03:35:00      -84.412      -33.270      -12.955       14.727       10.102        9.338      216.885      102.046       87.195        0.440        0.020       90.732        4.110        0.002      343.972       20.462      862.330
07/19/2013  03:36:00     -111.384      -37.750      -15.912       10.909       11.609        8.937      118.998      134.773       79.876        0.721        0.017      117.607        3.629        0.001      344.000       20.508      862.335
07/19/2013  03:37:00     -119.363      -47.499       -9.747       20.392       19.625       10.741      415.823      385.149      115.376        0.876        0.046      128.466        2.922        0.001      343.977       20.469      862.329
07/19/2013  03:38:00     -121.018      -21.890       -5.413       43.152       26.594       20.574     1862.115      707.244      423.286        0.907        0.150      122.981       24.015        0.038      343.858       20.265      862.334
07/19/2013  03:39:00      -98.465      -36.122        6.865       36.445       22.561       19.914     1328.261      508.990      396.579        0.664        0.112      104.881       21.414        0.042      343.847       20.247      862.340
07/19/2013  03:40:00      -71.871      -49.944        6.141       36.223       25.373       18.078     1312.112      643.811      326.817        0.499        0.114       87.521       16.896        0.037      343.858       20.267      862.334
07/19/2013  03:41:00      -47.636      -60.187        4.658       36.171       32.941       19.395     1308.338     1085.102      376.178        0.434        0.138       76.757       17.935        0.055      343.912       20.358      862.318
07/19/2013  03:42:00      -60.925      -71.257        3.014       40.187       36.569       24.644     1615.008     1337.287      607.309        0.618        0.178       93.752       21.969        0.055      344.008       20.522      862.325
07/19/2013  03:43:00     -118.305      -38.874       -1.140       53.993       29.696       23.319     2915.266      881.876      543.761        0.992        0.217      124.528       20.881        0.028      343.979       20.472      862.332
07/19/2013  03:44:00     -152.379      -65.568        0.367       44.081       28.104       21.803     1943.130      789.853      475.385        1.536        0.160      165.888       18.887        0.013      343.968       20.453      862.320
07/19/2013  03:45:00     -124.010      -82.370       -1.917       42.521       26.423       21.305     1808.013      698.166      453.914        1.256        0.148      148.873       17.054        0.013      343.919       20.369      862.312
07/19/2013  03:46:00      -33.112      -42.558       12.036       47.982       32.367       22.371     2302.290     1047.623      500.451        0.345        0.193       53.922       20.784        0.149      343.937       20.401      862.311
07/19/2013  03:47:00      -62.510      -56.974        4.239       39.217       30.152       18.421     1538.001      909.170      339.323        0.498        0.139       84.579       19.342        0.052      344.006       20.518      862.301
07/19/2013  03:48:00      -95.031       -5.185       -5.926       20.924       22.324       17.308      437.798      498.341      299.577        0.516        0.062       95.172        9.890        0.011      343.801       20.168      862.292
07/19/2013  03:49:00      -88.690       -8.296       -8.424       38.859       19.637       17.335     1510.002      385.621      300.505        0.510        0.110       89.077       16.531        0.034      343.914       20.362      862.294
07/19/2013  03:50:00     -133.989      -34.384       -7.634       20.102       22.292       15.532      404.090      496.953      241.242        1.017        0.057      138.331        9.283        0.005      344.040       20.575      862.289
07/19/2013  03:51:00     -113.855      -49.760       -5.447       25.432       23.507       15.152      646.777      552.587      229.598        0.845        0.071      124.254       12.940        0.011      343.885       20.313      862.277
07/19/2013  03:52:00      -82.420      -12.413       -4.428       19.717       28.756       14.222      388.773      826.893      202.261        0.419        0.071       83.349       11.998        0.021      343.791       20.152      862.294
07/19/2013  03:53:00      -65.819        4.310        0.053       36.189       17.492       12.665     1309.666      305.974      160.400        0.306        0.089       65.960       14.630        0.049      343.797       20.163      862.297
07/19/2013  03:54:00      -82.216      -27.821      -10.518       24.666       25.925       16.037      608.410      672.081      257.181        0.459        0.077       86.796       13.065        0.023      343.781       20.134      862.303
07/19/2013  03:55:00        0.400      -19.446        4.310       26.276       25.046       20.633      690.406      627.310      425.702        0.107        0.087       19.450       17.555        0.815      343.685       19.969      862.310
07/19/2013  03:56:00      -27.312      -19.653        4.604       24.931       19.526       15.144      621.570      381.279      229.333        0.119        0.062       33.648       16.974        0.254      343.643       19.900      862.320
07/19/2013  03:57:00      -10.831      -31.065        0.657       16.377       18.234       11.358      268.218      332.479      129.007        0.091        0.036       32.899        6.837        0.043      343.717       20.025      862.324
07/19/2013  03:58:00      -54.328      -53.963       -8.175       35.464       18.643       17.098     1257.668      347.563      292.345        0.391        0.095       76.574        8.925        0.014      343.888       20.317      862.337
07/19/2013  03:59:00     -111.992      -49.950       -8.463       23.759       20.882       13.246      564.507      436.060      175.452        0.814        0.059      122.626        8.379        0.005      343.697       19.991      862.359
07/19/2013  04:00:00      -11.352      -26.851        7.910       28.548       20.096       14.608      814.974      403.853      213.401        0.117        0.072       29.152       14.366        0.243      343.645       19.902      862.379
07/19/2013  04:01:00      -14.251      -29.270       -3.150       12.121       14.239       11.265      146.926      202.737      126.910        0.077        0.024       32.555        5.734        0.031      343.858       20.267      862.382
07/19/2013  04:02:00      -30.764      -61.642        0.189       20.447       15.899        9.141      418.063      252.765       83.551        0.275        0.038       68.892        7.086        0.011      344.085       20.654      862.373
07/19/2013  04:03:00      -74.166      -67.216        1.652       33.120       24.428       18.476     1096.934      596.712      341.375        0.603        0.102      100.093       11.021        0.012      344.044       20.583      862.390
07/19/2013  04:04:00      -81.525      -52.919        4.323       32.875       32.154       17.251     1080.797     1033.901      297.587        0.594        0.121       97.195       15.563        0.026      343.965       20.449      862.393
07/19/2013  04:05:00      -71.454      -33.278        1.009       34.391       24.014       13.724     1182.762      576.671      188.356        0.408        0.097       78.824       12.668        0.026      343.751       20.084      862.383
07/19/2013  04:06:00      -87.031      -28.786        0.831       18.223       19.144        9.518      332.074      366.490       90.588        0.460        0.039       91.668        5.871        0.004      343.705       20.006      862.381
07/19/2013  04:07:00      -93.354      -22.883       -1.184       16.464       20.740       11.442      271.051      430.145      130.909        0.504        0.042       96.117        7.739        0.006      343.730       20.047      862.366
07/19/2013  04:08:00      -50.336      -18.816        4.811       35.031       20.179       12.513     1227.165      407.199      156.578        0.235        0.090       53.738       13.039        0.059      343.651       19.913      862.364
07/19/2013  04:09:00      -14.642      -17.807        9.538       28.419       20.834       16.911      807.663      434.036      285.985        0.107        0.076       23.053       16.581        0.517      343.698       19.992      862.373
07/19/2013  04:10:00      -53.145      -17.607        5.279       55.531       23.911       17.479     3083.672      571.720      305.503        0.356        0.198       55.986       20.874        0.139      343.631       19.877      862.363
07/19/2013  04:11:00      -80.073      -42.672        0.316       35.737       18.103       12.968     1277.114      327.713      168.173        0.500        0.089       90.734        5.058        0.003      343.697       19.991      862.347
07/19/2013  04:12:00      -45.272      -35.355       -0.771       32.250       10.899       15.012     1040.040      118.791      225.360        0.234        0.069       57.441       17.444        0.092      343.811       20.184      862.338
07/19/2013  04:13:00      -65.357      -12.818       -2.558       22.621       18.146        9.569      511.717      329.276       91.568        0.269        0.047       66.602        8.315        0.016      343.677       19.955      862.347
07/19/2013  04:14:00      -72.098      -44.243        0.943       23.540       24.536       13.874      554.112      602.033      192.488        0.425        0.067       84.590       11.029        0.017      343.516       19.682      862.357
07/19/2013  04:15:00      -80.076      -23.367       -1.952       25.591       33.034       18.712      654.924     1091.246      350.157        0.453        0.105       83.415       15.674        0.035      343.434       19.542      862.351
07/19/2013  04:16:00      -71.418      -17.741        2.690       34.931       23.583       16.369     1220.190      556.146      267.953        0.373        0.102       73.589       16.174        0.048      343.403       19.489      862.344
07/19/2013  04:17:00      -29.339      -22.848       10.212       43.386       20.760       17.084     1882.335      430.972      291.870        0.205        0.130       37.186       21.426        0.332      343.537       19.718      862.333
07/19/2013  04:18:00      -39.237      -33.965       10.599       43.641       22.130       19.078     1904.540      489.738      363.952        0.278        0.138       51.896       26.755        0.266      343.586       19.803      862.338
07/19/2013  04:19:00      -60.364       -9.185       -3.007       30.375       17.224       12.980      922.643      296.662      168.474        0.256        0.069       61.059       16.179        0.070      343.518       19.686      862.340
07/19/2013  04:20:00      -76.713      -36.111       -8.214       15.557       18.019       11.653      242.021      324.678      135.786        0.398        0.035       84.788        9.900        0.014      343.508       19.668      862.327
07/19/2013  04:21:00      -80.339      -44.964       -3.977       22.231       17.753       12.110      494.197      315.178      146.654        0.472        0.048       92.066       10.109        0.012      343.506       19.664      862.321
07/19/2013  04:22:00     -116.785      -68.212       -6.582       29.523       16.905       17.832      871.585      285.787      317.979        0.990        0.074      135.246        6.768        0.003      343.373       19.440      862.319
07/19/2013  04:23:00     -128.763      -57.720       -2.347       22.862       20.997       16.408      522.659      440.860      269.208        1.057        0.062      141.108       12.100        0.007      343.283       19.286      862.312
07/19/2013  04:24:00      -81.552      -33.902        1.817       27.907       20.714       13.884      778.816      429.055      192.755        0.460        0.070       88.317        6.843        0.006      343.332       19.368      862.317
07/19/2013  04:25:00      -84.155      -49.564       -5.014       30.636       21.495       15.268      938.542      462.037      233.108        0.560        0.082       97.666       12.518        0.016      343.329       19.364      862.321
07/19/2013  04:26:00      -42.431      -42.744        5.014       34.486       28.299       19.938     1189.296      800.807      397.508        0.302        0.119       60.228       20.427        0.115      343.413       19.507      862.319
07/19/2013  04:27:00      -87.555      -25.341       -7.051       21.170       15.258        8.946      448.155      232.799       80.023        0.456        0.038       91.149        6.127        0.005      343.442       19.555      862.317
07/19/2013  04:28:00      -91.595      -32.515       -3.901       21.503       18.507       11.719      462.396      342.521      137.342        0.520        0.047       97.195       10.174        0.011      343.512       19.676      862.327
07/19/2013  04:29:00     -112.809      -36.748       -3.509       17.509       21.241       15.637      306.565      451.177      244.506        0.755        0.050      118.644       11.757        0.010      343.392       19.470      862.339
07/19/2013  04:30:00      -51.094      -52.106       -2.670       29.459       16.045       12.647      867.828      257.434      159.956        0.331        0.064       72.977        6.353        0.008      343.377       19.444      862.331
07/19/2013  04:31:00      -64.894      -43.825        0.449       33.639       16.072       13.686     1131.585      258.307      187.306        0.385        0.079       78.306       16.338        0.044      343.424       19.526      862.327
07/19/2013  04:32:00      -71.731      -45.353       -0.251       45.263       26.860       18.346     2048.696      721.461      336.585        0.515        0.155       84.866       22.990        0.073      343.377       19.444      862.326
07/19/2013  04:33:00       -8.036      -29.563        8.183       18.882       21.259       16.170      356.528      451.940      261.475        0.104        0.053       30.636       11.825        0.149      343.401       19.486      862.326
07/19/2013  04:34:00      -23.307      -22.185       11.510       42.680       24.369       18.051     1821.557      593.826      325.848        0.195        0.137       32.177       20.476        0.405      343.386       19.461      862.321
07/19/2013  04:35:00     -108.217      -63.055       -4.088       27.092       18.401       19.346      733.983      338.591      374.266        0.857        0.072      125.247       15.876        0.016      343.393       19.473      862.328
07/19/2013  04:36:00      -60.238      -52.093        8.599       54.886       39.679       24.487     3012.509     1574.432      599.624        0.580        0.259       79.639       24.181        0.092      343.313       19.337      862.354
07/19/2013  04:37:00      -59.560      -72.318        2.240       61.176       50.291       26.640     3742.532     2529.200      709.681        0.788        0.349       93.687       20.608        0.048      343.321       19.350      862.365
07/19/2013  04:38:00      -64.875      -42.840        3.182       44.269       36.674       27.393     1959.720     1344.988      750.396        0.505        0.203       77.743       21.080        0.074      343.368       19.431      862.361
07/19/2013  04:39:00     -102.932      -51.902       -2.238       29.225       25.968       18.748      854.091      674.351      351.492        0.759        0.094      115.277       13.372        0.013      343.471       19.607      862.368
07/19/2013  04:40:00     -114.885      -96.919       -7.671       45.569       37.716       25.801     2076.533     1422.506      665.673        1.341        0.208      150.306       21.544        0.021      343.479       19.619      862.392
07/19/2013  04:41:00      -90.556      -76.945       -3.458       37.080       37.004       20.659     1374.945     1369.277      426.785        0.865        0.159      118.832       20.189        0.029      343.503       19.659      862.405
07/19/2013  04:42:00      -99.772      -71.850        2.477       42.585       32.643       22.751     1813.519     1065.564      517.598        0.926        0.170      122.951       20.380        0.027      343.554       19.747      862.417
07/19/2013  04:43:00      -83.805      -56.412        6.263       55.189       41.299       23.801     3045.856     1705.593      566.495        0.778        0.266      101.023       27.690        0.075      343.539       19.722      862.450
07/19/2013  04:44:00      -81.265      -58.601        5.403       42.118       31.718       23.330     1773.930     1006.062      544.299        0.670        0.166      100.190       22.537        0.051      343.567       19.767      862.471
07/19/2013  04:45:00      -82.762      -65.834       -0.094       44.226       37.484       24.840     1955.956     1405.053      617.030        0.758        0.199      105.753       27.010        0.065      343.496       19.649      862.484
07/19/2013  04:46:00     -108.681      -90.657        0.406       56.325       59.071       36.694     3172.491     3489.342     1346.428        1.402        0.400      141.528       37.247        0.069      343.626       19.869      862.496
07/19/2013  04:47:00     -120.571      -92.930       -2.271       63.192       54.873       26.365     3993.175     3011.010      695.116        1.544        0.385      152.228       26.451        0.030      343.526       19.699      862.511
07/19/2013  04:48:00     -131.909      -63.205       -7.396       37.445       43.400       21.040     1402.150     1883.571      442.668        1.259        0.186      146.270       12.692        0.008      343.464       19.595      862.513
07/19/2013  04:49:00     -111.562       -6.730       -3.253       44.492       27.610       21.511     1979.532      762.312      462.736        0.785        0.160      111.764       23.911        0.046      343.304       19.322      862.512
07/19/2013  04:50:00      -87.074      -23.525       -0.585       43.708       20.823       18.166     1910.397      433.582      330.005        0.540        0.134       90.196       16.063        0.032      343.256       19.240      862.530
07/19/2013  04:51:00     -101.154        1.742       -4.258       37.369       21.959       21.384     1396.433      482.214      457.273        0.629        0.117      101.169       22.107        0.048      343.249       19.229      862.535
07/19/2013  04:52:00      -85.775        2.632       -2.739       28.395       28.446       13.322      806.259      809.169      177.480        0.458        0.090       85.816        9.893        0.013      343.399       19.483      862.533
07/19/2013  04:53:00      -22.460      -27.199       -1.796       24.960       14.899        9.784      622.991      221.971       95.731        0.109        0.047       35.273        7.694        0.048      343.492       19.641      862.545
07/19/2013  04:54:00        1.865      -52.327       -2.689       16.391       25.380       13.605      268.654      644.146      185.104        0.192        0.055       52.360       11.966        0.052      343.491       19.641      862.555
07/19/2013  04:55:00        5.959      -42.531       -4.882       20.776       20.310       16.641      431.628      412.496      276.928        0.149        0.056       42.947        8.973        0.044      343.454       19.578      862.572
07/19/2013  04:56:00      -46.889      -17.957       -9.107       23.707        9.984       14.315      562.027       99.689      204.908        0.174        0.043       50.210       11.948        0.057      343.311       19.332      862.588
07/19/2013  04:57:00      -22.967      -11.504       -7.522        9.091       10.673        5.416       82.651      113.914       29.338        0.047        0.011       25.687        4.048        0.025      343.295       19.306      862.583
07/19/2013  04:58:00      -32.721      -13.767        0.187       12.766        9.632        7.204      162.975       92.774       51.896        0.078        0.015       35.499        3.515        0.010      343.358       19.414      862.565
07/19/2013  04:59:00      -39.961      -33.934       -3.891       20.277       12.281       10.645      411.177      150.826      113.306        0.172        0.034       52.425        4.994        0.009      343.413       19.506      862.571
07/19/2013  05:00:00      -32.951      -16.938        3.523       18.977       13.658        7.377      360.116      186.549       54.420        0.099        0.030       37.049        5.539        0.022      343.456       19.579      862.564
07/19/2013  05:01:00      -42.305      -10.020        2.967       12.613       13.106        7.911      159.082      171.759       62.581        0.115        0.020       43.475        2.316        0.003      343.402       19.488      862.562
07/19/2013  05:02:00      -61.433        7.303       -3.085       17.053       14.459        6.730      290.821      209.066       45.288        0.219        0.027       61.866        5.211        0.007      343.409       19.499      862.576
07/19/2013  05:03:00      -55.423       20.188       -6.340       11.607       11.710        7.439      134.715      137.125       55.346        0.192        0.016       58.985        4.850        0.007      343.306       19.325      862.584
07/19/2013  05:04:00      -45.644      -11.888       -6.754       16.172       15.960        8.811      261.546      254.719       77.632        0.143        0.030       47.166        8.596        0.033      343.319       19.346      862.594
07/19/2013  05:05:00      -34.785      -24.413       -2.631       21.775       14.143       10.625      474.167      200.030      112.899        0.130        0.039       42.497        7.614        0.032      343.273       19.269      862.598
07/19/2013  05:06:00      -40.717      -27.720       -5.459       15.999       16.178       10.600      255.968      261.742      112.350        0.154        0.032       49.257        2.349        0.002      343.367       19.429      862.615
07/19/2013  05:07:00      -29.943      -36.706       -1.880       13.299       10.527       12.714      176.862      110.809      161.658        0.135        0.022       47.370        7.120        0.023      343.400       19.485      862.629
07/19/2013  05:08:00      -44.936      -39.072        3.631       39.045       26.038       19.788     1524.544      677.991      391.565        0.308        0.130       59.547       14.179        0.057      343.425       19.527      862.639
07/19/2013  05:09:00      -40.084      -75.929        5.504       50.863       41.295       23.659     2586.996     1705.294      559.748        0.613        0.243       85.860       19.727        0.053      343.508       19.671      862.653
07/19/2013  05:10:00      -43.102      -75.516       -1.798       44.961       33.341       21.694     2021.463     1111.631      470.645        0.558        0.180       86.950       11.578        0.018      343.527       19.701      862.671
07/19/2013  05:11:00      -17.909      -34.335       11.388       44.525       36.207       25.444     1982.507     1310.916      647.380        0.278        0.197       38.725       22.797        0.347      343.438       19.551      862.685
07/19/2013  05:12:00       -2.502      -38.182        7.327       26.443       26.445       16.575      699.231      699.319      274.727        0.160        0.084       38.264       11.956        0.098      343.422       19.524      862.685
07/19/2013  05:13:00      -55.512      -62.921        1.566       44.135       49.829       24.041     1947.919     2482.947      577.992        0.602        0.250       83.908       22.272        0.070      343.417       19.516      862.689
07/19/2013  05:14:00      -80.707      -71.379        5.311       65.971       37.116       27.423     4352.222     1377.603      752.038        0.906        0.324      107.743       25.810        0.057      343.350       19.399      862.691
07/19/2013  05:15:00      -84.712      -55.968       11.436       52.510       46.276       35.591     2757.349     2141.448     1266.751        0.830        0.308      101.531       25.839        0.065      343.252       19.233      862.702
07/19/2013  05:16:00     -122.430     -106.194        0.077       49.681       50.720       28.737     2468.246     2572.505      825.813        1.607        0.293      162.069       25.475        0.025      343.265       19.255      862.727
07/19/2013  05:17:00     -122.861      -83.909       -1.628       43.143       39.334       24.559     1861.348     1547.199      603.138        1.307        0.201      148.780       19.073        0.016      343.308       19.326      862.745
07/19/2013  05:18:00      -44.609      -28.934        6.678       38.143       31.149       15.815     1454.870      970.263      250.129        0.277        0.134       53.171       19.340        0.132      343.313       19.335      862.758
07/19/2013  05:19:00      -25.305      -38.039        5.260       21.670       14.500       18.936      469.606      210.264      358.556        0.158        0.052       45.687       13.982        0.094      343.358       19.414      862.773
07/19/2013  05:20:00      -35.230      -41.007        3.529       24.331       25.608       14.554      592.007      655.783      211.809        0.220        0.073       54.062        9.543        0.031      343.399       19.482      862.780
07/19/2013  05:21:00      -17.339      -32.159        0.979       21.664       21.820       13.367      469.332      476.121      178.687        0.123        0.056       36.536       10.756        0.087      343.383       19.455      862.795
07/19/2013  05:22:00      -19.664      -27.594       18.065       25.762       24.189       17.164      663.679      585.103      294.589        0.151        0.077       33.883       12.660        0.140      343.389       19.467      862.807
07/19/2013  05:23:00      -15.542      -29.250       11.182       33.037       25.621       17.335     1091.447      656.425      300.507        0.163        0.102       33.123       13.015        0.154      343.313       19.337      862.806
07/19/2013  05:24:00      -71.931      -65.548        0.642       51.650       36.277       29.907     2667.769     1316.007      894.423        0.717        0.244       97.316       28.685        0.087      343.328       19.361      862.807
07/19/2013  05:25:00      -13.376      -40.773       10.181       43.793       35.009       21.336     1917.810     1225.650      455.238        0.277        0.180       42.911       25.252        0.346      343.364       19.424      862.810
07/19/2013  05:26:00       -4.659      -34.291        9.260       31.127       27.763       17.378      968.877      770.798      302.008        0.166        0.102       34.606       15.982        0.213      343.429       19.534      862.818
07/19/2013  05:27:00     -105.285      -70.535       -4.656       39.381       40.038       20.959     1550.845     1603.039      439.279        0.984        0.180      126.729       20.234        0.025      343.377       19.447      862.814
07/19/2013  05:28:00      -60.120      -62.552        8.581       37.080       23.937       20.568     1374.921      572.960      423.060        0.499        0.119       86.759       20.567        0.056      343.350       19.400      862.819
07/19/2013  05:29:00      -46.937      -30.272       11.217       30.545       29.183       19.883      932.988      851.637      395.317        0.271        0.109       55.852       18.472        0.109      343.328       19.363      862.842
07/19/2013  05:30:00      -53.156      -25.937        4.640       23.309       24.382       16.437      543.312      594.473      270.169        0.246        0.070       59.147       15.405        0.068      343.272       19.268      862.860
07/19/2013  05:31:00      -27.355       -2.298        2.539       22.796       18.755       14.417      519.665      351.746      207.860        0.092        0.054       27.452        9.872        0.129      343.215       19.169      862.879
07/19/2013  05:32:00      -52.160      -22.596       -1.557       21.720       18.464       13.415      471.741      340.912      179.959        0.211        0.050       56.844        5.764        0.010      343.190       19.127      862.892
07/19/2013  05:33:00      -38.820      -17.820        2.675       19.892       17.026       11.022      395.675      289.897      121.482        0.132        0.040       42.715        9.334        0.048      343.225       19.186      862.909
07/19/2013  05:34:00      -67.194      -25.673       -7.784       17.457       17.297       11.798      304.744      299.196      139.181        0.299        0.037       71.932        7.183        0.010      343.326       19.360      862.922
07/19/2013  05:35:00      -70.077       -0.356       -5.744       17.968       18.243       15.089      322.857      332.805      227.678        0.291        0.044       70.078       11.197        0.026      343.271       19.264      862.930
07/19/2013  05:36:00      -85.389       14.694       -3.003       11.252       10.752        7.206      126.619      115.606       51.925        0.391        0.015       86.644        4.068        0.002      343.244       19.218      862.930
07/19/2013  05:37:00      -69.517       -4.885       -5.606       17.436       14.712        7.024      304.030      216.446       49.331        0.273        0.028       69.689        4.242        0.004      343.169       19.091      862.928
07/19/2013  05:38:00      -64.806       -7.526       -7.650       10.377       10.816        8.268      107.675      116.989       68.357        0.230        0.015       65.241        2.375        0.001      343.091       18.957      862.944
07/19/2013  05:39:00      -77.601       -2.826       -6.973       22.406       12.385        9.620      502.015      153.377       92.536        0.341        0.037       77.652       10.431        0.018      343.040       18.871      862.956
07/19/2013  05:40:00      -64.589       12.837       -1.496       16.052       14.949       11.730      257.652      223.478      137.591        0.248        0.031       65.852        9.791        0.022      342.867       18.577      862.975
07/19/2013  05:41:00      -75.221       20.413       -9.679       30.752       28.135       18.871      945.700      791.580      356.128        0.413        0.105       77.941       16.772        0.046      342.779       18.427      862.979
07/19/2013  05:42:00     -125.283       -1.989      -17.465       39.839       36.149       23.196     1587.156     1306.754      538.051        0.972        0.172      125.299       18.542        0.022      342.804       18.470      862.995
07/19/2013  05:43:00      -75.847      -35.802       -9.058       26.008       30.742       22.695      676.418      945.042      515.054        0.463        0.107       83.872       11.950        0.020      342.818       18.493      863.001
07/19/2013  05:44:00      -69.647      -24.557       -3.324       27.298       20.360       16.118      745.161      414.548      259.795        0.344        0.071       73.850        9.865        0.018      342.773       18.416      862.995
07/19/2013  05:45:00      -67.624       -8.153       -4.848       26.966       26.859       11.910      727.162      721.386      141.841        0.313        0.080       68.113       10.389        0.023      342.716       18.321      862.985
07/19/2013  05:46:00      -77.350      -23.392      -13.223       22.828       16.644       11.790      521.124      277.027      139.010        0.382        0.047       80.810       13.392        0.027      342.706       18.303      862.994
07/19/2013  05:47:00      -65.808      -28.670      -10.961       18.798        7.540        6.893      353.374       56.854       47.510        0.287        0.023       71.782        5.664        0.006      342.703       18.299      863.000
07/19/2013  05:48:00      -11.766      -35.963      -12.874       20.993       11.975       10.162      440.719      143.396      103.267        0.114        0.034       37.839        6.830        0.033      342.841       18.534      863.002
07/19/2013  05:49:00      -39.746      -32.180       -4.547       31.951       10.866       10.592     1020.871      118.072      112.190        0.194        0.063       51.140       14.752        0.083      342.854       18.556      863.007
07/19/2013  05:50:00      -92.235      -43.489       -5.630       16.425       10.792        9.945      269.783      116.457       98.905        0.546        0.024      101.973        1.901        0.000      342.817       18.491      863.023
07/19/2013  05:51:00      -21.034      -47.481       -2.661       27.369       14.318       11.565      749.083      205.016      133.758        0.190        0.054       51.931        8.375        0.026      342.856       18.559      863.051
07/19/2013  05:52:00      -33.383      -16.410       -6.074       13.584       14.106       10.385      184.518      198.979      107.851        0.096        0.025       37.199        5.974        0.026      342.905       18.643      863.054
07/19/2013  05:53:00      -44.225      -20.372       -1.578       12.102       11.658        7.870      146.459      135.908       61.938        0.136        0.017       48.691        3.013        0.004      342.947       18.714      863.064
07/19/2013  05:54:00      -63.396       -8.051       -6.783       12.970       14.430        8.091      168.226      208.213       65.463        0.229        0.022       63.905        4.471        0.005      342.964       18.744      863.072
07/19/2013  05:55:00      -92.306      -13.417      -11.002        7.724       16.537        6.389       59.660      273.459       40.817        0.460        0.019       93.276        6.101        0.004      342.962       18.739      863.080
07/19/2013  05:56:00     -106.465      -37.573       -9.456        9.182       13.497        8.475       84.313      182.173       71.818        0.659        0.017      112.901        6.338        0.003      342.949       18.717      863.076
07/19/2013  05:57:00     -121.899      -29.760       -9.615       13.775       16.413        8.940      189.756      269.395       79.932        0.819        0.027      125.480        5.951        0.002      342.870       18.583      863.075
07/19/2013  05:58:00     -137.625       -4.849      -17.694       35.400       22.799       14.453     1253.195      519.799      208.893        1.063        0.099      137.711       13.519        0.010      342.718       18.322      863.096
07/19/2013  05:59:00      -98.848      -35.529      -14.579       24.609       14.086        8.973      605.620      198.405       80.511        0.607        0.044      105.039       12.203        0.013      342.785       18.436      863.119
07/19/2013  06:00:00      -41.358      -47.766        0.378       22.749       13.261       15.572      517.536      175.847      242.494        0.246        0.047       63.183       13.961        0.049      342.832       18.518      863.133
07/19/2013  06:01:00      -74.564      -43.263       -4.251       17.410       14.612        7.594      303.109      213.506       57.670        0.401        0.029       86.206        4.122        0.002      342.924       18.674      863.142
07/19/2013  06:02:00     -106.238      -38.983      -11.602       18.026       16.131       11.056      324.928      260.204      122.241        0.682        0.035      113.164        5.089        0.002      342.868       18.580      863.153
07/19/2013  06:03:00     -121.327      -51.758       -8.401       19.031       16.500       16.606      362.190      272.246      275.759        0.919        0.046      131.906        7.711        0.003      342.732       18.348      863.163
07/19/2013  06:04:00      -74.294      -62.059       -3.889       40.548       29.927       20.447     1644.142      895.647      418.079        0.617        0.148       96.804       18.564        0.037      342.746       18.371      863.159
07/19/2013  06:05:00      -84.959      -64.447       -3.213       40.032       33.892       26.852     1602.525     1148.684      721.043        0.743        0.174      106.637       23.580        0.049      342.726       18.336      863.148
07/19/2013  06:06:00      -99.438      -60.231        3.254       57.020       36.868       28.817     3251.318     1359.244      830.445        0.948        0.272      116.257       32.050        0.076      342.651       18.210      863.146
07/19/2013  06:07:00     -165.399      -58.103       -3.193       45.073       38.451       26.162     2031.534     1478.506      684.445        1.747        0.210      175.307       26.311        0.023      342.624       18.163      863.149
07/19/2013  06:08:00     -174.535      -59.672        1.836       48.118       34.393       28.883     2315.316     1182.880      834.242        1.918        0.217      184.454       29.237        0.025      342.636       18.184      863.165
07/19/2013  06:09:00     -168.775      -72.747      -11.032       33.883       25.672       20.514     1148.069      659.058      420.833        1.806        0.111      183.785       15.472        0.007      342.618       18.152      863.165
07/19/2013  06:10:00     -161.859      -50.893       -8.017       36.953       33.553       23.289     1365.543     1125.771      542.399        1.594        0.152      169.672       20.521        0.015      342.654       18.215      863.175
07/19/2013  06:11:00     -172.951      -74.107      -10.096       25.655       23.169       19.394      658.176      536.805      376.116        1.854        0.079      188.160       15.476        0.007      342.766       18.406      863.193
07/19/2013  06:12:00     -152.817      -85.227       -2.324       44.101       30.357       23.397     1944.928      921.531      547.436        1.702        0.171      174.976       20.135        0.013      342.778       18.424      863.194
07/19/2013  06:13:00     -112.315      -72.582       -4.059       39.719       30.581       21.144     1577.562      935.179      447.080        1.043        0.148      133.727       13.962        0.011      342.842       18.535      863.188
07/19/2013  06:14:00     -135.779      -69.828      -11.971       36.630       30.652       22.122     1341.770      939.520      489.374        1.311        0.139      152.682       17.887        0.014      342.836       18.524      863.178
07/19/2013  06:15:00     -192.927      -49.612       -8.036       56.615       45.461       31.020     3205.279     2066.667      962.266        2.299        0.312      199.204       32.309        0.026      342.775       18.418      863.170
07/19/2013  06:16:00     -182.914      -64.418        1.577       62.587       47.464       31.845     3917.095     2252.834     1014.136        2.240        0.359      193.926       33.862        0.030      342.820       18.495      863.160
07/19/2013  06:17:00     -178.978      -46.211       -7.348       44.820       48.579       29.470     2008.800     2359.922      868.469        1.973        0.262      184.848       22.447        0.015      343.025       18.843      863.149
07/19/2013  06:18:00     -112.000      -54.459        0.881       64.602       44.309       26.790     4173.366     1963.323      717.714        1.118        0.343      124.538       31.344        0.063      343.043       18.877      863.145
07/19/2013  06:19:00     -149.899      -29.090       -7.811       39.570       27.616       20.642     1565.810      762.640      426.073        1.307        0.138      152.696       17.970        0.014      343.027       18.850      863.150
07/19/2013  06:20:00     -162.636      -38.671       -5.443       23.607       21.047       19.496      557.287      442.972      380.093        1.468        0.069      167.170       14.510        0.008      343.069       18.922      863.159
07/19/2013  06:21:00     -163.591      -35.975      -10.918       17.588       17.009       14.490      309.324      289.305      209.963        1.449        0.040      167.500        9.898        0.003      343.139       19.040      863.172
07/19/2013  06:22:00     -131.412      -33.677       -5.223       23.315       22.075       14.239      543.586      487.307      202.759        0.983        0.062      135.658       13.388        0.010      343.202       19.147      863.173
07/19/2013  06:23:00     -133.140      -32.858       -6.153       30.745       25.863       19.497      945.227      668.920      380.115        1.042        0.100      137.135       19.360        0.020      343.253       19.235      863.161
07/19/2013  06:24:00     -143.253      -26.105      -10.886       30.892       26.034       18.838      954.339      677.750      354.871        1.165        0.099      145.612       17.097        0.014      343.307       19.327      863.145
07/19/2013  06:25:00     -109.203      -19.815       -1.165       38.610       26.541       21.071     1490.716      704.418      443.993        0.748        0.132      110.986       19.043        0.029      343.338       19.378      863.144
07/19/2013  06:26:00     -121.180      -48.553      -11.469       22.632       25.828       19.949      512.224      667.074      397.978        0.938        0.079      130.545        8.865        0.005      343.296       19.308      863.138
07/19/2013  06:27:00     -133.940      -39.046      -12.157       19.939       20.503       13.645      397.545      420.379      186.178        1.031        0.050      139.515       10.866        0.006      343.227       19.190      863.140
07/19/2013  06:28:00     -112.660      -26.812       -3.345       25.486       16.963       15.960      649.525      287.728      254.711        0.731        0.060      115.807       15.890        0.019      343.235       19.205      863.140
07/19/2013  06:29:00      -56.020      -29.975        5.878       39.537       28.418       18.033     1563.183      807.578      325.174        0.338        0.135       63.535       19.206        0.091      343.219       19.178      863.136
07/19/2013  06:30:00      -82.890      -37.937       -0.938       26.481       19.236       14.437      701.246      370.010      208.438        0.479        0.064       91.159       10.900        0.014      343.170       19.093      863.149
07/19/2013  06:31:00      -19.244      -29.349        8.948       47.461       22.806       16.982     2252.510      520.111      288.396        0.219        0.153       35.095       23.090        0.433      343.322       19.352      863.166
07/19/2013  06:32:00      -41.174      -49.366        4.662       40.428       25.876       20.773     1634.424      669.566      431.506        0.344        0.137       64.283       22.297        0.120      343.307       19.325      863.182
07/19/2013  06:33:00      -77.912      -73.572       -2.549       32.841       29.770       19.913     1078.500      886.241      396.543        0.692        0.118      107.159       17.259        0.026      343.237       19.208      863.187
07/19/2013  06:34:00      -89.981      -47.611       -1.121       22.908       18.502       13.458      524.787      342.310      181.124        0.571        0.052      101.800       12.467        0.015      343.272       19.267      863.183
07/19/2013  06:35:00      -90.371      -42.234        0.067       20.810       12.939       15.157      433.055      167.418      229.735        0.539        0.042       99.753       12.601        0.016      343.294       19.305      863.183
07/19/2013  06:36:00      -88.344      -57.517       -3.797       27.680       19.839       15.841      766.170      393.571      250.946        0.627        0.071      105.418       12.009        0.013      343.237       19.206      863.171
07/19/2013  06:37:00      -82.585      -46.960        1.054       26.409       21.852       15.200      697.413      477.515      231.044        0.522        0.070       95.003       13.022        0.019      343.227       19.191      863.171
07/19/2013  06:38:00      -78.379      -45.038       -0.893       28.019       18.564       13.783      785.083      344.637      189.959        0.475        0.066       90.397       14.172        0.025      343.296       19.307      863.165
07/19/2013  06:39:00      -80.865      -49.078       -0.034       22.210       21.504       14.640      493.278      462.433      214.342        0.506        0.059       94.593       10.851        0.013      343.311       19.333      863.169
07/19/2013  06:40:00      -58.883      -36.810        9.146       46.875       28.535       21.637     2197.230      814.232      468.178        0.419        0.174       69.443       20.799        0.090      343.312       19.335      863.176
07/19/2013  06:41:00      -67.582      -78.237        8.460       36.467       39.783       22.484     1329.839     1582.652      505.529        0.709        0.171      103.384       24.452        0.056      343.401       19.487      863.169
07/19/2013  06:42:00      -96.884      -62.920        2.153       45.361       34.127       25.261     2057.625     1164.650      638.101        0.860        0.193      115.522       21.489        0.035      343.439       19.552      863.187
07/19/2013  06:43:00     -118.897      -74.108        2.519       38.939       29.049       22.713     1516.213      843.856      515.889        1.125        0.144      140.101       17.120        0.015      343.458       19.580      863.196
07/19/2013  06:44:00      -71.305      -60.240        5.062       35.105       30.015       21.001     1232.389      900.902      441.048        0.566        0.129       93.344       20.182        0.047      343.450       19.572      863.212
07/19/2013  06:45:00      -68.631      -61.665        2.591       40.479       30.704       22.708     1638.519      942.764      515.661        0.581        0.155       92.265       22.117        0.057      343.506       19.665      863.236
07/19/2013  06:46:00      -72.731      -54.985       -3.291       29.236       26.904       17.011      854.756      723.841      289.381        0.510        0.093       91.177       15.434        0.029      343.575       19.782      863.232
07/19/2013  06:47:00      -50.765      -55.240        0.759       38.236       25.415       18.290     1461.960      645.916      334.514        0.404        0.122       75.023       19.709        0.069      343.554       19.747      863.245
07/19/2013  06:48:00      -95.542      -72.383       -4.754       18.910       19.260       14.871      357.571      370.943      221.149        0.767        0.047      119.865       10.683        0.008      343.482       19.623      863.239
07/19/2013  06:49:00      -85.846      -76.109       -1.981       31.304       26.537       20.448      979.951      704.232      418.101        0.763        0.105      114.726       18.815        0.027      343.470       19.604      863.237
07/19/2013  06:50:00      -66.233      -63.685        4.522       40.225       43.873       25.070     1618.060     1924.815      628.524        0.632        0.209       91.883       24.236        0.070      343.400       19.485      863.241
07/19/2013  06:51:00     -102.031      -62.678        1.148       47.977       40.245       28.854     2301.833     1619.645      832.562        0.955        0.238      119.744       22.980        0.037      343.423       19.524      863.236
07/19/2013  06:52:00      -85.310      -78.942       -1.713       44.078       37.320       21.575     1942.877     1392.796      465.474        0.866        0.190      116.231       27.071        0.054      343.453       19.575      863.241
07/19/2013  06:53:00      -56.274      -59.802        2.526       30.187       33.045       15.505      911.273     1091.998      240.411        0.450        0.112       82.116       15.831        0.037      343.482       19.624      863.245
07/19/2013  06:54:00      -60.716      -56.862        3.742       38.295       20.468       22.939     1466.512      418.928      526.195        0.467        0.121       83.185       23.219        0.078      343.502       19.659      863.251
07/19/2013  06:55:00      -71.638      -78.728       -4.480       24.922       26.458       15.554      621.088      700.018      241.941        0.646        0.078      106.443       13.383        0.016      343.512       19.676      863.256
07/19/2013  06:56:00      -70.438      -53.152       -0.423       31.638       28.864       18.135     1000.948      833.154      328.878        0.497        0.108       88.242       18.851        0.046      343.548       19.738      863.260
07/19/2013  06:57:00      -53.840      -46.096        3.071       31.148       21.941       15.463      970.185      481.412      239.099        0.336        0.085       70.878       12.564        0.031      343.571       19.777      863.255
07/19/2013  06:58:00      -48.311      -49.743       -4.098       31.818       21.512       14.023     1012.387      462.771      196.655        0.325        0.084       69.342       12.836        0.034      343.631       19.875      863.244
07/19/2013  06:59:00      -65.142      -78.277       -7.910       19.537       22.938       18.073      381.676      526.146      326.625        0.583        0.062      101.837       17.645        0.030      343.610       19.843      863.229
07/19/2013  07:00:00      -41.392      -51.953        4.277       26.348       29.244       17.882      694.223      855.231      319.774        0.315        0.093       66.426       18.215        0.075      343.717       20.025      863.217
07/19/2013  07:01:00      -66.731      -37.588       -7.521       14.412       14.098        9.391      207.703      198.751       88.182        0.321        0.025       76.589        8.203        0.011      343.702       19.998      863.197
07/19/2013  07:02:00      -35.114      -32.297        4.080       38.900       16.040       17.136     1513.177      257.289      293.627        0.218        0.103       47.709       20.564        0.186      343.828       20.216      863.199
07/19/2013  07:03:00      -30.465      -37.835        9.495       29.534       25.273       16.391      872.250      638.750      268.680        0.211        0.089       48.576       16.270        0.112      343.781       20.135      863.207
07/19/2013  07:04:00      -59.652      -64.955       -3.106       23.090       23.949       14.307      533.126      573.541      204.691        0.455        0.066       88.190        9.550        0.012      343.796       20.161      863.204
07/19/2013  07:05:00      -48.747      -79.018       -0.412       16.483       23.555       15.758      271.688      554.854      248.320        0.485        0.054       92.845        8.756        0.009      343.775       20.125      863.203
07/19/2013  07:06:00      -16.346      -34.367       10.138       30.275       19.803       19.377      916.568      392.151      375.473        0.162        0.084       38.056       15.564        0.167      343.972       20.461      863.200
07/19/2013  07:07:00      -17.438      -19.231       14.078       26.814       23.752       18.345      718.966      564.172      336.522        0.125        0.081       25.960       15.948        0.377      344.086       20.656      863.195
07/19/2013  07:08:00      -23.447      -58.054       12.526       35.289       31.890       19.076     1245.343     1016.958      363.877        0.335        0.131       62.610       19.481        0.097      343.835       20.228      863.191
07/19/2013  07:09:00      -28.226      -30.091        7.205       26.212       27.123       15.341      687.081      735.650      235.332        0.171        0.083       41.258       15.832        0.147      343.905       20.348      863.192
07/19/2013  07:10:00      -78.337      -31.603        4.298       19.131       19.876       12.047      365.997      395.055      145.120        0.403        0.045       84.471        5.945        0.005      343.835       20.225      863.187
07/19/2013  07:11:00      -55.624      -19.666       -2.874       25.255       14.302        9.439      637.807      204.543       89.092        0.221        0.047       58.998        4.585        0.006      343.920       20.372      863.193
07/19/2013  07:12:00      -45.986      -14.507        0.691       16.544       15.055       10.282      273.709      226.649      105.728        0.147        0.030       48.220        9.966        0.043      343.994       20.499      863.202
07/19/2013  07:13:00      -35.077      -12.400       -0.443        8.508       15.181        9.478       72.379      230.465       89.824        0.089        0.020       37.204        9.646        0.067      343.988       20.487      863.211
07/19/2013  07:14:00      -46.891        3.262       -1.458        8.337        6.403        5.379       69.509       41.000       28.933        0.118        0.007       47.004        2.173        0.002      343.984       20.484      863.216
07/19/2013  07:15:00      -37.267       11.066        2.102       15.679       10.286       14.436      245.832      105.801      208.406        0.104        0.028       38.876        3.033        0.006      344.134       20.738      863.221
07/19/2013  07:16:00       -7.829        2.106       17.475       10.831        7.323       12.428      117.300       53.626      154.461        0.035        0.016        8.108        5.857        0.522      344.743       21.779      863.227
07/19/2013  07:17:00      -10.091        2.062       19.491       10.092       12.284       12.329      101.848      150.895      152.005        0.045        0.020       10.300        7.315        0.504      344.800       21.876      863.233
07/19/2013  07:18:00      -11.516      -18.132        6.283       24.234       14.391       12.022      587.270      207.089      144.531        0.072        0.047       21.480       13.496        0.395      344.316       21.048      863.234
07/19/2013  07:19:00      -33.316      -15.038        8.618       27.795       21.496       13.526      772.536      462.082      182.953        0.141        0.071       36.553       13.281        0.132      344.184       20.824      863.226
07/19/2013  07:20:00      -44.983      -31.170        1.828       28.406       18.047       12.542      806.876      325.686      157.290        0.214        0.064       54.727       12.264        0.050      344.157       20.778      863.230
07/19/2013  07:21:00      -42.208      -35.086        3.711       27.149       16.417       15.047      737.084      269.528      226.404        0.213        0.062       54.887       15.532        0.080      344.306       21.032      863.226
07/19/2013  07:22:00      -29.575      -43.246        4.698       26.850       24.487       16.935      720.940      599.619      286.795        0.219        0.080       52.392       15.675        0.090      344.300       21.021      863.221
07/19/2013  07:23:00      -30.931      -63.512        5.374       25.019       31.263       13.399      625.950      977.376      179.546        0.340        0.089       70.643        7.617        0.012      344.128       20.729      863.227
07/19/2013  07:24:00      -54.838      -74.188        0.487       26.291       22.462       15.679      691.213      504.532      245.822        0.498        0.072       92.255       13.534        0.022      344.108       20.694      863.215
07/19/2013  07:25:00      -32.140      -48.978        3.302       28.163       27.238       15.898      793.166      741.890      252.757        0.261        0.089       58.582       10.531        0.032      344.154       20.772      863.210
07/19/2013  07:26:00      -23.171      -34.813        0.700       28.893       29.245       19.079      834.782      855.245      364.018        0.190        0.103       41.819       13.665        0.107      344.294       21.011      863.198
07/19/2013  07:27:00      -47.793      -68.022       -4.128       29.671       21.883       15.772      880.351      478.873      248.772        0.427        0.080       83.134       12.252        0.022      344.172       20.803      863.194
07/19/2013  07:28:00      -29.808      -52.042        2.825       31.895       30.108       20.726     1017.308      906.498      429.554        0.298        0.118       59.975       23.602        0.155      344.283       20.991      863.182
07/19/2013  07:29:00      -50.712      -52.631        2.179       24.131       27.108       16.940      582.287      734.837      286.955        0.347        0.080       73.087       16.000        0.048      344.224       20.892      863.190
07/19/2013  07:30:00      -62.470      -59.833       -6.742       28.452       17.383       15.416      809.538      302.173      237.639        0.444        0.067       86.502       11.080        0.016      344.256       20.946      863.193
07/19/2013  07:31:00      -43.722      -51.849        2.850       33.161       26.883       20.022     1099.623      722.682      400.883        0.342        0.111       67.823       13.554        0.040      344.307       21.033      863.186
07/19/2013  07:32:00      -45.270      -86.328        0.657       21.725       21.799       16.764      471.996      475.204      281.019        0.537        0.061       97.478       13.278        0.019      344.284       20.994      863.189
07/19/2013  07:33:00      -41.640      -75.974        4.213       22.265       21.629       18.368      495.721      467.820      337.387        0.441        0.065       86.637       17.079        0.039      344.305       21.029      863.201
07/19/2013  07:34:00      -25.130      -83.177        5.374       35.815       32.233       18.213     1282.694     1038.952      331.721        0.512        0.133       86.891       19.481        0.050      344.325       21.063      863.209
07/19/2013  07:35:00      -47.595      -84.888        7.586       16.985       18.653       16.428      288.482      347.923      269.867        0.522        0.045       97.321       10.423        0.011      344.291       21.004      863.216
07/19/2013  07:36:00      -29.419      -44.739       10.314       35.308       34.368       22.184     1246.647     1181.162      492.134        0.295        0.146       53.545       21.765        0.165      344.573       21.488      863.232
07/19/2013  07:37:00      -38.495      -70.232       -0.989       31.167       27.418       18.433      971.355      751.761      339.760        0.424        0.103       80.090       16.587        0.043      344.311       21.041      863.237
07/19/2013  07:38:00      -68.817      -90.904       -3.625       29.106       37.669       22.592      847.139     1418.935      510.421        0.789        0.139      114.015       18.507        0.026      344.294       21.011      863.245
07/19/2013  07:39:00      -39.921      -41.865       -0.271       39.430       35.085       22.081     1554.723     1230.981      487.569        0.331        0.164       57.848       21.731        0.141      344.539       21.430      863.256
07/19/2013  07:40:00      -70.965      -41.402       -4.639       29.587       18.570       15.013      875.373      344.856      225.378        0.411        0.072       82.159       14.735        0.032      344.349       21.106      863.263
07/19/2013  07:41:00      -45.364       -6.040        4.907       29.364       23.393       20.301      862.268      547.243      412.149        0.197        0.091       45.764       15.692        0.118      344.573       21.489      863.268
07/19/2013  07:42:00      -21.398       13.472        9.407       25.768       17.702       19.044      664.010      313.351      362.662        0.103        0.067       25.286       15.210        0.362      344.796       21.870      863.261
07/19/2013  07:43:00      -39.028       13.598        9.228       24.919       15.646       18.468      620.967      244.799      341.066        0.150        0.060       41.329       12.007        0.084      344.639       21.602      863.258
07/19/2013  07:44:00      -29.788       -8.475       10.007       15.306       20.005       15.120      234.276      400.210      228.603        0.096        0.043       30.970        9.430        0.093      344.663       21.643      863.250
07/19/2013  07:45:00      -25.257       -0.022        7.863       16.364       26.045       16.761      267.774      678.327      280.927        0.096        0.061       25.257        7.286        0.083      344.840       21.944      863.252
07/19/2013  07:46:00      -19.316      -74.465        2.999       22.415       42.262       21.802      502.436     1786.111      475.327        0.434        0.138       76.929        8.430        0.012      344.624       21.575      863.255
07/19/2013  07:47:00      -38.239      -13.900        4.256       24.144       29.186       19.321      582.915      851.820      373.311        0.174        0.090       40.687       12.746        0.098      344.596       21.528      863.258
07/19/2013  07:48:00      -14.614        0.713       17.799       18.531       15.720       16.163      343.410      247.109      261.231        0.069        0.043       14.632       12.087        0.682      345.037       22.284      863.268
07/19/2013  07:49:00      -32.402        7.383       -9.927       19.623       29.235       18.693      385.064      854.664      349.439        0.140        0.079       33.233       13.351        0.161      344.524       21.404      863.271
07/19/2013  07:50:00      -51.966      -12.029        1.537       27.346       21.111       17.493      747.789      445.665      306.020        0.217        0.075       53.340       13.498        0.064      344.536       21.424      863.267
07/19/2013  07:51:00      -36.230       -4.557        3.029       21.735       16.113       16.405      472.420      259.619      269.125        0.117        0.050       36.515       13.260        0.132      344.694       21.695      863.269
07/19/2013  07:52:00      -18.687       -4.904       12.467       17.331       12.520       17.260      300.366      156.753      297.895        0.064        0.038       19.320       13.291        0.473      345.304       22.740      863.262
07/19/2013  07:53:00       -9.559        0.248       17.656       11.658       13.325       19.123      135.914      177.558      365.683        0.054        0.034        9.562        9.390        0.964      345.631       23.301      863.258
07/19/2013  07:54:00      -36.797      -20.475        3.179       32.562       21.043       17.434     1060.304      442.793      303.939        0.179        0.090       42.109       17.474        0.172      344.879       22.012      863.250
07/19/2013  07:55:00      -73.771      -21.657        8.498       42.208       30.151       18.304     1781.494      909.065      335.035        0.450        0.151       76.885       19.422        0.064      344.715       21.731      863.243
07/19/2013  07:56:00      -33.590       21.861        9.523       15.524       21.391       18.782      241.006      457.590      352.750        0.137        0.053       40.078       12.479        0.097      344.977       22.179      863.241
07/19/2013  07:57:00      -57.663       16.547        4.086       16.072       15.627       15.212      258.311      244.198      231.417        0.217        0.037       59.990       11.369        0.036      344.719       21.736      863.245
07/19/2013  07:58:00      -47.767        9.143        6.801       20.572       12.691       13.767      423.191      161.058      189.529        0.159        0.039       48.634        6.588        0.018      344.743       21.778      863.248
07/19/2013  07:59:00      -20.723       20.631       10.465       12.002       13.697       19.025      144.050      187.617      361.968        0.083        0.035       29.242        8.359        0.082      345.420       22.940      863.246
07/19/2013  08:00:00      -20.416       14.276       11.179       16.048       14.778       13.944      257.533      218.376      194.445        0.071        0.034       24.912        9.296        0.139      345.428       22.952      863.242
07/19/2013  08:01:00      -19.036        0.027        7.311       16.014       14.925       18.976      256.451      222.751      360.087        0.063        0.042       19.036       11.765        0.382      345.355       22.826      863.240
07/19/2013  08:02:00      -16.411       11.525       26.286       14.001       17.426       16.426      196.038      303.650      269.806        0.093        0.038       20.053        9.975        0.247      345.704       23.423      863.237
07/19/2013  08:03:00      -15.373        9.585       29.072       16.654       12.440       15.857      277.362      154.763      251.449        0.093        0.034       18.116        9.393        0.269      345.560       23.178      863.242
07/19/2013  08:04:00      -21.475       19.606       22.315       15.525       17.108       17.849      241.026      292.686      318.576        0.110        0.043       29.078       10.406        0.128      345.643       23.320      863.246
07/19/2013  08:05:00      -31.181       13.175       23.877       17.457       13.021       12.368      304.748      169.549      152.960        0.117        0.031       33.850        6.249        0.034      345.279       22.698      863.242
07/19/2013  08:06:00       -6.966       16.503       33.124       21.533       17.195       16.825      463.651      295.675      283.067        0.123        0.052       17.913       11.896        0.441      345.843       23.665      863.242
07/19/2013  08:07:00       -4.886       25.819       39.976       32.942       22.824       23.757     1085.186      520.956      564.395        0.223        0.109       26.277       15.242        0.336      345.661       23.352      863.240
07/19/2013  08:08:00       37.488       26.313       36.168       35.897       30.220       32.087     1288.597      913.275     1029.597        0.332        0.162       45.801       30.701        0.449      345.360       22.835      863.247
07/19/2013  08:09:00       14.523       -4.328       32.153       30.388       19.152       27.943      923.452      366.815      780.821        0.167        0.104       15.155       23.164        2.336      345.993       23.921      863.249
07/19/2013  08:10:00      -24.297       -3.609       21.719       19.205       12.419       16.425      368.815      154.227      269.766        0.093        0.040       24.564       12.374        0.254      345.751       23.508      863.267
07/19/2013  08:11:00      -29.897        0.183       -1.233       11.665       11.110        9.335      136.078      123.440       87.139        0.062        0.017       29.898        2.203        0.005      345.256       22.655      863.279
07/19/2013  08:12:00      -15.628      -11.091       37.988       21.593       52.474       31.007      466.257     2753.522      961.458        0.299        0.209       19.164       32.725        2.916      345.552       23.164      863.290
07/19/2013  08:13:00        1.038        2.638       48.316       21.336       24.936       14.762      455.236      621.779      217.917        0.182        0.065        2.835       11.790       17.300      346.117       24.133      863.298
07/19/2013  08:14:00        4.647       23.243       46.209       19.015       24.436       10.730      361.570      597.106      115.135        0.189        0.054       23.703        5.214        0.048      346.067       24.048      863.310
07/19/2013  08:15:00       -0.804       15.102       38.995       19.704       24.001       22.475      388.239      576.052      505.128        0.161        0.073       15.123       11.164        0.545      346.240       24.345      863.307
07/19/2013  08:16:00      -12.276       -6.747       27.291       14.940       14.924       11.405      223.191      222.731      130.085        0.076        0.029       14.008        4.554        0.106      346.072       24.058      863.305
07/19/2013  08:17:00      -22.267      -14.181       10.743       14.917       13.981       13.397      222.522      195.467      179.491        0.070        0.030       26.399        8.603        0.106      345.508       23.088      863.295
07/19/2013  08:18:00      -30.215        0.292        1.647        9.673       11.026        7.807       93.560      121.572       60.956        0.060        0.014       30.216        6.099        0.041      345.305       22.740      863.297
07/19/2013  08:19:00      -21.623      -43.748        3.859       21.391       31.061       17.723      457.571      964.780      314.120        0.207        0.087       48.800       15.590        0.102      345.529       23.125      863.304
07/19/2013  08:20:00      -19.953      -37.514        7.592       18.603       18.196       18.349      346.067      331.106      336.679        0.144        0.051       42.490       15.015        0.125      345.537       23.138      863.315
07/19/2013  08:21:00      -22.439      -16.965       -1.479       24.831       18.130       11.592      616.555      328.713      134.373        0.094        0.054       28.130       11.785        0.176      345.552       23.164      863.323
07/19/2013  08:22:00        3.790       -1.075       27.715       16.643       25.810       19.990      276.986      666.160      399.599        0.106        0.067        3.939       15.804       16.096      346.283       24.420      863.329
07/19/2013  08:23:00      -23.149        9.039       26.045       18.478       14.296       14.525      341.439      204.364      210.984        0.103        0.038       24.851        7.749        0.097      346.052       24.024      863.323
07/19/2013  08:24:00      -14.028        5.607        4.439       20.478       12.766       14.853      419.339      162.973      220.598        0.053        0.040       15.107        8.641        0.327      345.924       23.803      863.311
07/19/2013  08:25:00      -19.108        4.233       12.384       13.131       20.480       19.109      172.422      419.444      365.171        0.075        0.048       19.572       11.950        0.373      346.145       24.184      863.314
07/19/2013  08:26:00      -12.385        6.964       16.125       13.611       18.675       25.022      185.255      348.768      626.115        0.081        0.058       14.208       10.365        0.532      346.441       24.692      863.316
07/19/2013  08:27:00      -20.362      -21.556       -1.200       27.334       25.999       18.686      747.152      675.936      349.170        0.133        0.089       29.653       12.407        0.175      345.773       23.542      863.316
07/19/2013  08:28:00      -11.314       -1.762       21.070       21.490       18.008       24.345      461.824      324.294      592.658        0.098        0.069       11.450       18.224        2.533      346.573       24.918      863.318
07/19/2013  08:29:00      -20.870       20.174       51.481       16.111       22.529       17.998      259.575      507.549      323.912        0.229        0.055       29.026       15.305        0.278      346.292       24.436      863.321
07/19/2013  08:30:00      -19.021        3.171       18.747       26.698       26.412       25.897      712.799      697.617      670.645        0.140        0.104       19.283       19.568        1.030      346.358       24.549      863.318
07/19/2013  08:31:00      -21.233      -16.449        2.018       22.033       19.141       25.312      485.445      366.390      640.710        0.111        0.075       26.859       15.285        0.324      346.097       24.100      863.314
07/19/2013  08:32:00      -17.840       29.588       16.198       31.087       24.096       17.009      966.428      580.613      289.290        0.165        0.092       34.550        9.788        0.080      346.113       24.128      863.311
07/19/2013  08:33:00       11.979       32.797       31.284       23.087       25.799       18.663      532.991      665.609      348.315        0.187        0.077       34.916       11.924        0.117      346.449       24.705      863.322
07/19/2013  08:34:00        2.390       22.727       34.224       16.681       26.729       11.026      278.246      714.456      121.584        0.140        0.056       22.853        7.782        0.116      346.443       24.695      863.326
07/19/2013  08:35:00        0.178       20.109       48.355       16.930       27.593       17.316      286.633      761.384      299.833        0.204        0.067       20.110       10.725        0.284      346.638       25.030      863.328
07/19/2013  08:36:00       23.545       -2.415       25.098       37.251       22.107       24.387     1387.614      488.732      594.702        0.183        0.124       23.669       26.854        1.287      346.459       24.722      863.342
07/19/2013  08:37:00       26.403       21.962       43.043       27.291       17.419       13.562      744.789      303.422      183.934        0.213        0.062       34.343        9.649        0.079      346.492       24.780      863.336
07/19/2013  08:38:00       50.747       28.147       34.810       39.630       26.249       29.462     1570.541      689.013      868.009        0.385        0.156       58.030       28.297        0.238      345.903       23.766      863.325
07/19/2013  08:39:00       -1.861        9.202       29.733       21.670       24.626       16.871      469.600      606.450      284.632        0.117        0.068        9.388       15.720        2.804      346.531       24.846      863.313
07/19/2013  08:40:00      -22.238       -0.092       13.529       13.808       10.036       14.694      190.663      100.718      215.925        0.059        0.025       22.239       11.446        0.265      346.301       24.452      863.303
07/19/2013  08:41:00      -40.981        0.365        8.613       16.891       19.607       17.025      285.315      384.428      289.836        0.136        0.048       40.983       13.838        0.114      345.955       23.856      863.289
07/19/2013  08:42:00        0.872      -85.715        5.189       47.316       55.062       31.394     2238.806     3031.817      985.579        0.681        0.313       85.720       23.956        0.078      346.166       24.218      863.280
07/19/2013  08:43:00       30.416     -101.779       -5.242       36.511       27.685       24.628     1333.086      766.443      606.535        0.701        0.135      106.226       18.176        0.029      345.861       23.692      863.269
07/19/2013  08:44:00       -7.321      -50.833       27.732       20.841       41.835       26.650      434.329     1750.151      710.200        0.315        0.145       51.357       23.674        0.212      346.503       24.797      863.257
07/19/2013  08:45:00       -6.824        3.711       29.494       13.593       19.934       23.475      184.757      397.347      551.069        0.103        0.057        7.768       16.070        4.279      346.767       25.253      863.259
07/19/2013  08:46:00       -1.721        2.102       33.085       15.779       24.202       22.497      248.987      585.750      506.105        0.122        0.067        2.716       19.817       53.219      346.788       25.288      863.253
07/19/2013  08:47:00      -10.787      -12.412       27.088       18.122       37.725       21.521      328.411     1423.187      463.165        0.161        0.111       16.444       16.147        0.964      346.386       24.596      863.238
07/19/2013  08:48:00       -2.351       14.216       34.480       12.381       22.765       15.560      153.279      518.267      242.116        0.115        0.046       14.409        8.554        0.352      347.089       25.807      863.233
07/19/2013  08:49:00       12.130       16.500       36.332       31.890       19.158       17.123     1016.974      367.025      293.193        0.171        0.084       20.479       18.078        0.779      346.850       25.396      863.227
07/19/2013  08:50:00       35.509       47.817       10.177       26.924       28.832       23.575      724.914      831.307      555.792        0.288        0.106       59.560       18.904        0.101      346.182       24.246      863.236
07/19/2013  08:51:00       54.291       41.479        9.608       34.475       31.302       27.575     1188.531      979.804      760.369        0.384        0.146       68.323       18.631        0.074      346.264       24.387      863.235
07/19/2013  08:52:00       46.795       42.499        2.302       21.102       30.579       22.598      445.306      935.093      510.663        0.295        0.095       63.214       11.943        0.036      346.119       24.137      863.232
07/19/2013  08:53:00       59.935       31.612        6.926       15.503       15.838       15.651      240.353      250.848      244.960        0.269        0.037       67.761        6.960        0.011      345.949       23.846      863.230
07/19/2013  08:54:00       56.796       27.602        1.207       35.414       38.315       25.206     1254.148     1468.074      635.352        0.367        0.168       63.148       15.657        0.061      346.111       24.125      863.229
07/19/2013  08:55:00       43.928       24.765       10.054       30.053       23.342       17.793      903.159      544.847      316.585        0.220        0.088       50.428       15.150        0.090      346.455       24.716      863.230
07/19/2013  08:56:00       53.280       38.399       18.998       45.910       32.559       19.405     2107.751     1060.066      376.547        0.411        0.177       65.675       16.836        0.066      346.284       24.422      863.235
07/19/2013  08:57:00       12.157       40.790       13.205       18.683       40.358       24.721      349.047     1628.798      611.106        0.229        0.129       42.563       27.274        0.411      346.756       25.232      863.227
07/19/2013  08:58:00       33.712       28.601       12.883       23.841       23.549       23.702      568.392      554.545      561.794        0.190        0.084       44.210       14.271        0.104      346.929       25.531      863.220
07/19/2013  08:59:00       24.714       59.521       15.902       35.913       40.594       28.702     1289.769     1647.909      823.778        0.408        0.188       64.448       14.030        0.047      346.965       25.593      863.213
07/19/2013  09:00:00       -3.535       47.920       -8.494       31.892       29.220       23.933     1017.089      853.812      572.792        0.241        0.122       48.050       12.938        0.073      346.476       24.750      863.211
07/19/2013  09:01:00      -10.131       56.780      -15.591       22.952       35.802       21.958      526.785     1281.785      482.154        0.293        0.115       57.677       12.978        0.051      346.396       24.615      863.214
07/19/2013  09:02:00      -12.805       48.409       13.638       15.616       39.987       23.403      243.866     1598.965      547.715        0.254        0.120       50.074       26.573        0.282      347.010       25.671      863.210
07/19/2013  09:03:00        5.459       29.008       15.898       21.026       47.611       24.882      442.099     2266.802      619.116        0.223        0.166       29.517       26.690        0.818      347.127       25.872      863.210
07/19/2013  09:04:00        6.398       64.357        2.095       28.412       55.358       28.566      807.225     3064.510      815.997        0.444        0.234       64.675       35.887        0.308      346.778       25.272      863.205
07/19/2013  09:05:00      -11.230       79.770        3.073       17.702       45.939       25.146      313.378     2110.369      632.343        0.478        0.153       80.556       23.318        0.084      346.893       25.471      863.204
07/19/2013  09:06:00      -11.078       28.869       21.550       21.421       19.856       23.615      458.841      394.274      557.688        0.142        0.071       30.921       12.474        0.163      347.270       26.118      863.202
07/19/2013  09:07:00      -23.541        5.396        4.361       25.332       11.022       17.317      641.708      121.494      299.863        0.083        0.053       24.151       14.061        0.339      346.707       25.148      863.188
07/19/2013  09:08:00      -24.474       -3.221        2.323       11.002       20.262       11.679      121.051      410.536      136.404        0.064        0.033       24.685        5.899        0.057      346.428       24.667      863.179
07/19/2013  09:09:00      -31.138        6.997      -11.015       18.587       17.289       16.036      345.470      298.912      257.156        0.102        0.045       31.914       11.924        0.140      346.526       24.836      863.167
07/19/2013  09:10:00       12.807       10.046       23.067       13.978       16.123       13.728      195.382      259.948      188.462        0.072        0.032       16.277        9.404        0.334      347.415       26.367      863.157
07/19/2013  09:11:00       33.258       24.239       15.669       50.480       34.325       25.868     2548.215     1178.186      669.166        0.317        0.220       41.154       21.774        0.280      347.193       25.985      863.155
07/19/2013  09:12:00       32.310       50.353       21.868       42.385       31.026       25.427     1796.449      962.623      646.512        0.373        0.170       59.828       21.966        0.135      347.066       25.767      863.142
07/19/2013  09:13:00       48.209       50.646        0.631       30.867       19.245       27.036      952.744      370.352      730.939        0.347        0.103       69.922       19.391        0.077      346.708       25.149      863.137
07/19/2013  09:14:00       25.963       40.922       23.917       27.710       33.417       29.245      767.827     1116.688      855.242        0.283        0.137       48.463        8.981        0.034      347.108       25.839      863.132
07/19/2013  09:15:00       87.808       69.139       35.598       51.531       33.426       28.438     2655.447     1117.289      808.707        0.917        0.229      111.761        9.399        0.007      346.930       25.533      863.126
07/19/2013  09:16:00       55.410       48.952       39.724       55.685       41.450       38.741     3100.822     1718.124     1500.855        0.668        0.316       73.937       21.943        0.088      347.029       25.702      863.119
07/19/2013  09:17:00       87.161       55.896       12.546       45.745       28.416       29.421     2092.592      807.496      865.606        0.732        0.188      103.545       17.233        0.028      346.909       25.497      863.121
07/19/2013  09:18:00       24.837       19.957       12.264       21.663       18.443       20.621      469.301      340.140      425.235        0.120        0.062       31.861       13.105        0.169      347.395       26.333      863.126
07/19/2013  09:19:00       -3.773      -10.488       19.459       21.679       17.011       16.123      469.992      289.389      259.936        0.076        0.051       11.146        7.934        0.507      347.608       26.700      863.123
07/19/2013  09:20:00      -27.979       -6.452       10.433       15.803       14.801       10.041      249.744      219.081      100.827        0.075        0.028       28.714        6.005        0.044      347.017       25.681      863.121
07/19/2013  09:21:00      -26.409       -2.368       18.312       20.144       23.755       24.882      405.783      564.280      619.110        0.131        0.079       26.515       20.338        0.588      347.249       26.083      863.110
07/19/2013  09:22:00      -16.331       -5.861       18.013       28.029       24.529       21.107      785.614      601.680      445.488        0.123        0.092       17.351       17.428        1.009      347.748       26.945      863.091
07/19/2013  09:23:00       16.440      -21.325        2.378       29.310       18.527       21.980      859.056      343.266      483.133        0.121        0.084       26.926       10.283        0.146      347.030       25.705      863.077
07/19/2013  09:24:00      -28.975      -18.666       10.299       28.353       14.648       16.318      803.906      214.578      266.292        0.129        0.064       34.467       19.041        0.305      347.236       26.060      863.069
07/19/2013  09:25:00      -19.903       -4.549       17.596       14.813       11.779       16.241      219.437      138.745      263.774        0.067        0.031       20.416       13.328        0.426      347.827       27.081      863.063
07/19/2013  09:26:00      -35.677      -20.550       -3.471       19.651       19.635        9.980      386.148      385.549       99.598        0.129        0.044       41.172        8.329        0.041      346.932       25.537      863.067
07/19/2013  09:27:00      -15.947      -12.656        9.726       24.751       21.508       18.901      612.632      462.583      357.239        0.097        0.072       20.358       13.670        0.451      347.398       26.340      863.061
07/19/2013  09:28:00      -24.861      -43.463        1.277       29.308       24.252       17.244      858.955      588.147      297.365        0.213        0.087       50.071       15.174        0.092      347.045       25.730      863.071
07/19/2013  09:29:00      -18.160      -10.316       20.269       25.448       28.488       25.384      647.582      811.574      644.351        0.147        0.105       20.886       24.590        1.386      348.021       27.416      863.070
07/19/2013  09:30:00      -10.080       -5.006       16.987       21.900       16.523       18.410      479.616      273.006      338.918        0.075        0.055       11.255        8.979        0.636      347.952       27.297      863.067
07/19/2013  09:31:00      -61.292      -32.359       -2.875       36.145       24.811       17.414     1306.431      615.596      303.244        0.352        0.111       69.310       15.346        0.049      347.034       25.710      863.073
07/19/2013  09:32:00      -81.408      -50.268       -4.779       24.383       28.406       14.354      594.524      806.879      206.033        0.539        0.080       95.677       13.845        0.021      346.957       25.578      863.069
07/19/2013  09:33:00      -45.936      -13.481       12.029       34.711       24.304       19.477     1204.875      590.677      379.361        0.231        0.109       47.873       20.039        0.175      347.730       26.913      863.060
07/19/2013  09:34:00      -49.004       10.937       10.366       30.699       21.901       21.652      942.453      479.638      468.806        0.226        0.095       50.210       21.283        0.180      347.359       26.271      863.053
07/19/2013  09:35:00      -21.564      -38.767        8.871       36.094       32.317       35.914     1302.747     1044.398     1289.790        0.284        0.182       44.360       27.210        0.376      347.469       26.462      863.050
07/19/2013  09:36:00       11.167       -7.323       46.759       27.557       48.024       34.316      759.369     2306.348     1177.621        0.330        0.212       13.354       19.549        2.143      347.892       27.190      863.048
07/19/2013  09:37:00        8.272       -0.956       40.089       25.705       38.776       24.457      660.734     1503.547      598.125        0.222        0.138        8.328       11.163        1.797      348.120       27.585      863.039
07/19/2013  09:38:00        9.554      -41.279       37.928       34.345       42.642       37.459     1179.586     1818.314     1403.159        0.382        0.220       42.370       23.664        0.312      348.029       27.428      863.028
07/19/2013  09:39:00        8.536       -0.447       36.513       35.577       42.047       40.409     1265.734     1767.927     1632.849        0.304        0.233        8.547       39.299       21.140      348.080       27.516      863.018
07/19/2013  09:40:00       -3.163       25.847       58.315       27.376       44.916       26.025      749.441     2017.405      677.284        0.376        0.172       26.040       17.722        0.463      347.973       27.331      863.004
07/19/2013  09:41:00      -11.389      -10.234       35.823       18.414       38.689       23.662      339.080     1496.850      559.876        0.196        0.120       15.311       24.009        2.459      347.931       27.259      862.986
07/19/2013  09:42:00       -1.467      -17.759       16.437       18.614       15.920       16.120      346.481      253.433      259.865        0.072        0.043       17.819       10.442        0.343      347.674       26.814      862.959
07/19/2013  09:43:00       -7.585       -3.968       25.790       16.001       20.198       12.711      256.038      407.947      161.579        0.078        0.041        8.560       12.437        2.111      348.246       27.804      862.946
07/19/2013  09:44:00        5.128       25.041       18.593       24.624       36.710       17.641      606.321     1347.602      311.216        0.163        0.113       25.560       11.032        0.186      348.213       27.745      862.913
07/19/2013  09:45:00        7.330       15.342       19.446       20.261       29.339       22.365      410.516      860.802      500.185        0.122        0.089       17.003       20.597        1.467      348.398       28.065      862.911
07/19/2013  09:46:00       13.264        5.160       11.246       39.342       16.513       23.207     1547.782      272.668      538.549        0.134        0.118       14.233       20.344        2.043      348.250       27.810      862.895
07/19/2013  09:47:00       -8.874       28.438        2.833       38.513       25.119       20.527     1483.242      630.971      421.376        0.172        0.127       29.790       16.096        0.292      347.738       26.925      862.897
07/19/2013  09:48:00       -5.384        6.154       19.995       17.353       16.662       17.712      301.133      277.610      313.726        0.068        0.045        8.177       12.197        2.225      348.382       28.039      862.887
07/19/2013  09:49:00       13.106       14.091       37.523       24.340       27.587       16.935      592.413      761.047      286.788        0.171        0.082       19.243       15.136        0.619      348.177       27.684      862.891
07/19/2013  09:50:00       13.074       27.141       10.057       24.412       17.124       24.628      595.936      293.247      606.520        0.125        0.075       30.126       11.335        0.142      348.021       27.415      862.885
07/19/2013  09:51:00       -0.478       10.470       18.935       20.957       15.914       21.095      439.213      253.261      445.001        0.080        0.057       10.481       12.597        1.445      348.804       28.770      862.877
07/19/2013  09:52:00        7.915       -2.909        0.921       25.375       29.086       28.356      643.885      846.024      804.046        0.118        0.115        8.433       14.640        3.014      348.055       27.473      862.858
07/19/2013  09:53:00       20.795       30.204       27.444       30.890       32.433       34.789      954.218     1051.873     1210.300        0.266        0.161       36.670       21.831        0.354      348.018       27.409      862.844
07/19/2013  09:54:00       13.967       27.373       59.406       43.960       29.614       19.082     1932.495      876.984      364.132        0.382        0.159       30.731       15.764        0.263      348.463       28.178      862.820
07/19/2013  09:55:00        9.259        4.318       31.392       26.634       35.074       16.978      709.349     1230.167      288.239        0.166        0.111       10.216       10.166        0.990      348.691       28.572      862.811
07/19/2013  09:56:00       35.264        4.998       22.248       32.380       30.393       30.500     1048.437      923.757      930.272        0.233        0.145       35.616       23.449        0.433      348.129       27.600      862.791
07/19/2013  09:57:00       26.330        6.495       25.367       30.313       29.095       26.050      918.864      846.506      678.589        0.191        0.122       27.119       20.383        0.565      348.254       27.817      862.791
07/19/2013  09:58:00       44.252        9.759       40.533       43.819       26.271       26.342     1920.089      690.148      693.880        0.350        0.165       45.315       16.465        0.132      347.907       27.217      862.790
07/19/2013  09:59:00       43.916       19.582       22.932       29.330       22.347       30.056      860.229      499.374      903.333        0.255        0.113       48.084        9.273        0.037      347.840       27.102      862.795
07/19/2013  10:00:00       -7.468       22.721       18.034       22.877       24.246       32.474      523.358      587.853     1054.554        0.153        0.108       23.916       18.500        0.598      348.275       27.854      862.793
07/19/2013  10:01:00       -7.691       19.147       30.429       20.827       17.392       11.140      433.781      302.491      124.092        0.111        0.043       20.634       10.392        0.254      348.580       28.382      862.797
07/19/2013  10:02:00       66.290       36.708       34.464       33.998       18.697       30.738     1155.897      349.584      944.818        0.469        0.123       75.775       16.556        0.048      348.006       27.388      862.798
07/19/2013  10:03:00       70.252       48.973       21.441       43.722       43.218       37.351     1911.599     1867.825     1395.124        0.648        0.259       85.637       18.411        0.046      348.194       27.712      862.795
07/19/2013  10:04:00       35.079       34.688       22.758       42.144       34.032       32.633     1776.140     1158.171     1064.927        0.347        0.200       49.333       23.527        0.227      348.329       27.947      862.782
07/19/2013  10:05:00       12.481       -0.586       23.174       52.250       39.137       26.054     2730.040     1531.721      678.813        0.282        0.247       12.495       21.228        2.886      348.709       28.606      862.776
07/19/2013  10:06:00        8.151       17.783       31.818       36.824       43.527       39.718     1356.038     1894.593     1577.558        0.311        0.241       19.563       32.303        2.727      348.770       28.709      862.768
07/19/2013  10:07:00       14.223       10.481       20.068       54.052       44.953       30.182     2921.641     2020.770      910.931        0.328        0.293       17.668       21.928        1.540      348.260       27.827      862.762
07/19/2013  10:08:00       54.380       63.200       49.617       66.839       47.965       32.580     4467.482     2300.615     1061.454        0.862        0.391       83.375       27.632        0.110      348.428       28.119      862.752
07/19/2013  10:09:00        8.844       35.494       57.710       30.110       37.404       26.399      906.600     1399.044      696.908        0.383        0.150       36.580       24.293        0.441      348.758       28.688      862.739
07/19/2013  10:10:00       17.239       42.208       56.470       36.643       32.722       28.481     1342.717     1070.726      811.139        0.425        0.161       45.593        7.927        0.030      348.558       28.343      862.728
07/19/2013  10:11:00       18.425       37.697       54.188       37.049       32.079       27.914     1372.624     1029.040      779.209        0.394        0.159       41.959       21.903        0.273      348.104       27.557      862.710
07/19/2013  10:12:00       55.856       -2.173       27.713       38.425       34.414       31.202     1476.479     1184.316      973.587        0.376        0.182       55.898       24.191        0.187      348.040       27.448      862.700
07/19/2013  10:13:00       14.661       10.114       44.105       40.578       31.092       26.045     1646.543      966.734      678.337        0.278        0.165       17.811       25.112        1.988      348.432       28.125      862.684
07/19/2013  10:14:00        8.602      -20.139        7.782       26.407       35.117       36.120      697.354     1233.226     1304.668        0.189        0.162       21.899       29.648        1.833      348.480       28.208      862.669
07/19/2013  10:15:00       31.720       18.216       26.392       35.960       31.564       33.819     1293.146      996.295     1143.714        0.273        0.172       36.579       20.348        0.309      348.019       27.410      862.660
07/19/2013  10:16:00        9.661       20.123       52.945       37.939       40.584       36.070     1439.335     1647.036     1301.066        0.384        0.219       22.322       34.945        2.451      348.610       28.432      862.655
07/19/2013  10:17:00      -26.651       25.338       44.618       21.717       26.707       22.134      471.621      713.266      489.927        0.251        0.084       36.773       19.288        0.275      348.752       28.678      862.663
07/19/2013  10:18:00        1.867       26.272       57.890       20.281       29.859       15.513      411.316      891.563      240.653        0.279        0.077       26.338        9.581        0.132      348.626       28.459      862.656
07/19/2013  10:19:00        1.043       10.759       48.849       27.936       45.511       26.379      780.413     2071.241      695.869        0.302        0.177       10.809        8.620        0.636      348.873       28.888      862.665
07/19/2013  10:20:00        9.497       18.663       57.561       31.548       44.562       27.600      995.305     1985.738      761.784        0.375        0.187       20.941        8.260        0.156      349.105       29.290      862.666
07/19/2013  10:21:00        2.745       41.273       50.689       30.846       34.634       31.966      951.461     1199.490     1021.848        0.373        0.159       41.364       25.778        0.388      348.591       28.399      862.686
07/19/2013  10:22:00        9.434      -40.683        7.329       32.449       29.406       24.243     1052.920      864.729      587.722        0.215        0.125       41.763       15.821        0.144      348.061       27.482      862.690
07/19/2013  10:23:00       28.966        3.466       25.066       30.577       36.124       26.098      934.960     1304.978      681.106        0.220        0.146       29.173        5.644        0.037      348.441       28.139      862.692
07/19/2013  10:24:00       51.981       51.277       20.114       35.654       30.828       41.567     1271.241      950.349     1727.849        0.484        0.197       73.016       27.981        0.147      348.389       28.050      862.689
07/19/2013  10:25:00       49.963       26.508        3.192       33.601       26.081       23.066     1129.009      680.244      532.024        0.277        0.117       56.559       20.789        0.135      348.549       28.327      862.692
07/19/2013  10:26:00      -46.660       -3.970       -3.691       33.670       15.866       17.585     1133.650      251.724      309.231        0.195        0.085       46.829       17.704        0.143      348.491       28.227      862.685
07/19/2013  10:27:00      -84.480       25.004      -10.094       13.985       23.339       13.014      195.588      544.686      169.373        0.439        0.045       88.102        6.435        0.005      348.066       27.490      862.683
07/19/2013  10:28:00      -48.145       28.549        6.068       32.426       15.920       22.227     1051.419      253.460      494.049        0.248        0.090       55.973       21.254        0.144      348.731       28.644      862.687
07/19/2013  10:29:00      -30.184       10.696        3.534       24.895       20.356       21.425      619.782      414.360      459.047        0.127        0.075       32.023       21.531        0.452      348.633       28.472      862.671
07/19/2013  10:30:00       -5.797       -8.474       12.321       19.383       18.669       14.999      375.710      348.513      224.973        0.060        0.047       10.267        6.690        0.425      348.846       28.841      862.683
07/19/2013  10:31:00       20.690       -2.490       24.448       31.239       44.427       28.593      975.863     1973.748      817.566        0.240        0.188       20.840       27.612        1.756      348.833       28.821      862.677
07/19/2013  10:32:00       37.795        1.658       27.464       40.339       38.173       37.366     1627.219     1457.206     1396.222        0.333        0.224       37.831       34.218        0.818      348.668       28.533      862.671
07/19/2013  10:33:00       15.145       16.096       33.774       39.474       30.544       28.847     1558.190      932.934      832.154        0.248        0.166       22.101       23.288        1.110      348.967       29.050      862.669
07/19/2013  10:34:00      -11.079       17.969       20.204       21.057       20.100       16.981      443.411      404.017      288.362        0.099        0.057       21.109        4.565        0.047      349.187       29.434      862.657
07/19/2013  10:35:00       52.847        4.272       23.849       31.438       28.273       21.355      988.337      799.342      456.031        0.281        0.112       53.019       15.828        0.089      348.608       28.429      862.649
07/19/2013  10:36:00       95.452       57.272       16.069       46.398       33.406       32.804     2152.747     1115.949     1076.089        0.850        0.217      111.316       19.623        0.031      348.600       28.414      862.635
07/19/2013  10:37:00       91.332       62.529        0.785       31.864       35.111       25.547     1015.346     1232.752      652.667        0.758        0.145      110.686       14.292        0.017      348.377       28.031      862.625
07/19/2013  10:38:00       91.243       73.022       24.285       39.741       34.392       38.386     1579.369     1182.781     1473.457        0.924        0.212      116.866       17.033        0.021      348.381       28.035      862.621
07/19/2013  10:39:00      125.680       98.437       24.459       57.907       42.340       52.510     3353.231     1792.707     2757.315        1.699        0.395      159.641       22.583        0.020      348.690       28.568      862.624
07/19/2013  10:40:00       99.290       74.316        7.049       66.378       41.422       35.673     4406.092     1715.758     1272.563        1.141        0.370      124.022       21.034        0.029      348.580       28.381      862.625
07/19/2013  10:41:00       98.536       65.405       20.777       57.980       41.847       39.167     3361.652     1751.207     1534.072        1.053        0.332      118.267       17.121        0.021      349.098       29.278      862.632
07/19/2013  10:42:00       87.979       91.163        1.412       41.378       35.343       31.303     1712.110     1249.110      979.850        1.000        0.197      126.692       17.880        0.020      348.722       28.626      862.632
07/19/2013  10:43:00       45.063       47.769       23.640       34.839       34.161       27.469     1213.778     1166.972      754.558        0.400        0.157       65.670       17.987        0.075      348.940       29.002      862.638
07/19/2013  10:44:00      -15.721       60.377       18.259       33.572       41.790       28.442     1127.097     1746.390      808.968        0.395        0.184       62.391       26.953        0.187      349.472       29.925      862.626
07/19/2013  10:45:00      -18.006       20.783       14.785       27.631       25.790       23.018      763.463      665.124      529.811        0.147        0.098       27.498       15.690        0.326      349.428       29.850      862.629
07/19/2013  10:46:00      -51.348       10.072       -0.357       13.007       11.704        9.302      169.193      136.995       86.518        0.157        0.020       52.327        7.113        0.018      348.496       28.235      862.623
07/19/2013  10:47:00      -50.737      -21.671       -7.962       22.265       25.625       12.559      495.722      656.659      157.717        0.221        0.066       55.171        9.385        0.029      348.631       28.468      862.623
07/19/2013  10:48:00      -95.232      -35.006       -5.007       31.762       31.387       18.948     1008.851      985.173      359.016        0.634        0.118      101.463       16.481        0.026      348.681       28.552      862.614
07/19/2013  10:49:00     -104.979      -30.219        0.167       37.924       28.463       24.085     1438.201      810.145      580.110        0.738        0.141      109.242       11.436        0.011      348.722       28.626      862.607
07/19/2013  10:50:00      -73.356       -5.033        8.055       55.016       40.637       25.888     3026.812     1651.331      670.167        0.541        0.267       73.528       29.513        0.161      349.057       29.207      862.595
07/19/2013  10:51:00       12.635       11.696       32.108       25.549       19.579       17.648      652.747      383.329      311.457        0.134        0.067       17.217        9.236        0.288      349.844       30.570      862.596
07/19/2013  10:52:00       15.563       30.250       35.150       49.875       30.144       29.030     2487.535      908.665      842.732        0.331        0.212       34.019       21.043        0.383      349.643       30.223      862.581
07/19/2013  10:53:00       26.152       15.175       23.464       39.933       26.722       30.949     1594.656      714.074      957.846        0.237        0.163       30.236       17.587        0.338      349.489       29.955      862.574
07/19/2013  10:54:00       21.287       51.752       85.427       47.627       64.687       46.975     2268.348     4184.415     2206.696        0.954        0.433       55.959       42.113        0.566      349.250       29.541      862.564
07/19/2013  10:55:00      110.425       65.511       31.867       53.401       37.761       36.350     2851.614     1425.889     1321.317        1.155        0.280      128.396       17.974        0.020      349.129       29.331      862.556
07/19/2013  10:56:00       68.839       64.354        0.802       31.648       39.386       31.685     1001.586     1551.230     1003.969        0.622        0.178       94.235       21.573        0.052      349.303       29.633      862.551
07/19/2013  10:57:00       -0.950       30.229       23.838       38.822       36.302       29.634     1507.120     1317.836      878.152        0.259        0.185       30.244       18.566        0.377      349.576       30.106      862.537
07/19/2013  10:58:00       36.174       22.153       34.904       50.822       48.691       36.347     2582.917     2370.802     1321.114        0.464        0.314       42.418       37.147        0.767      349.523       30.014      862.537
07/19/2013  10:59:00       96.809       55.366       42.377       56.626       39.786       37.459     3206.510     1582.892     1403.149        1.021        0.310      111.523       19.966        0.032      349.047       29.190      862.528
07/19/2013  11:00:00      124.690       52.837       17.048       57.156       41.512       43.487     3266.811     1723.233     1891.101        1.275        0.344      135.422       38.790        0.082      349.112       29.302      862.534
07/19/2013  11:01:00       67.155       48.353       17.427       30.313       28.262       30.961      918.889      798.743      958.607        0.491        0.134       82.751       14.198        0.029      349.144       29.356      862.531
07/19/2013  11:02:00       29.528       11.776        4.856       17.870       15.555       23.306      319.325      241.967      543.154        0.107        0.055       31.790       11.983        0.142      349.183       29.424      862.534
07/19/2013  11:03:00       40.381       12.793       11.151       23.683       46.961       30.651      560.881     2205.348      939.479        0.281        0.185       42.359       24.885        0.345      349.131       29.334      862.533
07/19/2013  11:04:00       39.846      -38.487       15.848       30.426       26.515       32.315      925.730      703.070     1044.290        0.300        0.134       55.398       21.241        0.147      348.763       28.696      862.532
07/19/2013  11:05:00       73.533       72.758       67.376       53.894       50.448       29.119     2904.602     2545.009      847.894        1.077        0.315      103.445       21.309        0.042      349.246       29.534      862.518
07/19/2013  11:06:00       37.838      -46.837        0.510       32.152       49.245       32.181     1033.783     2425.098     1035.618        0.406        0.225       60.211       21.493        0.127      349.047       29.187      862.514
07/19/2013  11:07:00       31.031      -35.729       -3.565       30.108       31.208       28.052      906.519      973.944      786.929        0.246        0.133       47.323       24.251        0.263      349.142       29.353      862.498
07/19/2013  11:08:00       36.059      -22.263       -2.474       38.230       51.508       32.528     1461.503     2653.081     1058.058        0.349        0.259       42.378       20.376        0.231      348.580       28.379      862.485
07/19/2013  11:09:00       21.783       20.354       10.088       31.661       25.767       35.550     1002.416      663.927     1263.780        0.196        0.147       29.812       22.865        0.588      349.238       29.520      862.474
07/19/2013  11:10:00       42.945      -23.136       20.299       31.553       35.704       30.854      995.594     1274.743      951.956        0.301        0.161       48.780       28.549        0.343      349.346       29.707      862.461
07/19/2013  11:11:00       28.768      -22.731       29.570       28.907       33.054       25.440      835.603     1092.549      647.190        0.240        0.129       36.664       20.452        0.311      349.686       30.298      862.451
07/19/2013  11:12:00        2.198      -34.604       30.184       41.760       51.998       29.632     1743.917     2703.838      878.072        0.372        0.266       34.674       24.327        0.492      349.497       29.970      862.445
07/19/2013  11:13:00       99.941       72.642       22.543       54.309       57.034       46.267     2949.511     3252.822     2140.650        1.206        0.417      123.552       28.981        0.055      349.379       29.763      862.453
07/19/2013  11:14:00       32.866       -9.418       -3.080       85.794       50.044       22.926     7360.583     2504.446      525.582        0.578        0.520       34.189       22.210        0.422      349.181       29.422      862.446
07/19/2013  11:15:00      -22.583        5.048       16.407       58.637       41.621       35.089     3438.327     1732.294     1231.222        0.360        0.320       23.141       28.156        1.480      350.054       30.936      862.417
07/19/2013  11:16:00       49.505       40.535       22.367       45.296       44.057       27.672     2051.726     1941.017      765.742        0.468        0.238       63.983       21.608        0.114      350.178       31.150      862.410
07/19/2013  11:17:00       22.059      -26.257       -1.352       38.365       41.579       28.545     1471.882     1728.835      814.794        0.260        0.201       34.294       25.026        0.533      349.600       30.148      862.398
07/19/2013  11:18:00       43.214      -49.407       -2.867       37.964       51.093       41.440     1441.235     2610.444     1717.283        0.504        0.288       65.640       28.168        0.184      349.017       29.137      862.385
07/19/2013  11:19:00       12.640      -96.063        8.003       38.643       59.991       34.280     1493.253     3598.976     1175.102        0.786        0.313       96.891       29.246        0.091      349.653       30.241      862.372
07/19/2013  11:20:00       26.611      -78.988        8.527       46.807       66.123       46.369     2190.903     4372.236     2150.103        0.786        0.436       83.350       45.262        0.295      350.105       31.024      862.365
07/19/2013  11:21:00       16.937      -91.024        0.162       44.091       38.693       29.641     1944.060     1497.168      878.601        0.645        0.216       92.586       27.679        0.089      349.900       30.669      862.351
07/19/2013  11:22:00       11.484        5.880       36.558       49.902       55.928       45.131     2490.176     3127.888     2036.771        0.458        0.383       12.902       50.772       15.485      350.185       31.163      862.348
07/19/2013  11:23:00      -33.287        9.050       23.384       31.958       35.008       23.208     1021.286     1225.563      538.631        0.226        0.139       34.495       16.679        0.234      350.051       30.930      862.335
07/19/2013  11:24:00      -21.902       -0.675       21.436       29.733       22.154       16.678      884.042      490.805      278.163        0.130        0.083       21.912       12.513        0.326      350.149       31.101      862.335
07/19/2013  11:25:00       81.793       23.191       21.859       51.219       35.737       31.478     2623.351     1277.126      990.835        0.630        0.245       85.017       21.961        0.067      349.894       30.657      862.324
07/19/2013  11:26:00       26.268       51.534       -5.436       51.082       40.612       33.354     2609.408     1649.298     1112.514        0.437        0.269       57.842       21.929        0.144      349.824       30.537      862.309
07/19/2013  11:27:00      -33.277       17.905       11.325       44.541       24.186       33.511     1983.862      584.974     1122.982        0.262        0.185       37.788       29.640        0.615      350.197       31.185      862.294
07/19/2013  11:28:00       41.609      -11.370       21.214       41.621       33.236       34.799     1732.282     1104.663     1211.001        0.318        0.202       43.134       29.103        0.455      349.887       30.646      862.284
07/19/2013  11:29:00       48.228      -19.446       27.065       44.360       36.768       35.594     1967.766     1351.899     1266.931        0.401        0.229       52.000       26.750        0.265      349.488       29.954      862.272
07/19/2013  11:30:00       40.250       26.900       72.328       51.404       81.880       31.690     2642.345     6704.334     1004.280        0.896        0.518       48.411       27.043        0.312      349.658       30.248      862.245
07/19/2013  11:31:00       90.278       58.200       26.641       46.674       41.594       54.598     2178.459     1730.094     2980.947        0.957        0.344      107.412       23.474        0.048      350.087       30.992      862.248
07/19/2013  11:32:00       23.036       56.962        2.346       61.973       69.020       28.650     3840.644     4763.750      820.831        0.660        0.471       61.444       28.573        0.216      350.204       31.195      862.236
07/19/2013  11:33:00       25.500      115.677        0.575       66.417       64.146       37.177     4411.194     4114.657     1382.103        1.197        0.495      118.454       30.172        0.065      350.263       31.299      862.214
07/19/2013  11:34:00       44.182       70.193       18.794       56.642       51.793       36.408     3208.331     2682.465     1325.508        0.722        0.361       82.941       33.278        0.161      350.261       31.297      862.203
07/19/2013  11:35:00       63.736       42.283       18.443       35.240       28.274       32.221     1241.834      799.408     1038.202        0.463        0.154       76.486       21.737        0.081      350.195       31.180      862.197
07/19/2013  11:36:00      -16.994       -6.932       -1.019       41.199       46.588       22.252     1697.384     2170.486      495.132        0.235        0.218       18.354        8.696        0.224      350.343       31.436      862.185
07/19/2013  11:37:00       24.169      -28.490       25.485       37.794       56.531       32.786     1428.365     3195.707     1074.901        0.387        0.285       37.360       27.335        0.535      350.077       30.977      862.178
07/19/2013  11:38:00       28.175      -53.721       25.298       45.373       83.317       42.938     2058.719     6941.678     1843.632        0.758        0.542       60.661       53.797        0.786      350.168       31.134      862.157
07/19/2013  11:39:00       19.061      -48.315       27.029       39.189       77.877       41.362     1535.740     6064.896     1710.820        0.637        0.466       51.939       47.005        0.819      350.229       31.240      862.147
07/19/2013  11:40:00       18.271     -115.571       -1.309       47.200       46.552       44.521     2227.819     2167.128     1982.077        1.003        0.319      117.006       28.655        0.060      349.929       30.719      862.134
07/19/2013  11:41:00       34.472      -47.747       13.940       30.895       49.969       35.138      954.520     2496.895     1234.662        0.417        0.234       58.890       26.160        0.197      349.773       30.447      862.130
07/19/2013  11:42:00       71.338        2.133       15.279       59.435       40.581       32.585     3532.534     1646.845     1061.813        0.578        0.312       71.370       25.144        0.124      349.811       30.513      862.119
07/19/2013  11:43:00       42.590        3.579       19.953       46.509       32.004       29.841     2163.123     1024.272      890.456        0.315        0.204       42.740       16.595        0.151      349.911       30.687      862.105
07/19/2013  11:44:00       10.179       38.026       34.574       27.419       22.942       23.374      751.795      526.327      546.329        0.228        0.091       39.365       15.732        0.160      350.183       31.159      862.092
07/19/2013  11:45:00       -6.689       21.364       22.723       22.702       23.521       23.340      515.382      553.218      544.751        0.132        0.081       22.387       12.576        0.316      350.153       31.108      862.092
07/19/2013  11:46:00       -7.738       -4.909       14.540       27.732       22.442       21.606      769.065      503.648      466.839        0.102        0.087        9.164       14.173        2.392      350.529       31.761      862.092
07/19/2013  11:47:00      -35.643      -15.777       -2.917       23.410       21.409       21.416      548.008      458.344      458.641        0.150        0.073       38.979       16.675        0.183      350.343       31.439      862.066
07/19/2013  11:48:00       -8.769      -50.134       26.258       31.905       62.715       36.733     1017.934     3933.193     1349.316        0.479        0.315       50.895       24.059        0.223      350.829       32.283      862.046
07/19/2013  11:49:00       35.388      -30.469       10.104       37.388       63.991       29.996     1397.872     4094.909      899.734        0.434        0.320       46.698       33.826        0.525      349.869       30.616      862.019
07/19/2013  11:50:00       38.039      -86.764        7.831       37.296       72.936       38.015     1390.961     5319.639     1445.178        0.859        0.408       94.736       32.100        0.115      350.179       31.151      861.991
07/19/2013  11:51:00       55.163      -25.539       16.630       46.744       43.945       30.936     2185.025     1931.140      957.042        0.452        0.254       60.788       28.114        0.214      350.077       30.976      861.977
07/19/2013  11:52:00        8.757      -16.896       38.329       31.913       59.558       27.761     1018.438     3547.104      770.700        0.358        0.267       19.031       32.358        2.891      350.532       31.768      861.956
07/19/2013  11:53:00       52.032       -1.512       60.567       60.350       86.991       59.226     3642.164     7567.509     3507.690        1.054        0.736       52.054       59.220        1.294      350.371       31.486      861.942
07/19/2013  11:54:00       48.756      -19.066       44.345       56.403       43.451       34.360     3181.295     1887.992     1180.623        0.548        0.312       52.352       25.775        0.242      350.242       31.262      861.941
07/19/2013  11:55:00       38.633      -35.332       25.467       43.569       50.380       53.251     1898.252     2538.095     2835.637        0.533        0.364       52.354       37.344        0.509      349.952       30.760      861.936
07/19/2013  11:56:00       95.094      -56.636        9.043       42.464       49.789       42.416     1803.165     2478.988     1799.156        0.921        0.304      110.682       34.688        0.098      349.744       30.397      861.927
07/19/2013  11:57:00        3.693      -11.067       18.430       35.887       30.476       32.327     1287.875      928.760     1045.050        0.187        0.163       11.667       20.510        3.091      349.990       30.825      861.912
07/19/2013  11:58:00       29.294      -84.939      -13.334       38.551       54.674       34.401     1486.179     2989.199     1183.443        0.695        0.283       89.848       28.277        0.099      350.363       31.473      861.885
07/19/2013  11:59:00       42.684       40.617       47.105       50.690       56.241       37.124     2569.523     3163.070     1378.164        0.640        0.356       58.921       33.668        0.326      350.311       31.383      861.878
07/19/2013  12:00:00      227.210      144.676       24.296       79.168       64.534       63.171     6267.586     4164.661     3990.601        4.378        0.721      269.361       51.437        0.036      350.333       31.416      861.883
07/19/2013  12:01:00      164.232       84.355       25.660       92.339       52.503       44.902     8526.476     2756.606     2016.234        2.402        0.665      184.629       24.213        0.017      350.599       31.880      861.887
07/19/2013  12:02:00       73.253       68.540       28.203       50.657       29.600       31.892     2566.099      876.188     1017.116        0.766        0.223      100.318       23.603        0.055      350.498       31.706      861.890
07/19/2013  12:03:00       79.159       59.065       13.548       35.770       40.988       29.006     1279.466     1679.976      841.331        0.687        0.190       98.767       17.588        0.032      350.466       31.651      861.876
07/19/2013  12:04:00      -26.106       51.033       10.326       29.363       31.225       26.201      862.164      975.010      686.489        0.296        0.126       57.323       20.373        0.126      350.925       32.451      861.853
07/19/2013  12:05:00       19.836       15.812       23.174       41.426       26.576       22.705     1716.113      706.265      515.538        0.206        0.147       25.367       14.155        0.311      350.694       32.049      861.841
07/19/2013  12:06:00       41.638      102.343        2.543       65.025       68.722       40.078     4228.228     4722.710     1606.273        1.138        0.528      110.488       44.307        0.161      350.816       32.261      861.822
07/19/2013  12:07:00       81.359      115.768      -10.337       79.275       59.655       57.127     6284.569     3558.735     3263.449        1.661        0.655      141.497       44.760        0.100      350.902       32.409      861.814
07/19/2013  12:08:00       77.112       88.890        3.536       70.205       52.887       47.921     4928.704     2797.059     2296.430        1.194        0.501      117.676       37.006        0.099      351.015       32.606      861.811
07/19/2013  12:09:00       29.333       81.101        3.813       41.325       63.959       38.585     1707.715     4090.794     1488.817        0.737        0.364       86.242       36.211        0.176      350.945       32.485      861.800
07/19/2013  12:10:00       -1.790      102.373       -0.069       32.370       63.429       34.850     1047.824     4023.199     1214.529        0.838        0.314      102.389       40.216        0.154      351.238       32.997      861.802
07/19/2013  12:11:00       72.025       40.739        8.253       50.851       34.565       41.040     2585.783     1194.772     1684.292        0.619        0.273       82.748       20.337        0.060      351.108       32.769      861.779
07/19/2013  12:12:00       59.897       34.696       21.069      102.521       50.096       33.325    10510.596     2509.634     1110.577        0.968        0.707       69.220       16.039        0.054      350.912       32.427      861.769
07/19/2013  12:13:00      148.939       77.163        7.480       68.025       55.737       46.733     4627.453     3106.648     2183.977        1.905        0.496      167.740       31.586        0.035      351.088       32.733      861.761
07/19/2013  12:14:00      149.100       83.877       16.821       79.954       60.370       46.580     6392.625     3644.555     2169.704        2.088        0.610      171.074       36.896        0.047      351.146       32.833      861.746
07/19/2013  12:15:00      142.079       87.541       11.826       88.328       51.838       46.191     7801.798     2687.172     2133.597        2.030        0.631      166.883       25.574        0.023      350.821       32.268      861.753
07/19/2013  12:16:00      140.956      126.490       19.762       89.992       55.918       48.963     8098.471     3126.821     2397.327        2.494        0.681      189.390       35.338        0.035      350.731       32.110      861.746
07/19/2013  12:17:00       82.274       68.921       26.516       51.054       43.020       47.996     2606.529     1850.689     2303.610        0.949        0.338      107.327       31.532        0.086      351.276       33.062      861.745
07/19/2013  12:18:00       54.204       32.924       29.363       55.373       33.147       38.035     3066.196     1098.706     1446.689        0.525        0.281       63.420       23.235        0.134      351.309       33.118      861.743
07/19/2013  12:19:00      106.943       92.987       11.573       49.374       42.365       42.904     2437.747     1794.833     1840.714        1.314        0.304      141.716       29.152        0.042      350.878       32.368      861.725
07/19/2013  12:20:00       82.098       61.479       12.249       68.112       46.724       38.389     4639.250     2183.161     1473.748        0.948        0.415      102.566       32.948        0.103      351.137       32.820      861.718
07/19/2013  12:21:00       16.582       63.356       -6.481       35.518       46.510       28.594     1261.516     2163.173      817.597        0.429        0.212       65.490       29.204        0.199      351.271       33.054      861.705
07/19/2013  12:22:00       14.917       43.647       13.397       33.768       55.155       34.307     1140.281     3042.060     1176.960        0.383        0.268       46.126       33.536        0.529      351.453       33.371      861.687
07/19/2013  12:23:00       20.006       23.221       20.946       38.444       30.465       27.186     1477.931      928.142      739.078        0.226        0.157       30.650       17.102        0.311      351.428       33.328      861.673
07/19/2013  12:24:00      113.884       76.293        7.323       83.398       43.982       44.725     6955.209     1934.445     2000.327        1.486        0.544      137.077       18.572        0.018      351.144       32.832      861.652
07/19/2013  12:25:00       31.854       31.493       13.505       38.237       35.936       28.956     1462.071     1291.424      838.479        0.289        0.180       44.794        3.477        0.006      351.412       33.300      861.645
07/19/2013  12:26:00       19.222       -3.482       15.123       20.196       31.456       23.195      407.877      989.465      538.020        0.127        0.097       19.535       18.876        0.934      351.300       33.104      861.630
07/19/2013  12:27:00       25.215       35.287       51.289       28.222       26.924       20.497      796.485      724.893      420.147        0.323        0.097       43.370       17.693        0.166      351.110       32.772      861.611
07/19/2013  12:28:00      -19.184       -2.594       10.773       27.640       27.785       25.502      763.994      771.980      650.342        0.134        0.109       19.359       19.336        0.998      351.140       32.825      861.604
07/19/2013  12:29:00       18.993        4.961       32.548       15.754       32.069       18.537      248.194     1028.421      343.628        0.153        0.081       19.630       16.295        0.689      351.038       32.648      861.592
07/19/2013  12:30:00       25.343       -2.296       22.723       29.724       23.498       21.291      883.517      552.150      453.300        0.153        0.094       25.447       18.818        0.547      351.098       32.751      861.583
07/19/2013  12:31:00      -29.687     -116.387       -2.864       29.696       62.742       26.145      881.824     3936.564      683.541        0.997        0.275      120.113       21.070        0.031      350.941       32.478      861.578
07/19/2013  12:32:00      -54.294      -97.571        2.016       29.225       30.876       21.659      854.122      953.355      469.109        0.737        0.114      111.660       16.948        0.023      350.811       32.253      861.562
07/19/2013  12:33:00      -18.080      -70.842       -3.893       36.544       40.484       24.184     1335.477     1638.918      584.889        0.446        0.178       73.113       21.646        0.088      350.972       32.532      861.556
07/19/2013  12:34:00      -42.099      -83.477       -4.702       48.885       34.821       24.597     2389.734     1212.536      605.008        0.648        0.210       93.492        9.960        0.011      351.084       32.728      861.543
07/19/2013  12:35:00      -46.033      -40.224       13.203       40.925       38.486       26.033     1674.879     1481.143      677.717        0.387        0.192       61.131       25.137        0.169      351.454       33.374      861.533
07/19/2013  12:36:00     -107.691      -27.544       10.612       48.156       34.410       23.379     2319.008     1184.064      546.572        0.826        0.202      111.158       26.525        0.057      351.269       33.051      861.526
07/19/2013  12:37:00      -76.758      -16.092        5.222       74.490       29.526       37.097     5548.801      871.784     1376.208        0.699        0.390       78.427       38.328        0.239      351.443       33.352      861.508
07/19/2013  12:38:00      -58.493      -59.208       -3.247       59.744       42.245       24.530     3569.327     1784.656      601.722        0.645        0.298       83.229       28.423        0.117      351.032       32.637      861.502
07/19/2013  12:39:00      -39.015     -163.018        6.133       33.454       33.758       22.034     1119.159     1139.609      485.507        1.544        0.137      167.621       16.456        0.010      350.849       32.316      861.496
07/19/2013  12:40:00      -13.125     -162.634        8.201       21.406       22.865       26.179      458.216      522.799      685.344        1.418        0.083      163.163       15.765        0.009      350.862       32.339      861.489
07/19/2013  12:41:00      -24.518      -91.933       -5.723       38.152       48.313       19.659     1455.584     2334.147      386.486        0.663        0.209       95.146       11.875        0.016      350.860       32.335      861.481
07/19/2013  12:42:00      -18.346       -6.252        0.760       48.438       29.967       22.370     2346.257      898.029      500.413        0.206        0.187       19.382       16.324        0.709      351.259       33.032      861.470
07/19/2013  12:43:00      -25.497      -20.517       20.596       44.640       43.166       32.821     1992.745     1863.321     1077.230        0.321        0.247       32.726       27.639        0.713      351.674       33.757      861.457
07/19/2013  12:44:00       17.590       11.802       24.200       27.399       26.879       26.453      750.704      722.490      699.737        0.160        0.109       21.183       17.220        0.661      351.280       33.070      861.445
07/19/2013  12:45:00       45.083       -4.050       14.411       34.453       36.757       34.119     1186.983     1351.102     1164.080        0.298        0.185       45.265       16.617        0.135      350.628       31.934      861.437
07/19/2013  12:46:00       25.337       -2.425       22.106       39.638       45.596       35.030     1571.138     2078.992     1227.117        0.301        0.244       25.452       37.470        2.167      351.581       33.594      861.436
07/19/2013  12:47:00       18.458       -8.093       40.139       31.185       64.447       29.208      972.531     4153.465      853.100        0.400        0.299       20.154       35.829        3.160      351.562       33.561      861.412
07/19/2013  12:48:00       26.869       14.344       51.323       38.836       32.301       22.384     1508.268     1043.331      501.056        0.331        0.153       30.458       17.035        0.313      351.485       33.428      861.417
07/19/2013  12:49:00        9.251       11.470       42.672       29.517       47.003       32.082      871.280     2209.309     1029.233        0.307        0.205       14.735       29.630        4.043      351.178       32.891      861.408
07/19/2013  12:50:00       26.564       -4.675       27.661       37.365       43.965       26.616     1396.115     1932.929      708.438        0.276        0.202       26.972        6.350        0.055      351.866       34.093      861.400
07/19/2013  12:51:00       74.672       53.361       37.240       70.025       69.122       46.834     4903.546     4777.862     2193.413        1.084        0.594       91.778       48.712        0.282      351.647       33.708      861.379
07/19/2013  12:52:00       62.243       35.019       32.336       61.864       34.940       41.733     3827.117     1220.811     1741.629        0.647        0.339       71.418       34.093        0.228      352.062       34.434      861.371
07/19/2013  12:53:00      160.591      105.313       30.004       87.934       68.917       55.423     7732.468     4749.610     3071.764        2.666        0.778      192.043       32.571        0.029      351.701       33.801      861.343
07/19/2013  12:54:00       90.483       77.431       30.762       75.265       61.103       42.964     5664.872     3733.620     1845.896        1.318        0.562      119.092       27.129        0.052      351.929       34.201      861.332
07/19/2013  12:55:00      150.016       71.567       39.614       91.343       74.794       44.235     8343.567     5594.100     1956.755        2.254        0.795      166.212       26.192        0.025      351.800       33.974      861.310
07/19/2013  12:56:00      252.115      113.688       33.543      104.585       84.152       55.169    10938.061     7081.626     3043.589        4.933        1.053      276.563       26.916        0.009      351.518       33.480      861.294
07/19/2013  12:57:00       72.145       54.441       54.830       75.065       63.620       52.584     5634.761     4047.462     2765.065        1.181        0.622       90.381       34.596        0.147      351.835       34.036      861.292
07/19/2013  12:58:00       66.117      -55.276       43.723       61.017       90.245       57.103     3723.107     8144.248     3260.796        1.223        0.756       86.179       56.766        0.434      351.894       34.140      861.298
07/19/2013  12:59:00       13.285      -95.748       21.300       73.359       86.695       55.893     5381.533     7516.088     3124.019        1.291        0.801       96.665       45.012        0.217      351.737       33.866      861.268
07/19/2013  13:00:00       35.128      -60.621       43.070       60.228       80.827       53.728     3627.393     6532.964     2886.719        0.990        0.652       70.063       54.708        0.610      352.108       34.516      861.264
07/19/2013  13:01:00        3.526      -10.985       53.977       29.837       78.473       38.250      890.253     6157.998     1463.030        0.578        0.426       11.537       34.034        8.702      351.807       33.989      861.245
07/19/2013  13:02:00       34.343      -34.741       11.168       60.895       75.885       43.848     3708.196     5758.509     1922.655        0.695        0.569       48.850       41.100        0.708      351.407       33.291      861.246
07/19/2013  13:03:00        0.285     -114.284        2.263       42.854       40.773       34.762     1836.487     1662.412     1208.400        0.889        0.235      114.285       20.601        0.032      351.925       34.195      861.241
07/19/2013  13:04:00       17.875       -0.620       41.188       36.155       57.507       45.296     1307.198     3307.042     2051.700        0.434        0.333       17.885       45.914        6.590      351.779       33.940      861.235
07/19/2013  13:05:00       39.986      -29.670       16.646       22.917       40.506       28.353      525.168     1640.721      803.887        0.286        0.148       49.792       23.903        0.230      351.439       33.347      861.235
07/19/2013  13:06:00       50.438       12.805       30.135       47.794       75.878       63.976     2284.236     5757.473     4092.936        0.787        0.607       52.038       55.291        1.129      351.204       32.936      861.215
07/19/2013  13:07:00      141.098       76.302       47.218      123.364       77.481       74.323    15218.666     6003.367     5523.914        2.735        1.337      160.408       75.265        0.220      351.402       33.280      861.193
07/19/2013  13:08:00       96.626       54.739       18.925       60.914       37.741       36.875     3710.510     1424.379     1359.783        0.959        0.325      111.054       31.892        0.082      351.609       33.643      861.195
07/19/2013  13:09:00       74.981      -41.792       18.188       69.276       88.435       51.378     4799.206     7820.748     2639.721        1.148        0.763       85.842       43.629        0.258      351.843       34.050      861.190
07/19/2013  13:10:00       36.107      -27.677       15.630       66.808      119.785       43.799     4463.324    14348.549     1918.374        1.152        1.037       45.494       54.447        1.432      352.027       34.371      861.180
07/19/2013  13:11:00       66.968       49.065       58.147       70.767       50.843       37.709     5008.018     2584.993     1421.948        0.964        0.451       83.019       26.622        0.103      351.956       34.248      861.176
07/19/2013  13:12:00       29.966     -126.645       11.839       51.496       84.271       41.879     2651.832     7101.519     1753.816        1.429        0.575      130.141       47.300        0.132      352.008       34.339      861.167
07/19/2013  13:13:00        6.853      -91.035       -2.587       62.780       68.943       41.372     3941.379     4753.071     1711.683        0.937        0.520       91.293       38.058        0.174      352.065       34.440      861.154
07/19/2013  13:14:00      -85.134      -26.901       15.839       77.074       49.516       34.647     5940.439     2451.806     1200.410        0.891        0.480       89.283       18.622        0.044      352.064       34.437      861.134
07/19/2013  13:15:00      -20.274      -21.184       16.267       46.817       36.548       31.043     2191.786     1335.763      963.639        0.281        0.225       29.322       20.130        0.471      352.172       34.626      861.130
07/19/2013  13:16:00      -13.926        6.218       22.213       23.160       23.369       17.471      536.382      546.123      305.224        0.106        0.069       15.251       10.770        0.499      352.625       35.418      861.118
07/19/2013  13:17:00      -27.734        4.411       12.200       23.797       27.534       26.233      566.313      758.103      688.175        0.147        0.101       28.082       18.211        0.421      352.192       34.662      861.104
07/19/2013  13:18:00       32.412       20.048       14.116       23.202       33.118       33.375      538.319     1096.816     1113.868        0.220        0.137       38.111       21.305        0.312      351.295       33.095      861.097
07/19/2013  13:19:00        8.802       18.003       17.314       16.416       18.823       23.143      269.488      354.299      535.579        0.093        0.058       20.040       14.921        0.554      351.788       33.954      861.102
07/19/2013  13:20:00      101.723       69.031       22.691       82.901       46.611       33.050     6872.604     2172.598     1092.281        1.288        0.507      122.935       28.695        0.054      351.771       33.925      861.074
07/19/2013  13:21:00      161.673      141.665        9.522      119.368       78.672       64.769    14248.780     6189.246     4195.020        3.546        1.232      214.958       43.566        0.041      351.972       34.275      861.046
07/19/2013  13:22:00      165.438      160.372        3.398      121.467       68.986       62.795    14754.321     4759.092     3943.150        3.827        1.173      230.410       47.941        0.043      351.821       34.010      861.030
07/19/2013  13:23:00      217.940      167.330       36.459       80.194       52.552       47.400     6431.044     2761.699     2246.765        4.413        0.572      274.767       20.193        0.005      351.729       33.848      861.019
07/19/2013  13:24:00      155.834       31.727       32.844      123.175      119.974       34.815    15172.016    14393.750     1212.091        2.857        1.539      159.030       40.735        0.066      351.938       34.215      861.020
07/19/2013  13:25:00      102.123      117.402      144.884      100.303       97.340       84.495    10060.698     9475.101     7139.407        3.593        1.334      155.603       70.533        0.205      351.408       33.290      861.001
07/19/2013  13:26:00       95.778       74.427       37.238       73.983       64.945       61.254     5473.480     4217.906     3752.066        1.477        0.672      121.297       39.535        0.106      351.720       33.836      860.989
07/19/2013  13:27:00      155.257       98.438       21.569       89.684       81.104       46.598     8043.255     6577.860     2171.347        2.552        0.840      183.834       35.155        0.037      352.065       34.437      860.974
07/19/2013  13:28:00       56.299       37.750       18.668       58.544       48.537       46.149     3427.344     2355.845     2129.686        0.643        0.396       67.784       17.970        0.070      352.182       34.645      860.967
07/19/2013  13:29:00       39.679      -65.300       11.782       52.118       96.617       48.096     2716.324     9334.749     2313.245        1.017        0.718       76.410       52.145        0.466      352.252       34.765      860.951
07/19/2013  13:30:00       57.763      -93.479       -2.513       43.682       78.617       46.008     1908.157     6180.687     2116.700        1.114        0.510      109.886       49.790        0.205      351.965       34.264      860.936
07/19/2013  13:31:00       44.445      -70.039       12.349       54.941       85.439       50.736     3018.499     7299.880     2574.164        0.996        0.645       82.950       56.042        0.456      351.887       34.127      860.915
07/19/2013  13:32:00       43.148      -55.887       16.329       53.241       68.172       38.433     2834.595     4647.369     1477.071        0.710        0.448       70.605       32.637        0.214      352.130       34.552      860.894
07/19/2013  13:33:00       30.944      -57.880       19.066       56.286       70.782       48.980     3168.151     5010.046     2399.008        0.762        0.529       65.632       44.439        0.458      352.153       34.593      860.882
07/19/2013  13:34:00        8.707       -6.222       22.104       23.287       36.408       27.046      542.276     1325.577      731.492        0.160        0.130       10.702       20.387        3.629      352.099       34.499      860.857
07/19/2013  13:35:00       -4.184       40.276       70.153       25.898       34.486       29.188      670.685     1189.277      851.915        0.464        0.136       40.493       19.478        0.231      352.031       34.380      860.818
07/19/2013  13:36:00        4.416       -1.526       19.967       16.395       24.616       15.401      268.809      605.939      237.185        0.077        0.056        4.673       10.513        5.063      352.162       34.608      860.810
07/19/2013  13:37:00       67.379      -35.185       14.969       52.149       53.941       38.905     2719.519     2909.604     1513.637        0.657        0.357       76.012       34.358        0.204      352.047       34.409      860.810
07/19/2013  13:38:00        9.955      -15.459        6.031       43.124       33.963       26.665     1859.670     1153.510      711.022        0.205        0.186       18.386       22.205        1.459      352.144       34.576      860.792
07/19/2013  13:39:00      119.971      -29.926       37.845       73.949      102.589       54.786     5468.389    10524.601     3001.526        1.785        0.950      123.647       60.480        0.239      351.891       34.135      860.762
07/19/2013  13:40:00      174.249       75.197       32.055       98.481       64.963       58.393     9698.565     4220.135     3409.772        2.718        0.866      189.783       38.989        0.042      351.874       34.103      860.752
07/19/2013  13:41:00       89.002        7.365       42.669       62.443       82.915       49.057     3899.102     6874.889     2406.566        1.149        0.659       89.307       44.708        0.251      351.779       33.939      860.751
07/19/2013  13:42:00       86.169       64.682       13.507       65.494       48.172       34.557     4289.404     2320.542     1194.214        0.980        0.390      107.744       37.585        0.122      352.335       34.911      860.741
07/19/2013  13:43:00      117.751       84.866       67.467       82.937       76.144       72.827     6878.626     5797.924     5303.842        2.180        0.899      145.147       55.128        0.144      352.215       34.698      860.730
07/19/2013  13:44:00       63.226       66.121       66.529       64.859       84.696       55.189     4206.752     7173.431     3045.857        1.361        0.721       91.485       55.086        0.363      352.235       34.736      860.712
07/19/2013  13:45:00       54.647       52.774       72.544       96.309       85.700       58.376     9275.478     7344.567     3407.720        1.553        1.001       75.969       45.125        0.353      352.225       34.717      860.687
07/19/2013  13:46:00       29.602      -39.830       24.081       67.366       76.255       43.153     4538.230     5814.797     1862.171        0.763        0.611       49.626       40.371        0.662      352.366       34.965      860.683
07/19/2013  13:47:00       91.578      -15.116       59.119       86.628      120.758       60.526     7504.480    14582.528     3663.409        1.893        1.288       92.817       71.980        0.601      352.288       34.827      860.652
07/19/2013  13:48:00       58.851       -5.862       64.581       70.151       98.970       57.315     4921.187     9795.076     3285.066        1.283        0.900       59.142       64.338        1.183      352.097       34.495      860.647
07/19/2013  13:49:00       62.222     -140.753        9.107       54.442       80.009       40.235     2963.929     6401.444     1618.833        1.737        0.549      153.892       35.613        0.054      352.199       34.673      860.631
07/19/2013  13:50:00       58.008     -142.786      -10.416       69.374       71.613       54.984     4812.723     5128.423     3023.197        1.841        0.648      154.119       35.267        0.052      352.317       34.878      860.599
07/19/2013  13:51:00        4.785      -36.704       22.327       51.713       36.693       32.869     2674.200     1346.391     1080.385        0.348        0.255       37.014       27.779        0.563      352.550       35.287      860.581
07/19/2013  13:52:00       60.129      -27.282       48.423       69.400       75.023       61.774     4816.427     5628.517     3816.022        1.048        0.713       66.029       52.011        0.620      352.363       34.961      860.555
07/19/2013  13:53:00      152.804     -119.500       -2.768      100.333      118.170       56.282    10066.688    13964.051     3167.655        3.241        1.360      193.983       61.506        0.101      352.415       35.047      860.538
07/19/2013  13:54:00       15.154      -37.001       25.485       31.236       72.995       34.145      975.693     5328.296     1165.907        0.486        0.373       39.984       37.373        0.874      352.444       35.104      860.530
07/19/2013  13:55:00       53.942      -66.096       19.135       50.152       75.355       45.550     2515.253     5678.443     2074.807        0.895        0.513       85.314       48.542        0.324      352.454       35.119      860.514
07/19/2013  13:56:00      100.526       81.319       87.182       80.305       89.840       82.231     6448.894     8071.179     6761.980        2.280        1.064      129.299       69.859        0.292      352.396       35.017      860.503
07/19/2013  13:57:00      153.853       -3.191       42.824      103.237      108.537       73.716    10657.862    11780.338     5434.042        2.669        1.394      153.886       61.324        0.159      352.062       34.431      860.498
07/19/2013  13:58:00       31.244       12.521       53.410       56.617       71.325       52.754     3205.508     5087.277     2783.019        0.753        0.554       33.660       47.009        1.950      352.190       34.657      860.497
07/19/2013  13:59:00       48.382       -2.950       63.791       60.302      126.037       60.049     3636.317    15885.274     3605.834        1.477        1.156       48.472       75.980        2.457      352.228       34.725      860.498
07/19/2013  14:00:00      148.179     -174.511      -21.983       74.512       62.298       48.729     5552.035     3881.089     2374.496        3.235        0.590      228.934       48.859        0.046      352.283       34.815      860.493
07/19/2013  14:01:00       23.774       -5.892       49.634       51.727       71.627       46.388     2675.668     5130.474     2151.864        0.651        0.498       24.493       51.490        4.419      352.492       35.186      860.494
07/19/2013  14:02:00       61.462       -7.126       19.962       59.817       59.944       35.393     3578.098     3593.323     1252.630        0.632        0.421       61.874       39.750        0.413      351.836       34.039      860.501
07/19/2013  14:03:00        3.381       66.733       11.023       47.966       32.286       39.396     2300.737     1042.371     1552.077        0.474        0.245       66.819       32.539        0.237      352.048       34.408      860.480
07/19/2013  14:04:00      -40.699       54.058       -5.233       33.708       40.571       26.954     1136.259     1645.992      726.545        0.406        0.175       67.666       29.155        0.186      352.570       35.324      860.437
07/19/2013  14:05:00       -0.574       11.396       40.675       20.767       21.637       21.912      431.270      468.153      480.141        0.158        0.069       11.410       18.396        2.599      353.030       36.127      860.430
07/19/2013  14:06:00       60.102      -81.413        9.787       64.292      115.097       45.415     4133.514    13247.347     2062.551        1.489        0.972      101.195       56.419        0.311      351.900       34.149      860.424
07/19/2013  14:07:00      -30.758      -61.665        8.976       66.857       67.071       33.849     4469.832     4498.462     1145.751        0.747        0.506       68.911       35.919        0.272      352.731       35.603      860.409
07/19/2013  14:08:00     -109.307      -66.966      -11.883       90.131       60.805       40.584     8123.672     3697.188     1647.021        1.502        0.673      128.189       39.302        0.094      352.585       35.348      860.389
07/19/2013  14:09:00      -22.812      -38.157       16.024       73.922       68.923       37.428     5464.405     4750.382     1400.861        0.692        0.581       44.456       29.079        0.428      352.821       35.763      860.360
07/19/2013  14:10:00       37.548      -73.951       30.047       55.125       79.798       49.039     3038.801     6367.680     2404.850        0.979        0.591       82.937       52.690        0.404      352.858       35.825      860.365
07/19/2013  14:11:00       26.588      -91.526       35.045       54.331       91.506       50.447     2951.891     8373.343     2544.868        1.209        0.694       95.309       44.713        0.220      352.921       35.936      860.355
07/19/2013  14:12:00       -1.730       28.219       48.345       32.750       34.402       37.179     1072.565     1183.479     1382.309        0.339        0.182       28.272       13.792        0.238      352.670       35.499      860.357
07/19/2013  14:13:00       82.421       50.360       79.018       98.324       89.375       63.170     9667.586     7987.958     3990.502        1.861        1.082       96.589       63.664        0.434      352.190       34.657      860.358
07/19/2013  14:14:00      117.322       78.272       78.445       68.871       66.661       63.185     4743.226     4443.720     3992.399        1.961        0.659      141.035       52.702        0.140      351.989       34.305      860.361
07/19/2013  14:15:00       73.167      -21.258       39.407       47.484       66.620       45.599     2254.776     4438.223     2079.249        0.806        0.439       76.193       45.852        0.362      351.532       33.509      860.358
07/19/2013  14:16:00       63.366      -19.349        6.244       49.381       37.007       30.321     2438.499     1369.497      919.375        0.458        0.236       66.254       33.997        0.263      351.853       34.070      860.353
07/19/2013  14:17:00      -65.836      -34.363       -2.975       60.733       49.834       23.281     3688.486     2483.449      541.992        0.612        0.336       74.264       12.238        0.027      352.827       35.773      860.323
07/19/2013  14:18:00     -125.921      -68.035      -12.597       85.961       42.838       36.824     7389.376     1835.087     1355.999        1.561        0.529      143.125       36.561        0.065      352.676       35.508      860.281
07/19/2013  14:19:00      -40.810      -48.741       26.255       88.217       49.674       40.872     7782.232     2467.550     1670.536        0.832        0.596       63.570       38.065        0.359      353.094       36.240      860.254
07/19/2013  14:20:00      -68.045      -11.931        7.743       76.550       45.353       35.275     5859.977     2056.920     1244.328        0.700        0.458       69.083       15.914        0.053      352.755       35.646      860.244
07/19/2013  14:21:00      -30.120       11.413       19.705       33.604       37.055       23.049     1129.256     1373.064      531.270        0.223        0.152       32.210       20.469        0.404      352.963       36.011      860.235
07/19/2013  14:22:00      -66.102       56.803        4.466       43.007       36.843       32.329     1849.570     1357.420     1045.134        0.593        0.213       87.156       31.885        0.134      352.873       35.853      860.236
07/19/2013  14:23:00        6.256       41.852       22.591       48.545       59.036       27.151     2356.622     3485.219      737.203        0.444        0.329       42.317       31.591        0.557      353.276       36.558      860.235
07/19/2013  14:24:00      173.689      125.486       50.106       86.837       81.886       62.678     7540.725     6705.323     3928.590        3.330        0.909      214.277       16.589        0.006      352.715       35.573      860.219
07/19/2013  14:25:00      184.220      106.045       41.231       96.891       75.583       66.254     9387.871     5712.787     4389.605        3.318        0.975      212.562       47.538        0.050      352.609       35.387      860.199
07/19/2013  14:26:00      179.785      131.155       41.475       91.832       69.654       68.400     8433.131     4851.653     4678.544        3.460        0.898      222.540       56.931        0.065      352.823       35.761      860.193
07/19/2013  14:27:00      159.342       92.376       32.995       65.591       60.590       56.338     4302.229     3671.148     3173.987        2.308        0.557      184.182       25.293        0.019      352.709       35.564      860.180
07/19/2013  14:28:00      127.505       94.377        7.214       96.158       60.364       40.457     9246.304     3643.807     1636.781        1.987        0.726      158.633       36.752        0.054      352.601       35.375      860.168
07/19/2013  14:29:00      -13.259      164.484      -16.362       63.321       99.745       40.830     4009.524     9949.060     1667.090        2.156        0.781      165.018       38.229        0.054      352.960       36.002      860.162
07/19/2013  14:30:00      -69.030      188.026      -14.899       41.547       82.972       38.568     1726.123     6884.270     1487.513        2.522        0.505      200.297       39.360        0.039      352.712       35.569      860.163
07/19/2013  14:31:00      -71.086      105.214      -13.316       50.013       56.329       39.996     2501.310     3172.941     1599.652        1.179        0.364      126.977       38.007        0.090      352.857       35.825      860.164
07/19/2013  14:32:00      -86.808       33.838      -17.296       54.132       44.822       29.729     2930.247     2009.055      883.808        0.740        0.291       93.170       12.829        0.019      352.642       35.448      860.146
07/19/2013  14:33:00      -34.853       82.907       -9.499       51.459       70.440       33.211     2648.019     4961.821     1103.002        0.844        0.436       89.935       33.507        0.139      352.811       35.745      860.122
07/19/2013  14:34:00       -7.727       97.122       18.248       42.760       64.637       42.718     1828.443     4177.917     1824.793        0.883        0.392       97.429       42.111        0.187      353.063       36.185      860.110
07/19/2013  14:35:00      -31.106       77.387        2.811       92.008       66.202       43.693     8465.515     4382.649     1909.115        1.086        0.738       83.405       50.123        0.361      353.011       36.094      860.104
07/19/2013  14:36:00      -78.045       80.576       -5.736       68.365       59.841       39.633     4673.714     3580.983     1570.768        1.122        0.491      112.177       43.770        0.152      352.979       36.039      860.104
07/19/2013  14:37:00      -91.530       51.324       -5.731       65.916       30.003       29.893     4344.963      900.169      893.570        0.859        0.307      104.938       22.678        0.047      352.717       35.579      860.096
07/19/2013  14:38:00       -5.866       92.930       -1.538       33.512       31.696       28.738     1123.053     1004.607      825.869        0.581        0.148       93.115       21.729        0.054      352.779       35.689      860.084
07/19/2013  14:39:00       22.014       32.007        4.791       57.827       30.655       27.873     3343.977      939.752      776.902        0.330        0.253       38.847       19.661        0.256      352.752       35.641      860.076
07/19/2013  14:40:00       20.435       78.963       -7.382       36.639       78.224       25.955     1342.389     6119.006      673.685        0.742        0.407       81.564       33.010        0.164      352.852       35.816      860.057
07/19/2013  14:41:00       -9.676      238.767      -33.939       49.590       52.930       32.736     2459.140     2801.609     1071.640        3.229        0.317      238.963       22.961        0.009      352.864       35.833      860.031
07/19/2013  14:42:00      -14.166      258.694      -33.368       67.805       76.649       36.957     4597.473     5875.134     1365.828        4.004        0.592      259.081       28.858        0.012      352.853       35.813      860.011
07/19/2013  14:43:00       25.660      192.021      -18.626       48.944       73.821       38.852     2395.526     5449.553     1509.465        2.361        0.468      193.728       36.450        0.035      353.175       36.379      860.002
07/19/2013  14:44:00       61.456      108.693       -2.055       62.164       66.493       46.123     3864.341     4421.367     2127.365        1.300        0.521      124.864       43.813        0.123      352.971       36.022      859.992
07/19/2013  14:45:00       28.407      145.378       -3.865       52.491       96.795       44.833     2755.325     9369.343     2009.963        1.804        0.707      148.127       47.987        0.105      352.986       36.049      859.975
07/19/2013  14:46:00       66.386      294.019      -41.591       68.324      131.643       53.659     4668.157    17329.930     2879.320        5.873        1.244      301.420       63.856        0.045      352.756       35.644      859.962
07/19/2013  14:47:00       33.152      177.837      -24.892       48.592       82.855       44.532     2361.155     6864.966     1983.070        2.227        0.560      180.901       45.401        0.063      352.816       35.751      859.956
07/19/2013  14:48:00      -34.692      285.032      -41.353       48.964       76.156       32.287     2397.452     5799.674     1042.456        4.670        0.462      287.136       32.976        0.013      352.598       35.366      859.936
07/19/2013  14:49:00      -29.243      227.072      -34.378       42.391       78.076       29.386     1797.027     6095.789      863.510        3.118        0.438      228.948       29.644        0.017      352.634       35.433      859.929
07/19/2013  14:50:00      -70.487      144.341      -17.497       55.308       64.481       38.271     3058.937     4157.801     1464.653        1.739        0.434      160.633       33.407        0.043      352.767       35.667      859.922
07/19/2013  14:51:00     -102.954      136.102      -15.054       58.798       60.645       42.667     3457.196     3677.769     1820.511        1.915        0.448      170.656       25.794        0.023      352.812       35.746      859.914
07/19/2013  14:52:00     -175.290      118.430      -30.963       66.017       62.848       40.893     4358.245     3949.819     1672.271        2.784        0.499      211.547       28.057        0.018      352.709       35.562      859.899
07/19/2013  14:53:00      -82.930       60.227       -9.620       66.330       49.260       35.203     4399.687     2426.575     1239.281        0.933        0.403      102.492       40.308        0.155      352.948       35.983      859.889
07/19/2013  14:54:00       -6.731       89.234      -12.381       30.411       52.373       27.028      924.851     2742.933      730.517        0.628        0.220       89.488       26.257        0.086      352.942       35.974      859.884
07/19/2013  14:55:00      -20.968       78.968       -9.698       55.155       74.411       36.457     3042.041     5536.991     1329.128        0.834        0.495       81.704       27.015        0.109      352.933       35.959      859.867
07/19/2013  14:56:00      -15.339       24.866       22.647       31.384       30.988       29.025      984.961      960.278      842.478        0.208        0.139       29.216       13.736        0.221      353.123       36.292      859.849
07/19/2013  14:57:00       -9.114      -19.423       20.954       51.788       40.337       28.120     2682.018     1627.112      790.761        0.300        0.255       21.455       14.831        0.478      353.197       36.420      859.849
07/19/2013  14:58:00       16.055       53.578       83.094       50.866       49.432       36.787     2587.393     2443.515     1353.264        0.821        0.319       55.932       32.994        0.348      352.727       35.598      859.834
07/19/2013  14:59:00       54.462      -78.575       20.181       59.920      111.578       39.334     3590.414    12449.691     1547.178        1.356        0.879       95.604       57.167        0.358      352.799       35.721      859.823
07/19/2013  15:00:00       -6.500      -69.533       18.364       89.564       98.043       65.149     8021.674     9612.506     4244.435        1.354        1.094       69.837       67.107        0.923      353.035       36.136      859.795
07/19/2013  15:01:00      -69.409      -56.106       -0.406       29.105       35.467       23.353      847.102     1257.906      545.366        0.531        0.133       89.250       20.645        0.054      352.858       35.826      859.802
07/19/2013  15:02:00      -73.141      -20.605        2.785       54.129       37.036       33.291     2929.964     1371.682     1108.267        0.559        0.270       75.988       35.842        0.222      353.164       36.362      859.787
07/19/2013  15:03:00     -104.174     -142.574      -17.629       52.151       59.457       35.935     2719.727     3535.101     1291.291        1.952        0.377      176.577       25.311        0.021      352.921       35.937      859.772
07/19/2013  15:04:00        2.482      -46.094        6.053       38.969       70.354       31.301     1518.588     4949.621      979.739        0.481        0.372       46.160       38.506        0.696      352.774       35.680      859.741
07/19/2013  15:05:00     -145.600       -7.087        5.368       87.052       69.171       42.888     7577.972     4784.679     1839.338        1.774        0.710      145.772       43.069        0.087      353.149       36.333      859.709
07/19/2013  15:06:00     -136.549       -1.510        2.281       72.560       52.735       38.330     5264.923     2781.012     1469.157        1.408        0.476      136.557       22.472        0.027      353.556       37.050      859.684
07/19/2013  15:07:00     -177.451       34.731      -21.070       60.156       50.103       26.307     3618.719     2510.299      692.058        1.998        0.341      180.818       17.615        0.009      353.366       36.715      859.674
07/19/2013  15:08:00     -164.595       28.336      -16.817       49.833       42.020       35.353     2483.337     1765.666     1249.851        1.684        0.275      167.017       31.567        0.036      353.112       36.270      859.671
07/19/2013  15:09:00     -102.365      -16.185        1.220       55.764       42.044       27.318     3109.575     1767.724      746.296        0.818        0.281      103.637       20.734        0.040      353.251       36.515      859.657
07/19/2013  15:10:00     -121.490      -99.990        3.820      121.276       84.284       48.157    14707.945     7103.756     2319.120        2.445        1.207      157.346       22.864        0.021      352.863       35.834      859.626
07/19/2013  15:11:00       -2.294      -95.571       -9.633       81.869       68.762       53.498     6702.461     4728.148     2862.026        1.176        0.715       95.598       33.363        0.122      353.221       36.462      859.618
07/19/2013  15:12:00     -125.036      -88.912       -0.849       99.448       87.363       62.754     9889.884     7632.214     3938.104        2.250        1.073      153.425       50.472        0.108      353.253       36.515      859.620
07/19/2013  15:13:00     -147.364     -153.625      -24.875       61.989       65.530       37.570     3842.600     4294.118     1411.474        2.774        0.477      212.878       29.833        0.020      352.955       35.993      859.632
07/19/2013  15:14:00      -73.341      -11.705       28.227       83.265       50.390       28.129     6933.034     2539.154      791.266        0.829        0.513       74.269       33.634        0.205      353.392       36.762      859.628
07/19/2013  15:15:00     -179.723     -112.962        4.097      133.025       86.177       40.384    17695.555     7426.546     1630.879        3.591        1.338      212.275       45.819        0.047      353.182       36.392      859.601
07/19/2013  15:16:00     -214.271      -45.635       -6.353       53.030       79.720       32.622     2812.139     6355.271     1064.196        2.913        0.512      219.076       29.080        0.018      352.792       35.707      859.602
07/19/2013  15:17:00     -137.537       13.614       -1.955       30.153       27.530       21.607      909.176      757.927      466.859        1.062        0.107      138.209       15.863        0.013      352.759       35.654      859.600
07/19/2013  15:18:00        7.914      -28.915       13.899       57.124       46.577       27.663     3263.207     2169.406      765.219        0.364        0.310       29.978       30.954        1.066      353.118       36.281      859.597
07/19/2013  15:19:00       55.713       13.028       24.983       49.561       33.758       41.269     2456.299     1139.617     1703.100        0.460        0.265       57.216       16.801        0.086      352.526       35.245      859.584
07/19/2013  15:20:00       20.753       -3.549       23.768       35.270       35.844       22.187     1243.940     1284.759      492.268        0.201        0.151       21.054       13.285        0.398      352.152       34.591      859.566
07/19/2013  15:21:00        9.408        2.206       24.669       32.465       44.250       30.155     1054.000     1958.090      909.321        0.231        0.196        9.663       10.213        1.117      352.282       34.818      859.567
07/19/2013  15:22:00        7.723       18.281       21.753       31.130       21.455       24.011      969.055      460.301      576.545        0.144        0.100       19.846       10.511        0.281      352.114       34.526      859.567
07/19/2013  15:23:00      -43.438       62.487       -6.823       72.587       50.322       36.751     5268.924     2532.255     1350.634        0.749        0.458       76.102       33.835        0.198      352.746       35.631      859.557
07/19/2013  15:24:00        2.053       39.805       19.989       39.376       46.397       31.746     1550.509     2152.651     1007.821        0.335        0.236       39.858       27.711        0.483      353.320       36.637      859.537
07/19/2013  15:25:00       -3.596       27.868       15.635       29.719       53.906       31.218      883.191     2905.870      974.547        0.290        0.238       28.099       34.556        1.512      353.411       36.795      859.536
07/19/2013  15:26:00      -32.820      128.476        0.978       34.225       45.161       33.485     1171.347     2039.510     1121.213        1.096        0.217      132.602       28.036        0.045      352.983       36.045      859.540
07/19/2013  15:27:00       10.452       45.128       18.716       38.812       29.002       27.131     1506.350      841.119      736.074        0.279        0.154       46.323       19.479        0.177      353.209       36.442      859.534
07/19/2013  15:28:00      -41.004       92.634      -27.651       25.842       60.041       13.162      667.830     3604.926      173.229        0.774        0.222      101.303       13.081        0.017      352.799       35.723      859.544
07/19/2013  15:29:00     -123.558       38.196      -30.008       51.795       48.045       24.856     2682.715     2308.281      617.835        1.162        0.280      129.327       25.495        0.039      352.853       35.819      859.558
07/19/2013  15:30:00      -61.917       97.100      -10.387       37.745       51.119       28.981     1424.670     2613.167      839.915        0.912        0.244      115.161       18.405        0.026      352.919       35.933      859.545
07/19/2013  15:31:00      -12.470      145.765      -22.138       23.314       34.529       19.802      543.533     1192.236      392.108        1.201        0.106      146.297       19.037        0.017      352.855       35.821      859.493
07/19/2013  15:32:00        9.903      185.337      -25.434       75.136       81.047       41.294     5645.469     6568.678     1705.218        2.450        0.696      185.602       43.303        0.054      352.870       35.843      859.463
07/19/2013  15:33:00       31.216      122.488      -11.221       53.643       98.269       40.263     2877.528     9656.815     1621.078        1.513        0.708      126.403       47.310        0.140      353.045       36.151      859.457
07/19/2013  15:34:00       75.908      144.659      -15.940       71.602       70.634       43.842     5126.804     4989.152     1922.078        1.949        0.602      163.365       31.715        0.038      352.987       36.050      859.457
07/19/2013  15:35:00       52.429      184.336      -20.858       57.218       79.928       53.758     3273.923     6388.565     2889.955        2.486        0.628      191.647       44.786        0.055      352.879       35.860      859.439
07/19/2013  15:36:00       25.196      225.067      -43.038       53.742       58.783       29.171     2888.152     3455.422      850.952        3.017        0.360      226.473       28.574        0.016      352.788       35.700      859.445
07/19/2013  15:37:00       24.446      164.739      -26.204       72.496       72.847       41.551     5255.720     5306.661     1726.524        2.035        0.614      166.543       35.610        0.046      353.029       36.125      859.435
07/19/2013  15:38:00       67.089      115.117      -19.998       54.798       73.778       51.735     3002.784     5443.183     2676.560        1.464        0.556      133.240       48.569        0.133      352.999       36.071      859.437
07/19/2013  15:39:00       98.741      100.411        7.051       70.937       56.479       47.944     5032.063     3189.894     2298.632        1.520        0.526      140.826       34.697        0.061      353.003       36.079      859.442
07/19/2013  15:40:00       11.273       47.348       21.541       77.332       62.629       49.450     5980.211     3922.362     2445.280        0.759        0.617       48.672       34.844        0.512      352.787       35.702      859.438
07/19/2013  15:41:00     -109.671       82.052       -4.843      101.162      108.246       59.136    10233.745    11717.286     3497.119        2.211        1.272      136.968       68.637        0.251      353.295       36.590      859.444
07/19/2013  15:42:00     -234.860      -97.159       -1.849      121.782       72.548       48.977    14830.912     5263.273     2398.732        4.354        1.125      254.163       52.077        0.042      353.013       36.093      859.430
07/19/2013  15:43:00     -152.219      -61.266        4.337       94.477       65.906       53.299     8925.861     4343.648     2840.756        2.152        0.806      164.086       43.282        0.070      353.154       36.340      859.410
07/19/2013  15:44:00      -37.587      -12.181       20.160       57.986       47.902       39.037     3362.409     2294.554     1523.872        0.457        0.359       39.511       28.901        0.535      353.097       36.245      859.409
07/19/2013  15:45:00      -68.493       -1.691        4.634       69.729       38.683       32.725     4862.181     1496.378     1070.904        0.607        0.371       68.514       37.442        0.299      353.285       36.574      859.415
07/19/2013  15:46:00     -113.483      -58.236        1.661       52.543       40.996       27.095     2760.734     1680.669      734.154        1.072        0.259      127.554       17.532        0.019      353.172       36.376      859.395
07/19/2013  15:47:00     -169.002      136.895      -26.689      109.106       74.415       50.228    11904.115     5537.525     2522.836        3.399        0.998      217.490       57.934        0.071      353.034       36.131      859.381
07/19/2013  15:48:00     -156.665       66.702      -20.004       49.943       35.471       30.868     2494.284     1258.224      952.846        1.705        0.235      170.273       30.505        0.032      352.868       35.843      859.389
07/19/2013  15:49:00     -244.440       13.848      -36.655       79.947       49.074       33.242     6391.539     2408.297     1105.030        3.559        0.495      244.832       30.927        0.016      353.050       36.159      859.374
07/19/2013  15:50:00     -165.846       20.869      -22.486       47.488       68.475       34.142     2255.112     4688.789     1165.671        1.828        0.405      167.153       27.131        0.026      353.271       36.550      859.371
07/19/2013  15:51:00     -187.762      -68.551      -18.539       52.900       55.387       34.741     2798.458     3067.745     1206.924        2.368        0.354      199.885       22.642        0.013      353.295       36.590      859.377
07/19/2013  15:52:00     -123.134     -100.990       -2.208       59.711       46.769       34.311     3565.452     2187.330     1177.222        1.615        0.347      159.251       33.469        0.044      353.006       36.085      859.379
07/19/2013  15:53:00     -123.647      -21.781      -25.597       41.206       27.748       23.395     1697.901      769.928      547.344        0.972        0.151      125.551        3.811        0.001      352.909       35.914      859.373
07/19/2013  15:54:00      -96.925       30.619       -3.639       47.174       32.998       21.225     2225.347     1088.845      450.503        0.705        0.188      101.646       21.313        0.044      353.217       36.457      859.368
07/19/2013  15:55:00       -0.567       23.367       33.636       25.503       26.984       18.003      650.386      728.138      324.117        0.169        0.085       23.374       16.451        0.495      352.244       34.751      859.348
07/19/2013  15:56:00       61.525      -59.401       11.954       66.372       71.870       33.174     4405.214     5165.362     1100.507        0.906        0.534       85.520       42.456        0.246      352.646       35.456      859.326
07/19/2013  15:57:00       39.576     -122.092       -8.781       40.534       77.306       46.316     1643.007     5976.156     2145.193        1.316        0.488      128.346       44.903        0.122      352.911       35.919      859.314
07/19/2013  15:58:00       43.465     -102.886      -23.243       49.032       70.198       36.242     2404.115     4927.720     1313.508        1.083        0.432      111.691       27.791        0.062      352.789       35.706      859.319
07/19/2013  15:59:00       17.160        8.278       13.836       30.932       55.918       35.141      956.803     3126.807     1234.868        0.294        0.266       19.052       30.500        2.563      352.759       35.651      859.322
07/19/2013  16:00:00       94.536       54.417       16.523       35.690       24.105       28.163     1273.764      581.049      793.172        0.741        0.132      109.079       18.819        0.030      352.714       35.575      859.308
07/19/2013  16:01:00       65.623        3.430        5.718       40.333       25.727       29.468     1626.740      661.855      868.365        0.375        0.158       65.712       12.227        0.035      352.477       35.160      859.283
07/19/2013  16:02:00       56.754        8.414       14.783       29.700       25.217       26.906      882.114      635.878      723.912        0.288        0.112       57.374       13.546        0.056      351.966       34.266      859.258
07/19/2013  16:03:00       20.093       -4.499       10.681       39.197       61.440       41.751     1536.401     3774.839     1743.185        0.379        0.353       20.591       35.043        2.896      352.032       34.383      859.242
07/19/2013  16:04:00       46.203       -4.486       22.796       57.413       60.930       42.784     3296.208     3712.432     1830.508        0.576        0.442       46.420       34.623        0.556      352.351       34.940      859.224
07/19/2013  16:05:00       28.392       45.577      -16.956       25.694       21.971       26.146      660.176      482.723      683.613        0.250        0.091       53.697       14.181        0.070      352.392       35.010      859.235
07/19/2013  16:06:00      -19.882      102.221      -11.221       25.426       32.037       17.266      646.497     1026.395      298.099        0.647        0.099      104.136       14.279        0.019      352.946       35.980      859.232
07/19/2013  16:07:00      -82.964      152.379      -26.260       42.156       59.371       34.143     1777.113     3524.965     1165.749        1.863        0.323      173.500       27.360        0.025      353.163       36.358      859.226
07/19/2013  16:08:00      -93.812      179.068      -23.450       41.101       41.777       29.950     1689.263     1745.349      897.002        2.287        0.217      202.154       24.136        0.014      353.149       36.335      859.217
07/19/2013  16:09:00      -46.835      187.840      -27.033       57.537       89.035       27.326     3310.453     7927.310      746.724        2.509        0.599      193.591       34.042        0.031      353.193       36.411      859.220
07/19/2013  16:10:00      -81.205      200.453      -26.653       48.909       75.152       36.539     2392.092     5647.844     1335.125        2.843        0.469      216.277       36.457        0.028      353.160       36.353      859.204
07/19/2013  16:11:00       13.017      249.468      -31.077       58.355       69.973       39.955     3405.360     4896.191     1596.423        3.663        0.495      249.807       33.339        0.018      353.065       36.183      859.192
07/19/2013  16:12:00      -18.883      182.767      -18.085       55.502       75.838       37.534     3080.448     5751.446     1408.764        2.216        0.512      183.740       37.729        0.042      353.029       36.125      859.184
07/19/2013  16:13:00       12.052      208.472      -23.412       51.497       66.005       29.250     2651.968     4356.635      855.544        2.601        0.393      208.820       29.005        0.019      352.963       36.007      859.181
07/19/2013  16:14:00     -151.267      198.643      -35.573      132.415       69.604       41.776    17533.676     4844.661     1745.230        4.386        1.206      249.681       50.063        0.040      353.043       36.144      859.176
07/19/2013  16:15:00     -305.638       89.313      -35.241       80.077       53.865       47.992     6412.276     2901.422     2303.235        5.712        0.581      318.420       33.044        0.011      353.127       36.291      859.177
07/19/2013  16:16:00     -123.210       68.798      -17.993       93.759       48.928       37.663     8790.711     2393.910     1418.481        1.642        0.630      141.117       50.971        0.130      353.198       36.420      859.193
07/19/2013  16:17:00       51.480       34.158        3.577       24.306       25.255       26.331      590.789      637.802      693.327        0.288        0.096       61.781       14.488        0.055      352.907       35.913      859.196
07/19/2013  16:18:00      -29.622       47.664      -18.731       46.882       45.189       26.962     2197.887     2042.053      726.952        0.423        0.248       56.119       23.315        0.173      352.780       35.690      859.178
07/19/2013  16:19:00      -33.179       54.632        8.941       35.340       34.798       25.299     1248.951     1210.925      640.051        0.363        0.155       63.918       24.496        0.147      353.250       36.514      859.163
07/19/2013  16:20:00      -31.097       14.473        2.809       27.408       27.820       16.283      751.218      773.963      265.123        0.149        0.090       34.300        7.411        0.047      353.316       36.629      859.148
07/19/2013  16:21:00      -19.582       -1.286       11.749       51.909       47.499       19.802     2694.500     2256.201      392.125        0.293        0.267       19.624       21.438        1.193      353.102       36.254      859.136
07/19/2013  16:22:00       35.179       57.491       24.477       36.168       20.589       18.291     1308.122      423.907      334.576        0.360        0.103       67.401       11.962        0.032      352.872       35.850      859.132
07/19/2013  16:23:00       52.025       36.007       26.206       37.035       35.314       35.312     1371.557     1247.051     1246.944        0.428        0.193       63.270       27.513        0.189      351.730       33.853      859.119
07/19/2013  16:24:00      104.576       69.254       44.321       42.579       29.804       26.780     1812.976      888.301      717.168        1.056        0.171      125.428       18.485        0.022      352.278       34.811      859.110
07/19/2013  16:25:00       33.583       29.227       20.445       32.732       21.691       22.736     1071.388      470.511      516.909        0.223        0.103       44.520       11.157        0.063      352.182       34.646      859.104
07/19/2013  16:26:00        5.465       63.246        9.556       28.160       48.926       22.019      792.959     2393.728      484.843        0.390        0.184       63.482       15.824        0.062      352.318       34.882      859.090
07/19/2013  16:27:00       14.963      194.855      -35.134       33.633       45.984       25.947     1131.166     2114.501      673.230        2.167        0.196      195.429       26.774        0.019      353.083       36.219      859.084
07/19/2013  16:28:00        9.164      112.713      -12.265       39.170       38.248       25.293     1534.308     1462.891      639.745        0.829        0.182      113.085       14.820        0.017      353.158       36.353      859.077
07/19/2013  16:29:00       57.274       94.063        0.986       66.322       56.434       35.165     4398.645     3184.797     1236.596        1.047        0.441      110.128       31.534        0.082      353.144       36.328      859.071
07/19/2013  16:30:00       76.894       58.827       12.587       52.768       49.423       37.096     2784.467     2442.591     1376.105        0.807        0.330       96.816       28.248        0.085      352.700       35.549      859.063
07/19/2013  16:31:00       74.126       96.772        5.513       52.988       54.942       37.652     2807.734     3018.605     1417.692        1.107        0.362      121.899       30.381        0.062      353.108       36.264      859.060
07/19/2013  16:32:00      102.104       93.811       21.162       54.123       50.769       45.262     2929.321     2577.491     2048.660        1.361        0.378      138.657       32.986        0.057      353.117       36.279      859.049
07/19/2013  16:33:00       56.755       57.849        8.241       52.352       35.635       25.077     2740.770     1269.842      628.862        0.564        0.232       81.041       20.553        0.064      352.826       35.770      859.032
07/19/2013  16:34:00       84.241       83.571        8.043       65.662       48.232       37.533     4311.473     2326.346     1408.740        1.109        0.402      118.662       22.415        0.036      353.288       36.578      859.014
07/19/2013  16:35:00       30.324      196.760      -27.878       64.728       73.771       38.470     4189.675     5442.134     1479.927        2.576        0.556      199.083       40.476        0.041      353.195       36.413      859.006
07/19/2013  16:36:00      -34.529      257.673      -36.000       49.634       65.945       36.126     2463.518     4348.782     1305.055        3.850        0.406      259.976       35.715        0.019      353.066       36.186      858.996
07/19/2013  16:37:00       35.562       67.033        4.224       41.767       58.177       35.450     1744.460     3384.560     1256.728        0.608        0.319       75.882       24.711        0.106      353.222       36.463      859.004
07/19/2013  16:38:00      119.275       55.188       11.189       55.800       37.104       40.596     3113.598     1376.713     1648.054        1.177        0.307      131.424       20.514        0.024      352.603       35.381      858.991
07/19/2013  16:39:00       86.642       22.344       17.123       50.859       42.397       31.375     2586.618     1797.480      984.371        0.683        0.268       89.477       21.166        0.056      351.889       34.133      858.958
07/19/2013  16:40:00       51.953       46.535        6.479       46.441       54.999       36.491     2156.743     3024.870     1331.559        0.571        0.326       69.747       31.706        0.207      352.367       34.968      858.944
07/19/2013  16:41:00      198.874      125.003       13.254       60.217       50.559       41.951     3626.082     2556.177     1759.873        3.165        0.397      234.897       14.950        0.004      353.109       36.261      858.915
07/19/2013  16:42:00      183.588      104.324       26.342       80.458       67.975       53.179     6473.483     4620.595     2827.992        2.960        0.696      211.159       33.366        0.025      352.997       36.067      858.881
07/19/2013  16:43:00      105.286      157.765        6.445       96.164      103.533       67.446     9247.528    10719.051     4548.908        3.026        1.226      189.671       58.120        0.094      353.353       36.691      858.865
07/19/2013  16:44:00       90.241      246.339       -8.736      120.716       99.106       61.405    14572.333     9822.082     3770.605        4.853        1.408      262.347       55.689        0.045      353.324       36.637      858.868
07/19/2013  16:45:00       19.576       96.857      -11.018       80.929       97.732       46.812     6549.554     9551.513     2191.397        1.409        0.915       98.815       45.548        0.212      353.348       36.684      858.864
07/19/2013  16:46:00       -2.831      148.361      -19.813       43.337       65.416       24.349     1878.101     4279.238      592.892        1.458        0.338      148.388       20.811        0.020      353.316       36.627      858.857
07/19/2013  16:47:00       54.049       73.258       10.752       61.559       57.716       39.975     3789.500     3331.089     1598.023        0.856        0.436       91.039       35.122        0.149      353.327       36.648      858.839
07/19/2013  16:48:00       74.810      106.331        4.264       70.671       60.230       46.828     4994.392     3627.641     2192.836        1.387        0.541      130.010       32.848        0.064      353.452       36.866      858.825
07/19/2013  16:49:00       81.793       88.721        8.504       86.168       72.838       52.787     7424.918     5305.326     2786.459        1.507        0.776      120.671       39.103        0.105      353.449       36.861      858.802
07/19/2013  16:50:00      151.994      136.411        3.200       91.206       60.581       57.625     8318.482     3670.093     3320.698        2.851        0.765      204.231       34.719        0.029      353.295       36.589      858.807
07/19/2013  16:51:00      150.856       97.853       22.920       90.758       54.737       53.568     8236.935     2996.096     2869.512        2.348        0.705      179.813       19.189        0.011      353.249       36.509      858.770
07/19/2013  16:52:00      151.694      106.907       19.568      112.318       85.548       70.013    12615.317     7318.503     4901.875        2.982        1.242      185.581       57.664        0.097      353.333       36.656      858.756
07/19/2013  16:53:00      136.358      118.377       18.946      101.862       80.023       55.334    10375.948     6403.632     3061.866        2.640        0.992      180.574       44.270        0.060      353.108       36.260      858.754
07/19/2013  16:54:00       69.224      174.664       -7.867       53.388       78.393       58.401     2850.243     6145.414     3410.666        2.388        0.620      187.882       57.073        0.092      353.127       36.295      858.768
07/19/2013  16:55:00      130.358      143.491       -0.220       82.969       70.679       56.418     6883.936     4995.520     3182.938        2.632        0.753      193.864       43.734        0.051      353.233       36.480      858.759
07/19/2013  16:56:00      175.477      123.667        7.917       64.829       49.396       42.457     4202.833     2439.941     1802.556        2.730        0.422      214.676       23.589        0.012      353.193       36.411      858.736
07/19/2013  16:57:00      185.107      134.945       21.796      114.597       71.201       65.486    13132.551     5069.616     4288.371        3.772        1.125      229.074       39.986        0.030      353.059       36.174      858.700
07/19/2013  16:58:00       47.109      121.076       12.730       84.790      104.988       61.471     7189.261    11022.392     3778.625        1.951        1.100      129.917       50.258        0.150      353.262       36.531      858.672
07/19/2013  16:59:00      164.995      144.620       16.551      105.135       65.380       62.971    11053.330     4274.482     3965.356        3.385        0.965      219.404       32.496        0.022      353.342       36.670      858.661
07/19/2013  17:00:00      179.766      106.938       27.053       87.017       71.688       49.689     7571.934     5139.196     2468.962        2.983        0.759      209.168       29.793        0.020      353.137       36.311      858.644
07/19/2013  17:01:00       64.670       -1.288       15.855       60.762       80.048       43.946     3692.017     6407.617     1931.290        0.823        0.602       64.683       42.735        0.437      352.589       35.357      858.661
07/19/2013  17:02:00       41.768      -27.050       -3.805       50.480       59.768       35.914     2548.225     3572.253     1289.791        0.495        0.371       49.762       36.005        0.524      352.460       35.131      858.665
07/19/2013  17:03:00       18.131      -21.503        2.909       38.281       30.408       26.744     1465.414      924.617      715.227        0.195        0.155       28.127       18.393        0.428      352.918       35.932      858.681
07/19/2013  17:04:00       20.410      -56.260       22.359       45.268       65.294       38.101     2049.175     4263.243     1451.689        0.592        0.388       59.848       42.768        0.511      352.975       36.031      858.682
07/19/2013  17:05:00        0.208        5.765       34.777       29.566       33.661       28.791      874.140     1133.036      828.944        0.204        0.142        5.768       23.485       16.576      352.698       35.547      858.688
07/19/2013  17:06:00       -3.883      -29.736       18.688       41.734       59.482       28.441     1741.706     3538.056      808.867        0.367        0.304       29.988       24.487        0.667      352.380       34.990      858.685
07/19/2013  17:07:00        8.380      -18.888       -0.690       40.179       21.749       21.328     1614.360      473.005      454.890        0.148        0.127       20.663       10.825        0.274      351.907       34.165      858.662
07/19/2013  17:08:00     -166.022      -54.544       -6.912       57.416       56.474       28.770     3296.547     3189.311      827.693        1.895        0.366      174.752       12.608        0.005      353.286       36.574      858.651
07/19/2013  17:09:00     -253.138     -139.085       -1.167      110.055       91.294       51.724    12112.046     8334.567     2675.383        5.327        1.156      288.831       54.225        0.035      353.110       36.264      858.617
07/19/2013  17:10:00      -96.846      -57.201       20.238      102.595       78.302       40.046    10525.728     6131.138     1603.651        1.566        0.913      112.477       46.596        0.172      352.940       35.968      858.612
07/19/2013  17:11:00     -144.011      -98.014       -4.878       99.007       52.200       35.493     9802.305     2724.882     1259.759        2.208        0.689      174.201       40.678        0.055      353.137       36.313      858.607
07/19/2013  17:12:00      -89.297      -71.327        1.939       56.888       49.568       30.183     3236.295     2457.001      910.986        0.983        0.330      114.287       24.279        0.045      353.103       36.255      858.605
07/19/2013  17:13:00      -41.120      -46.462       14.630       46.752       42.925       23.788     2185.789     1842.587      565.887        0.433        0.230       62.045       20.736        0.112      353.119       36.284      858.600
07/19/2013  17:14:00       -2.511      -68.120        6.697       42.896       55.200       27.739     1840.075     3047.026      769.474        0.517        0.283       68.166       24.511        0.129      352.976       36.035      858.600
07/19/2013  17:15:00       29.863     -100.857       -6.229       64.700       65.556       33.984     4186.038     4297.621     1154.934        1.037        0.482      105.186       31.835        0.092      352.894       35.889      858.585
07/19/2013  17:16:00       31.274     -130.552      -20.054       78.348       61.993       40.889     6138.453     3843.175     1671.882        1.504        0.583      134.246       36.605        0.074      352.903       35.903      858.570
07/19/2013  17:17:00       79.075     -167.859      -23.859       52.492       72.123       43.765     2755.403     5201.723     1915.414        2.243        0.494      185.552       37.007        0.040      352.771       35.672      858.560
07/19/2013  17:18:00       65.898     -148.871       -9.997       62.614       47.299       40.723     3920.530     2237.179     1658.326        1.721        0.391      162.804       26.074        0.026      352.882       35.867      858.560
07/19/2013  17:19:00       31.522      -68.886       10.748       39.600       51.339       30.958     1568.182     2635.650      958.425        0.551        0.258       75.756       26.490        0.122      352.704       35.557      858.550
07/19/2013  17:20:00       57.222     -150.916       -5.402       56.276      106.147       44.690     3166.985    11267.094     1997.176        2.125        0.822      161.400       60.144        0.139      352.756       35.646      858.532
07/19/2013  17:21:00       13.290      -15.082       27.615       27.199       46.144       26.505      739.780     2129.248      702.506        0.237        0.179       20.102       28.371        1.992      352.581       35.341      858.531
07/19/2013  17:22:00       30.687      -92.201        0.193       36.346       48.809       31.186     1321.064     2382.336      972.555        0.706        0.234       97.174       24.311        0.063      352.604       35.382      858.517
07/19/2013  17:23:00       36.045      -72.456       -3.492       47.958       41.786       18.385     2299.940     1746.081      338.005        0.547        0.219       80.927       21.567        0.071      352.894       35.891      858.513
07/19/2013  17:24:00      -61.441      -87.403       -0.825       35.619       46.172       20.494     1268.721     2131.853      420.017        0.762        0.191      106.838       11.815        0.012      352.961       36.007      858.517
07/19/2013  17:25:00      -83.043     -108.100        9.348       62.136       73.875       37.550     3860.941     5457.573     1410.032        1.470        0.536      136.315       34.253        0.063      352.965       36.014      858.490
07/19/2013  17:26:00     -153.488      -21.746        1.971       86.606       65.308       35.095     7500.578     4265.104     1231.646        1.851        0.650      155.021       38.079        0.060      352.991       36.058      858.485
07/19/2013  17:27:00      -93.680        6.938       -1.784       43.978       37.274       24.693     1934.085     1389.376      609.721        0.638        0.197       93.936       24.972        0.071      352.991       36.059      858.481
07/19/2013  17:28:00     -143.382      -17.075       -7.809       50.545       35.447       25.123     2554.807     1256.477      631.169        1.268        0.222      144.395       28.894        0.040      353.133       36.306      858.492
07/19/2013  17:29:00      -86.880      -10.511       -2.524       47.604       29.721       21.030     2266.110      883.363      442.276        0.563        0.180       87.513       29.754        0.116      353.155       36.346      858.496
07/19/2013  17:30:00     -140.409       25.342       -6.241       45.273       44.188       28.932     2049.609     1952.610      837.056        1.262        0.242      142.677       24.531        0.030      353.149       36.337      858.501
07/19/2013  17:31:00     -177.841        6.595      -20.594       49.395       31.364       22.537     2439.901      983.708      507.933        1.801        0.197      177.963       20.852        0.014      353.271       36.548      858.500
07/19/2013  17:32:00      -47.674      -17.693      -12.171       83.239       37.781       26.766     6928.809     1427.411      716.441        0.590        0.454       50.851       27.412        0.291      352.954       35.994      858.502
07/19/2013  17:33:00      -45.313       26.685        3.719       41.737       70.797       25.137     1741.992     5012.182      631.893        0.508        0.369       52.586       24.242        0.213      352.808       35.739      858.511
07/19/2013  17:34:00      -78.896      145.708      -11.449       76.524       74.776       33.973     5855.926     5591.432     1154.196        2.009        0.630      165.697       31.603        0.036      352.954       35.992      858.518
07/19/2013  17:35:00      -95.086      139.274       -5.274       89.873      112.452       47.859     8077.227    12645.470     2290.452        2.574        1.151      168.638       51.997        0.095      353.162       36.355      858.519
07/19/2013  17:36:00     -220.297       23.079      -24.688       84.831      118.415       43.303     7196.382    14022.186     1875.190        3.638        1.155      221.503       32.674        0.022      353.369       36.717      858.495
07/19/2013  17:37:00     -254.435      -89.255        2.325      156.533      118.139       66.237    24502.462    13956.796     4387.283        5.777        2.142      269.636       62.926        0.054      353.114       36.271      858.427
07/19/2013  17:38:00      197.014      107.701       57.620      145.901       79.910       86.505    21287.025     6385.529     7483.119        4.444        1.758      224.531       41.793        0.035      352.869       35.841      858.356
07/19/2013  17:39:00       90.283       43.989       94.134      122.257      170.745      111.939    14946.884    29153.945    12530.400        3.778        2.832      100.430       86.309        0.739      352.842       35.795      858.140
07/19/2013  17:40:00     -166.711      -97.098       -4.959      295.953      179.589       86.144    87587.913    32252.061     7420.820        8.223        6.363      192.927       43.739        0.051      353.112       36.268      857.903
07/19/2013  17:41:00     -522.945     -124.208      -17.385      304.143      235.264      110.318    92502.952    55349.169    12169.990       22.458        8.001      537.494      122.333        0.052      353.189       36.401      858.041
07/19/2013  17:42:00     -227.498       52.161      -17.324      151.764       94.668       67.122    23032.162     8962.068     4505.358        4.563        1.825      233.402       65.784        0.079      353.567       37.066      858.394
07/19/2013  17:43:00     -174.999       33.991      -19.463       94.486       80.449       50.130     8927.692     6471.992     2512.967        2.503        0.896      178.270       40.066        0.051      353.592       37.111      858.489
07/19/2013  17:44:00     -223.951       95.906      -39.806       87.510      107.497       52.850     7657.946    11555.705     2793.168        4.147        1.100      243.622       46.218        0.036      353.228       36.471      858.532
07/19/2013  17:45:00       -2.046     -125.666      -10.231       72.671       88.439       37.365     5281.122     7821.380     1396.168        1.520        0.725      125.683       40.322        0.103      352.833       35.780      858.425
07/19/2013  17:46:00      -41.105     -125.758      -18.280      106.880       89.582       52.107    11423.345     8024.946     2715.109        2.000        1.108      132.306       48.680        0.135      353.132       36.304      858.258
07/19/2013  17:47:00      -21.363     -141.790       -6.662      131.355      112.711       64.423    17254.224    12703.690     4150.350        2.735        1.705      143.391       64.509        0.202      353.074       36.200      858.302
07/19/2013  17:48:00     -139.128      -36.802        6.385      124.251       83.066       41.896    15438.367     6899.937     1755.292        2.242        1.205      143.913       36.555        0.065      353.275       36.554      858.350
07/19/2013  17:49:00     -271.564     -130.408       -4.363      136.575      124.683       69.764    18652.720    15545.863     4866.962        6.491        1.953      301.253       72.103        0.057      353.216       36.448      858.392
07/19/2013  17:50:00     -283.777      -72.450       -2.405      166.255      108.169       65.813    27640.689    11700.563     4331.293        6.472        2.184      292.880       66.470        0.052      353.355       36.692      858.415
07/19/2013  17:51:00     -439.238      -43.169      -26.118      150.367      130.121       72.885    22610.125    16931.391     5312.294       12.016        2.243      441.354       78.537        0.032      353.267       36.536      858.421
07/19/2013  17:52:00     -357.735      -53.183      -15.834      166.725       94.408       69.042    27797.071     8912.897     4766.779        8.626        2.074      361.667       87.183        0.058      353.391       36.758      858.409
07/19/2013  17:53:00     -177.063      -57.204        6.789      159.794       99.641       47.959    25534.094     9928.254     2300.045        3.621        1.888      186.074       62.754        0.114      353.368       36.717      858.407
07/19/2013  17:54:00     -315.136      -89.878      -17.772      120.038       80.611       53.571    14409.221     6498.112     2869.836        6.574        1.189      327.703       46.644        0.020      353.354       36.690      858.394
07/19/2013  17:55:00     -338.123      -30.255      -26.169      203.110      113.484       63.036    41253.704    12878.569     3973.536        8.700        2.905      339.474       70.412        0.043      353.391       36.755      858.389
07/19/2013  17:56:00     -471.348       30.711      -59.319      131.121      105.590       57.597    17192.648    11149.325     3317.403       12.914        1.583      472.347       50.268        0.011      353.265       36.534      858.393
07/19/2013  17:57:00     -258.730      -77.341      -35.827      167.387       99.559       63.440    28018.448     9911.896     4024.606        5.807        2.098      270.043       67.499        0.062      353.366       36.712      858.379
07/19/2013  17:58:00     -127.712       31.496        4.985      153.625      106.597       67.250    23600.787    11362.904     4522.568        2.840        1.974      131.539       64.423        0.240      353.396       36.766      858.359
07/19/2013  17:59:00     -420.537      -84.686      -29.745      190.368      156.447       79.866    36240.032    24475.692     6378.559       12.599        3.355      428.979       88.656        0.043      353.390       36.755      858.374
07/19/2013  18:00:00     -535.659     -222.889      -16.938      265.800      192.428      110.291    70649.854    37028.690    12164.038       22.835        5.992      580.181      125.867        0.047      353.196       36.413      858.385
07/19/2013  18:01:00     -633.777     -196.321       -7.434      220.581      192.537      109.472    48656.004    37070.624    11984.075       26.897        4.886      663.487      106.816        0.026      353.062       36.178      858.389
07/19/2013  18:02:00     -492.799     -199.397      -38.664      202.743      182.084       97.109    41104.876    33154.524     9430.179       18.388        4.184      531.611      104.561        0.039      353.005       36.079      858.426
07/19/2013  18:03:00     -365.616     -139.901      -11.318      172.853      153.765       71.989    29878.114    23643.711     5182.414       10.603        2.935      391.468       75.786        0.037      353.136       36.308      858.437
07/19/2013  18:04:00     -292.209      -67.282       -5.916      148.057      106.424       63.027    21920.941    11326.147     3972.416        6.358        1.861      299.855       74.358        0.061      353.141       36.318      858.449
07/19/2013  18:05:00     -255.159      -99.271        3.812      158.484      115.553       75.014    25117.180    13352.586     5627.120        5.953        2.205      273.790       77.192        0.079      353.206       36.431      858.460
07/19/2013  18:06:00     -225.935      -82.027       -0.024      140.051      132.187       70.455    19614.244    17473.465     4963.864        4.990        2.103      240.365       80.507        0.112      353.292       36.582      858.443
07/19/2013  18:07:00     -461.606     -101.355      -29.932      166.777      134.497       79.807    27814.676    18089.343     6369.107       13.825        2.614      472.602       79.919        0.029      353.269       36.543      858.452
07/19/2013  18:08:00     -317.627     -151.186      -14.414      142.818      148.662       68.276    20397.056    22100.329     4661.613        8.555        2.358      351.772       59.057        0.028      353.161       36.352      858.434
07/19/2013  18:09:00     -224.933       -3.396       -1.004      104.932       86.235       47.512    11010.759     7436.459     2257.349        3.565        1.035      224.959       44.650        0.039      353.257       36.522      858.428
07/19/2013  18:10:00     -172.863       15.827       -6.612       83.762      112.793       42.573     7016.018    12722.349     1812.431        2.586        1.078      173.586       34.577        0.040      353.185       36.395      858.444
07/19/2013  18:11:00     -439.926      -16.431      -33.283      131.717      137.424       61.390    17349.343    18885.445     3768.727       11.745        2.000      440.233       51.514        0.014      353.101       36.247      858.438
07/19/2013  18:12:00     -477.317      -79.010      -36.058      195.791      163.335       93.512    38334.042    26678.161     8744.467       15.455        3.688      483.812       87.124        0.032      353.043       36.145      858.461
07/19/2013  18:13:00     -282.463      -80.793      -23.535      121.928      119.564       67.569    14866.339    14295.466     4565.606        6.029        1.686      293.790       54.476        0.034      353.121       36.281      858.490
07/19/2013  18:14:00     -283.376     -121.539      -21.354      121.401       96.372       60.671    14738.204     9287.637     3680.941        6.161        1.385      308.340       58.569        0.036      353.167       36.362      858.516
07/19/2013  18:15:00     -224.261      -55.690        2.760       97.755      100.206       52.899     9556.078    10041.150     2798.300        3.789        1.120      231.072       55.214        0.057      353.206       36.431      858.528
07/19/2013  18:16:00     -379.111      -28.272      -47.001      106.174      112.305       62.182    11272.834    12612.436     3866.632        8.724        1.388      380.164       43.971        0.013      353.104       36.252      858.523
07/19/2013  18:17:00     -350.073      -40.573      -11.102      136.317       99.865       61.644    18582.258     9972.975     3800.033        7.833        1.618      352.416       68.260        0.038      353.138       36.311      858.525
07/19/2013  18:18:00     -371.075      -57.794      -14.457      138.213      159.725       76.162    19102.879    25512.095     5800.604        9.582        2.521      375.549       76.071        0.041      353.049       36.156      858.532
07/19/2013  18:19:00     -201.595        5.054       -1.914      148.393      115.049       73.119    22020.419    13236.206     5346.374        4.063        2.030      201.658       86.474        0.184      352.980       36.036      858.519
07/19/2013  18:20:00     -316.093      262.216      -48.342      188.089      178.829       98.834    35377.318    31979.708     9768.231       12.405        3.856      410.697      101.161        0.061      352.969       36.016      858.487
07/19/2013  18:21:00     -266.326       75.077      -21.587      120.727      161.084       74.983    14574.932    25947.937     5622.384        6.158        2.307      276.706       55.489        0.040      353.020       36.105      858.497
07/19/2013  18:22:00     -223.437      -35.343       -4.326      111.457       76.698       42.942    12422.577     5882.573     1844.038        3.567        1.007      226.215       42.116        0.035      353.153       36.339      858.519
07/19/2013  18:23:00     -127.493      -12.785        0.278       55.670       59.967       29.183     3099.168     3596.063      851.661        1.198        0.377      128.133       19.181        0.022      353.183       36.395      858.513
07/19/2013  18:24:00     -151.601      -26.949       -3.403       95.944       57.721       33.647     9205.258     3331.720     1132.109        1.869        0.683      153.977       41.589        0.073      353.162       36.356      858.509
07/19/2013  18:25:00     -139.632      -47.934        7.168      110.903       88.354       53.708    12299.470     7806.481     2884.504        2.241        1.150      147.631       47.539        0.104      353.159       36.350      858.486
07/19/2013  18:26:00     -279.318      -51.949        3.859      176.657      104.223       72.284    31207.861    10862.374     5225.039        6.400        2.365      284.108       85.762        0.091      353.207       36.433      858.489
07/19/2013  18:27:00     -356.419      -61.336      -14.668      144.129      111.559       68.770    20773.088    12445.383     4729.320        8.447        1.897      361.658       77.719        0.046      353.131       36.301      858.509
07/19/2013  18:28:00     -424.440       -3.500      -33.337      194.592      113.244       85.505    37866.199    12824.209     7311.068       11.963        2.900      424.455       89.805        0.045      353.119       36.278      858.498
07/19/2013  18:29:00     -464.528      -62.841      -26.269      138.872      145.566       70.383    19285.307    21189.323     4953.813       13.292        2.271      468.759       67.499        0.021      353.067       36.189      858.509
07/19/2013  18:30:00     -348.727      -18.450      -18.533      164.940      120.276       62.075    27205.083    14466.209     3853.324        8.390        2.276      349.215       71.430        0.042      353.099       36.245      858.511
07/19/2013  18:31:00     -322.790     -197.888      -19.029      145.524      110.902       70.275    21177.218    12299.206     4938.551        9.106        1.921      378.619       65.274        0.030      353.029       36.119      858.515
07/19/2013  18:32:00     -308.904     -159.701      -10.858      146.955      111.903       59.671    21595.863    12522.178     3560.603        7.935        1.884      347.744       65.741        0.036      352.995       36.062      858.501
07/19/2013  18:33:00     -186.477      -58.647       -4.663      113.429       97.228       43.062    12866.245     9453.324     1854.343        3.120        1.209      195.481       45.059        0.053      353.157       36.347      858.508
07/19/2013  18:34:00     -404.172       21.259      -33.896      152.263      125.377       71.386    23183.937    15719.271     5095.915       10.447        2.200      404.731       75.289        0.035      353.006       36.080      858.501
07/19/2013  18:35:00     -312.693       18.811      -16.369      172.954      116.387       68.999    29913.014    13545.892     4760.914        7.330        2.411      313.259       78.346        0.063      353.066       36.186      858.504
07/19/2013  18:36:00     -369.022     -147.981        2.839      252.523      188.442       90.078    63767.945    35510.409     8114.059       13.272        5.370      397.587      119.669        0.091      352.972       36.023      858.490
07/19/2013  18:37:00     -369.821     -116.219       -6.968      171.061      161.499       80.525    29261.859    26082.084     6484.199       10.606        3.091      387.652       90.722        0.055      352.943       35.971      858.497
07/19/2013  18:38:00     -260.694      -78.177       -2.966      147.237      118.540       50.931    21678.701    14051.820     2593.920        5.620        1.916      272.163       58.348        0.046      353.054       36.166      858.509
07/19/2013  18:39:00     -308.580      -40.683      -10.395      195.487      117.628       68.795    38215.323    13836.288     4732.743        7.687        2.839      311.251       66.361        0.045      352.994       36.060      858.523
07/19/2013  18:40:00     -280.598       17.005       -3.504      172.573      126.765       74.815    29781.287    16069.408     5597.278        6.523        2.572      281.113       82.272        0.086      353.004       36.078      858.530
07/19/2013  18:41:00     -424.598     -115.544      -25.380      133.976      141.160       78.271    17949.464    19926.259     6126.402       11.913        2.200      440.039       76.468        0.030      352.848       35.803      858.519
07/19/2013  18:42:00     -373.204      -59.767      -23.318      114.819      125.120       58.826    13183.494    15654.931     3460.463        8.784        1.615      377.959       60.912        0.026      352.820       35.755      858.509
07/19/2013  18:43:00     -219.705     -119.444      -10.748      127.975       95.113       54.534    16377.499     9046.555     2973.987        4.552        1.420      250.074       55.900        0.050      352.881       35.863      858.530
07/19/2013  18:44:00     -284.560      -24.277       -8.564      115.930       90.555       57.684    13439.842     8200.208     3327.415        5.330        1.248      285.593       45.420        0.025      352.910       35.912      858.532
07/19/2013  18:45:00     -205.784     -146.643       -4.106      134.146       88.449       55.163    17995.152     7823.249     3042.970        4.636        1.443      252.688       43.257        0.029      352.967       36.013      858.527
07/19/2013  18:46:00     -229.801      -77.830      -19.615      149.320       94.967       51.014    22296.340     9018.748     2602.445        4.658        1.696      242.623       56.445        0.054      352.956       35.994      858.513
07/19/2013  18:47:00     -200.685      -72.313       -3.515      107.571       78.632       44.689    11571.551     6182.933     1997.083        3.263        0.988      213.316       48.548        0.052      352.923       35.937      858.507
07/19/2013  18:48:00     -280.211      -59.707      -13.958      124.779       88.459       44.241    15569.705     7825.052     1957.262        5.381        1.268      286.502       43.006        0.023      352.858       35.821      858.501
07/19/2013  18:49:00     -284.666      -79.750        2.476      143.450       89.665       53.291    20578.033     8039.813     2839.910        5.942        1.573      295.626       59.360        0.040      352.884       35.866      858.517
07/19/2013  18:50:00     -200.010      -41.149        5.847      129.528       77.966       52.313    16777.463     6078.741     2736.630        3.366        1.280      204.199       46.790        0.053      352.933       35.955      858.524
07/19/2013  18:51:00     -171.744      -55.697       10.838      128.298      106.569       57.658    16460.342    11356.963     3324.469        3.192        1.557      180.550       66.974        0.138      352.793       35.709      858.526
07/19/2013  18:52:00     -223.767     -208.865        7.860      183.826      158.024       81.878    33792.128    24971.691     6704.016        7.960        3.273      306.098       84.743        0.077      352.776       35.679      858.504
07/19/2013  18:53:00     -308.020     -222.628        6.488      197.257      155.423       87.433    38910.488    24156.415     7644.522       10.758        3.536      380.052       83.192        0.048      352.677       35.504      858.478
07/19/2013  18:54:00     -346.134     -241.853        2.243      170.065      131.601       78.435    28922.064    17318.811     6152.064       11.534        2.620      422.258       80.847        0.037      352.635       35.431      858.478
07/19/2013  18:55:00     -278.640     -205.628       -4.830      151.369      135.771       77.852    22912.465    18433.630     6060.967        8.367        2.370      346.300       82.171        0.056      352.663       35.482      858.485
07/19/2013  18:56:00     -409.028     -203.709       -5.286      203.432      150.535       93.648    41384.622    22660.715     8769.949       14.081        3.641      456.948       93.459        0.042      352.657       35.470      858.470
07/19/2013  18:57:00     -334.309     -313.510       -2.946      229.800      171.853       93.833    52808.141    29533.558     8804.567       15.059        4.557      458.314      102.001        0.050      352.628       35.419      858.457
07/19/2013  18:58:00     -421.940     -325.184      -20.963      242.110      178.534      118.457    58617.265    31874.397    14032.070       19.435        5.226      532.708      139.461        0.069      352.590       35.352      858.440
07/19/2013  18:59:00     -241.285     -121.758       17.575      207.058      124.602       92.930    42873.039    15525.649     8635.910        7.018        3.352      270.266      102.107        0.143      352.599       35.369      858.465
07/19/2013  19:00:00     -179.863     -125.086       -2.091      153.372      117.759       61.196    23523.044    13867.148     3744.948        4.456        2.057      219.082       73.444        0.112      352.647       35.453      858.477
07/19/2013  19:01:00     -338.162     -155.015       -3.032      124.048      136.909       80.219    15387.905    18744.102     6435.160        8.947        2.028      371.999       65.830        0.031      352.615       35.396      858.489
07/19/2013  19:02:00     -334.562     -173.632       -3.599      184.774      136.701       84.693    34141.257    18687.118     7172.864       10.104        3.000      376.935      100.269        0.071      352.576       35.328      858.494
07/19/2013  19:03:00     -166.835     -149.675       12.835      156.073      145.594       80.040    24358.920    21197.673     6406.449        5.117        2.598      224.135       80.958        0.130      352.571       35.321      858.499
07/19/2013  19:04:00     -257.552      -64.663       -9.915      169.463      127.975       69.853    28717.860    16377.505     4879.396        6.028        2.499      265.546       77.641        0.085      352.604       35.377      858.484
07/19/2013  19:05:00     -200.281      -66.530        6.943      137.038      119.444       70.366    18779.416    14266.767     4951.349        4.128        1.900      211.042       80.566        0.146      352.616       35.400      858.523
07/19/2013  19:06:00     -302.350     -163.789      -27.904      147.952      136.114       76.653    21889.757    18526.892     5875.701        8.265        2.315      343.864       77.669        0.051      352.583       35.341      858.551
07/19/2013  19:07:00     -229.186     -112.918       -4.530      145.658      139.629       76.993    21216.108    19496.139     5927.921        5.596        2.332      255.493       77.440        0.092      352.536       35.258      858.533
07/19/2013  19:08:00     -206.086     -121.857        5.250      179.414      113.731       62.662    32189.508    12934.766     3926.560        5.319        2.453      239.417       75.604        0.100      352.552       35.287      858.534
07/19/2013  19:09:00     -203.727      -57.140       10.319      156.371      112.958       55.491    24452.013    12759.403     3079.240        4.258        2.015      211.589       68.239        0.104      352.523       35.237      858.537
07/19/2013  19:10:00     -289.428     -108.964        4.695      154.855      143.524       76.667    23980.114    20599.279     5877.862        7.305        2.523      309.260       72.961        0.056      352.526       35.242      858.536
07/19/2013  19:11:00     -374.244     -176.559      -12.307      174.471      144.087       79.011    30440.112    20760.968     6242.700       11.440        2.872      413.801       75.083        0.033      352.489       35.176      858.543
07/19/2013  19:12:00     -296.341     -194.605      -11.450      152.912       95.013       69.585    23381.952     9027.403     4842.004        8.153        1.863      354.527       61.600        0.030      352.481       35.163      858.533
07/19/2013  19:13:00     -285.408     -233.344        8.302      213.385      132.780       78.379    45533.118    17630.603     6143.238       10.263        3.465      368.656      100.963        0.075      352.472       35.146      858.539
07/19/2013  19:14:00     -275.196     -206.012        0.112      126.720      142.167       68.842    16057.985    20211.485     4739.202        7.958        2.050      343.764       62.070        0.033      352.472       35.146      858.561
07/19/2013  19:15:00     -266.393     -213.925      -17.579      133.547       82.385       55.903    17834.929     6787.331     3125.161        7.239        1.387      341.656       43.589        0.016      352.484       35.166      858.571
07/19/2013  19:16:00     -348.776     -155.046       -8.628      190.545      135.353       62.648    36307.448    18320.383     3924.714       10.214        2.928      381.685       62.836        0.027      352.485       35.170      858.578
07/19/2013  19:17:00     -303.945     -139.656       -2.515      210.320      127.522       87.140    44234.701    16261.952     7593.304        8.998        3.404      334.494      100.552        0.090      352.447       35.103      858.564
07/19/2013  19:18:00     -274.037     -126.968        2.756      198.640      157.588       92.183    39457.913    24834.033     8497.736        8.199        3.639      302.022       98.722        0.107      352.434       35.080      858.578
07/19/2013  19:19:00     -190.571     -114.428       11.775      188.268      168.566       86.909    35444.811    28414.388     7553.217        6.047        3.571      222.286      108.213        0.237      352.414       35.046      858.589
07/19/2013  19:20:00     -246.135     -177.604       -1.466      198.218      157.324      102.059    39290.318    24750.730    10416.093        8.328        3.723      303.521      107.950        0.126      352.392       35.008      858.608
07/19/2013  19:21:00     -242.897     -125.544        1.562      233.329      145.410       98.692    54442.353    21143.926     9740.144        8.003        4.266      273.423      119.144        0.190      352.409       35.037      858.621
07/19/2013  19:22:00     -318.348     -179.030       -5.637      244.985      176.180       92.383    60017.521    31039.250     8534.706       11.649        4.980      365.235      132.077        0.131      352.374       34.976      858.634
07/19/2013  19:23:00     -253.601      -44.424       20.699      210.241      120.562       85.889    44201.458    14535.260     7376.989        6.640        3.306      257.462      104.402        0.164      352.431       35.075      858.665
07/19/2013  19:24:00     -260.101      -72.384       -1.821      117.760      103.925       58.458    13867.425    10800.494     3417.319        5.048        1.404      269.985       51.161        0.036      352.436       35.083      858.696
07/19/2013  19:25:00     -189.588      -40.945       14.826      155.214      115.685       65.761    24091.277    13383.062     4324.518        3.981        2.090      193.959       78.827        0.165      352.316       34.875      858.712
07/19/2013  19:26:00     -225.090      -47.624      -10.631      113.555       88.135       67.229    12894.712     7767.712     4519.745        3.911        1.259      230.073       64.196        0.078      352.380       34.986      858.741
07/19/2013  19:27:00     -193.809      -90.211        6.694      111.546      111.018       59.589    12442.509    12325.099     3550.877        3.703        1.416      213.776       63.708        0.089      352.341       34.918      858.754
07/19/2013  19:28:00     -242.934     -103.885      -22.801      132.110      114.211       69.812    17452.984    13044.108     4873.744        5.284        1.769      264.214       67.131        0.065      352.338       34.913      858.755
07/19/2013  19:29:00     -384.234     -140.948       -8.178      195.135      174.435       71.742    38077.735    30427.674     5146.852       12.060        3.683      409.270       84.204        0.042      352.264       34.784      858.766
07/19/2013  19:30:00     -276.973      -31.194        3.757      171.466      108.829       65.730    29400.643    11843.757     4320.455        6.162        2.278      278.724       83.421        0.090      352.255       34.767      858.785
07/19/2013  19:31:00     -301.824     -145.208        2.742      121.303      116.247       64.407    14714.496    13513.460     4148.232        7.228        1.619      334.937       61.544        0.034      352.310       34.863      858.794
07/19/2013  19:32:00     -240.212      -33.724       10.692      117.962       90.264       68.723    13915.025     8147.671     4722.788        4.286        1.339      242.567       73.258        0.091      352.264       34.784      858.801
07/19/2013  19:33:00     -292.317     -116.261      -13.392      171.217      119.809       76.817    29315.134    14354.081     5900.787        7.435        2.479      314.588       77.602        0.061      352.257       34.772      858.818
07/19/2013  19:34:00     -327.397     -100.635       -0.540      215.373      130.044       73.662    46385.714    16911.414     5426.107        9.301        3.436      342.514       77.736        0.052      352.209       34.686      858.828
07/19/2013  19:35:00     -318.852      -90.873        4.361      183.390      130.690       73.200    33631.839    17079.983     5358.216        8.300        2.804      331.548       81.028        0.060      352.180       34.635      858.844
07/19/2013  19:36:00     -254.055     -126.565       -7.353      183.159      115.039       68.292    33547.075    13234.057     4663.756        6.602        2.572      283.836       79.146        0.078      352.159       34.601      858.864
07/19/2013  19:37:00     -378.237     -152.385      -26.032      187.299      115.978       75.314    35080.931    13450.833     5672.142       11.057        2.710      407.780       69.641        0.029      352.142       34.568      858.876
07/19/2013  19:38:00     -386.013     -130.754      -12.135      187.047      151.728       83.070    34986.545    23021.474     6900.705       11.557        3.245      407.557       90.792        0.050      352.159       34.599      858.901
07/19/2013  19:39:00     -391.555     -131.073       -5.656      201.286      134.707       74.010    40515.894    18145.996     5477.523       11.732        3.207      412.911       74.888        0.033      352.136       34.558      858.885
07/19/2013  19:40:00     -343.132      -96.941      -15.208      143.505      107.283       66.389    20593.688    11509.716     4407.543        8.193        1.826      356.563       72.741        0.042      352.122       34.535      858.923
07/19/2013  19:41:00     -251.779      -95.733       -0.383      144.145       92.852       52.409    20777.693     8621.496     2746.724        5.235        1.607      269.365       61.802        0.053      352.090       34.479      858.931
07/19/2013  19:42:00     -226.067      -80.574        5.388      154.402      106.182       66.653    23839.825    11274.592     4442.607        4.858        1.978      239.997       50.828        0.045      351.984       34.292      858.936
07/19/2013  19:43:00     -355.719      -40.497      -18.405      166.294      130.383       71.416    27653.579    16999.726     5100.245        8.912        2.488      358.016       71.143        0.039      352.116       34.523      858.936
07/19/2013  19:44:00     -376.566     -149.567      -10.405      251.436      189.793       86.286    63219.929    36021.547     7445.312       13.546        5.334      405.182      118.058        0.085      352.045       34.401      858.925
07/19/2013  19:45:00     -400.980      -20.756      -23.399      163.966      117.235       65.914    26885.009    13743.993     4344.672       10.336        2.249      401.517       65.443        0.027      352.047       34.404      858.927
07/19/2013  19:46:00     -427.637     -103.637      -17.145      150.486      135.518       67.331    22645.975    18365.130     4533.474       11.972        2.277      440.016       57.574        0.017      352.038       34.386      858.920
07/19/2013  19:47:00     -339.230      -35.487      -19.157      149.271      117.146       56.708    22281.873    13723.092     3215.776        7.795        1.961      341.082       55.625        0.027      352.014       34.344      858.928
07/19/2013  19:48:00     -234.127      -93.059       11.764      183.788      119.312       67.439    33778.135    14235.455     4548.085        5.808        2.628      251.944       81.355        0.104      351.884       34.119      858.922
07/19/2013  19:49:00     -300.334      -79.134        7.250      155.469      116.739       65.114    24170.536    13628.022     4239.786        6.927        2.102      310.584       69.874        0.051      351.923       34.186      858.920
07/19/2013  19:50:00     -353.494      -38.806      -18.819      121.424      112.656       59.469    14743.872    12691.361     3536.613        7.889        1.549      355.617       55.610        0.024      351.926       34.191      858.927
07/19/2013  19:51:00     -241.193      -45.363       -4.691      126.971       97.910       59.470    16121.697     9586.308     3536.705        4.474        1.462      245.422       68.762        0.078      351.820       34.007      858.938
07/19/2013  19:52:00     -302.657      -65.342        0.297      218.003      157.417       73.496    47525.303    24780.082     5401.592        8.677        3.885      309.630       88.642        0.082      351.834       34.030      858.914
07/19/2013  19:53:00     -271.742      -60.802        2.897      187.158      138.591       79.162    35028.231    19207.493     6266.629        6.901        3.025      278.462       91.415        0.108      351.822       34.010      858.919
07/19/2013  19:54:00     -269.751     -186.506      -32.925      172.279      110.909       72.942    29679.921    12300.743     5320.511        7.796        2.365      327.949       78.936        0.058      351.798       33.969      858.919
07/19/2013  19:55:00     -280.053     -101.825       -7.414      146.042      125.172       72.833    21328.342    15668.059     5304.601        6.557        2.115      297.990       73.251        0.060      351.813       33.994      858.931
07/19/2013  19:56:00     -163.064      -43.631        7.829       99.118       92.682       55.612     9824.430     8589.991     3092.739        2.503        1.075      168.800       45.891        0.074      351.754       33.891      858.941
07/19/2013  19:57:00     -247.758      -53.510       -9.038       93.941       90.743       46.950     8824.980     8234.307     2204.333        4.179        0.963      253.470       46.749        0.034      351.753       33.888      858.959
07/19/2013  19:58:00     -261.000      -56.058       -1.902      150.515       82.903       55.832    22654.877     6872.906     3117.231        5.195        1.632      266.953       71.591        0.072      351.597       33.621      858.954
07/19/2013  19:59:00     -389.888      -93.564      -14.330      168.044      144.170       67.744    28238.937    20785.072     4589.245       10.728        2.681      400.958       75.728        0.036      351.687       33.777      858.961
07/19/2013  20:00:00     -393.053      -57.668      -30.844      159.547      130.952       70.850    25455.354    17148.373     5019.739       10.319        2.381      397.261       67.477        0.029      351.651       33.714      858.964
07/19/2013  20:01:00     -329.314      -54.766      -10.405      137.354      107.154       57.810    18866.161    11482.012     3341.992        7.262        1.685      333.837       67.454        0.041      351.619       33.659      858.985
07/19/2013  20:02:00     -339.023      -43.510      -14.412      142.162      103.685       59.714    20210.032    10750.611     3565.744        7.578        1.726      341.804       57.991        0.029      351.612       33.646      858.990
07/19/2013  20:03:00     -372.520      -40.300      -20.413       97.349      105.552       51.693     9476.775    11141.264     2672.146        8.205        1.165      374.693       47.345        0.016      351.605       33.633      859.001
07/19/2013  20:04:00     -182.999      -33.156        5.060      128.975       85.020       50.759    16634.509     7228.453     2576.525        3.052        1.322      185.979       55.926        0.090      351.432       33.332      859.013
07/19/2013  20:05:00     -203.725      -24.317       -9.324      107.242      102.252       53.635    11500.804    10455.424     2876.702        3.350        1.242      205.171       58.363        0.081      351.520       33.486      859.032
07/19/2013  20:06:00     -250.607      -87.774      -28.225      111.285       85.517       40.619    12384.416     7313.213     1649.895        4.632        1.067      265.534       22.274        0.007      351.580       33.590      859.036
07/19/2013  20:07:00     -251.399      -53.425      -14.450       98.277       79.679       34.579     9658.444     6348.665     1195.705        4.173        0.860      257.013       37.215        0.021      351.525       33.493      859.036
07/19/2013  20:08:00     -287.143      -27.159      -12.246      131.667       92.968       58.629    17336.136     8643.041     3437.393        5.637        1.471      288.425       62.776        0.047      351.490       33.433      859.046
07/19/2013  20:09:00     -383.111      -67.087      -19.864      175.944      112.121       70.264    30956.263    12571.182     4937.002       10.006        2.423      388.940       79.968        0.042      351.481       33.417      859.044
07/19/2013  20:10:00     -340.260      -57.785      -15.858      146.576      152.753       68.850    21484.617    23333.564     4740.271        8.445        2.478      345.132       78.708        0.052      351.432       33.332      859.068
07/19/2013  20:11:00     -367.966        7.060      -20.568      154.604      114.462       70.680    23902.519    13101.627     4995.593        8.893        2.100      368.034       69.168        0.035      351.404       33.283      859.077
07/19/2013  20:12:00     -221.001      -92.811       -0.483      103.672      101.696       48.571    10747.802    10342.106     2359.109        4.045        1.172      239.699       45.022        0.035      351.345       33.179      859.085
07/19/2013  20:13:00     -319.712      -89.956      -16.908      140.438      101.644       65.540    19722.793    10331.401     4295.549        7.246        1.717      332.127       62.352        0.035      351.381       33.241      859.092
07/19/2013  20:14:00     -366.431      -83.916      -28.097      118.832       99.544       59.021    14121.143     9909.011     3483.447        8.480        1.376      375.916       61.828        0.027      351.363       33.209      859.123
07/19/2013  20:15:00     -249.954      -23.843      -22.444      110.909       85.783       56.492    12300.846     7358.694     3191.323        4.320        1.143      251.089       49.317        0.039      351.283       33.071      859.138
07/19/2013  20:16:00     -287.693      -30.682      -27.892      107.319       79.840       40.755    11517.286     6374.468     1660.984        5.202        0.978      289.325       47.604        0.027      351.303       33.105      859.173
07/19/2013  20:17:00     -240.006      -41.456      -12.754       82.967       88.890       45.994     6883.497     7901.475     2115.468        3.819        0.845      243.560       41.041        0.028      351.274       33.054      859.194
07/19/2013  20:18:00     -239.473      -38.377      -19.373      140.569      103.579       50.191    19759.603    10728.547     2519.140        4.609        1.650      242.528       64.732        0.071      351.302       33.105      859.210
07/19/2013  20:19:00     -327.463        2.230      -37.627       89.869       82.805       36.981     8076.401     6856.719     1367.584        6.247        0.815      327.471       35.436        0.012      351.214       32.950      859.248
07/19/2013  20:20:00     -254.000       -2.350      -22.829       78.358       75.234       44.170     6140.037     5660.185     1950.946        3.939        0.688      254.011       38.732        0.023      351.094       32.740      859.258
07/19/2013  20:21:00     -202.935      -69.226       -8.258       85.446       77.069       48.650     7301.041     5939.609     2366.859        3.082        0.780      214.418       39.629        0.034      351.099       32.749      859.274
07/19/2013  20:22:00     -197.724      -46.378      -22.396       72.219       59.577       41.614     5215.601     3549.400     1731.692        2.612        0.525      203.091       41.839        0.042      351.061       32.685      859.300
07/19/2013  20:23:00     -219.787      -17.533      -25.764      144.073       73.967       52.159    20756.960     5471.067     2720.602        3.911        1.447      220.485       47.240        0.046      350.996       32.569      859.318
07/19/2013  20:24:00     -332.607      -85.931      -20.710      126.743       91.491       64.339    16063.716     8370.661     4139.462        7.350        1.429      343.528       69.814        0.041      350.978       32.539      859.323
07/19/2013  20:25:00     -222.297      -49.536      -17.436       97.510       63.550       45.878     9508.171     4038.666     2104.834        3.391        0.783      227.749       48.684        0.046      351.011       32.596      859.342
07/19/2013  20:26:00     -239.482     -100.328      -14.019      112.046       69.306       42.416    12554.255     4803.375     1799.136        4.338        0.958      259.649       32.695        0.016      350.978       32.538      859.354
07/19/2013  20:27:00     -263.455      -69.779      -23.722       70.656       90.695       58.127     4992.293     8225.668     3378.747        4.572        0.830      272.539       41.144        0.023      350.977       32.534      859.382
07/19/2013  20:28:00     -313.542      -35.096      -29.028      108.912      106.784       56.063    11861.928    11402.783     3143.048        6.339        1.320      315.500       58.901        0.035      350.958       32.504      859.401
07/19/2013  20:29:00     -290.712      -32.626      -35.925       89.902      108.788       50.987     8082.341    11834.755     2599.681        5.469        1.126      292.537       49.457        0.029      350.958       32.503      859.403
07/19/2013  20:30:00     -336.885      -84.467      -29.966       77.947       91.793       52.782     6075.704     8425.935     2785.928        6.940        0.864      347.313       33.967        0.010      350.931       32.458      859.432
07/19/2013  20:31:00     -251.368      -81.730      -15.627       96.516       80.737       44.752     9315.296     6518.505     2002.776        4.397        0.892      264.321       40.026        0.023      350.901       32.406      859.444
07/19/2013  20:32:00     -413.636      -17.661      -41.074      133.700       89.817       62.359    17875.761     8067.071     3888.595       10.146        1.492      414.013       73.820        0.032      350.958       32.505      859.455
07/19/2013  20:33:00     -240.333      -57.693       -6.497      132.159      116.054       58.643    17466.000    13468.621     3439.046        4.775        1.719      247.160       55.321        0.050      350.919       32.438      859.475
07/19/2013  20:34:00     -328.140      -98.576       -5.035      102.048       94.933       54.033    10413.874     9012.204     2919.571        6.988        1.117      342.627       47.459        0.019      350.946       32.482      859.477
07/19/2013  20:35:00     -307.986      -75.961       -5.582      143.117      134.719       56.059    20482.536    18149.249     3142.574        7.121        2.089      317.216       59.648        0.035      350.925       32.447      859.493
07/19/2013  20:36:00     -280.559      -54.843      -22.936      108.302       93.011       54.760    11729.388     8651.005     2998.612        5.281        1.169      285.869       45.945        0.026      350.944       32.480      859.497
07/19/2013  20:37:00     -247.414      -51.326      -14.711      103.152       83.663       49.355    10640.410     6999.466     2435.896        4.207        1.004      252.681       52.361        0.043      350.870       32.353      859.520
07/19/2013  20:38:00     -318.722      -49.857      -20.899      172.046       84.200       48.457    29599.920     7089.623     2348.102        7.176        1.952      322.598       61.961        0.037      350.846       32.310      859.536
07/19/2013  20:39:00     -319.327      -57.132      -15.799      110.952       71.666       50.501    12310.383     5136.061     2550.359        6.274        1.000      324.398       55.456        0.029      350.811       32.250      859.532
07/19/2013  20:40:00     -270.290      -48.360      -15.277      140.020       86.695       60.756    19605.589     7516.085     3691.258        5.321        1.541      274.582       62.824        0.052      350.828       32.279      859.533
07/19/2013  20:41:00     -311.058      -85.932       -7.671      129.971      101.478       62.890    16892.569    10297.743     3955.164        6.767        1.557      322.710       61.940        0.037      350.768       32.174      859.536
07/19/2013  20:42:00     -278.874      -57.827        6.949      134.043      118.809       57.693    17967.596    14115.494     3328.456        5.828        1.771      284.807       57.407        0.041      350.711       32.076      859.549
07/19/2013  20:43:00     -425.235      -68.225      -31.356      120.538      126.888       66.237    14529.313    16100.490     4387.365       11.073        1.751      430.673       62.955        0.021      350.814       32.254      859.547
07/19/2013  20:44:00     -266.585     -102.375       -1.000      128.724       89.483       49.488    16569.853     8007.163     2449.070        5.428        1.351      285.566       47.321        0.027      350.752       32.146      859.558
07/19/2013  20:45:00     -273.792      -62.781       -6.058      153.923       90.865       56.340    23692.236     8256.424     3174.191        5.702        1.756      280.897       71.547        0.065      350.700       32.056      859.564
07/19/2013  20:46:00     -410.649      -87.215      -15.420      180.368      112.987       79.319    32532.697    12766.101     6291.490       11.402        2.580      419.809       88.285        0.044      350.808       32.242      859.579
07/19/2013  20:47:00     -340.203      -48.810      -14.178      116.796      110.671       56.909    13641.196    12248.173     3238.685        7.372        1.456      343.686       57.906        0.028      350.784       32.200      859.568
07/19/2013  20:48:00     -371.767      -69.899       -9.910      168.581      102.531       72.211    28419.393    10512.515     5214.438        9.366        2.207      378.281       81.729        0.047      350.723       32.096      859.585
07/19/2013  20:49:00     -362.057      -61.083       -6.888      156.048      114.110       62.806    24351.038    13021.059     3944.584        8.808        2.066      367.173       77.423        0.044      350.677       32.017      859.590
07/19/2013  20:50:00     -288.169     -163.258      -14.834      162.654      118.892       80.849    26456.393    14135.368     6536.582        7.851        2.356      331.202       65.253        0.039      350.682       32.023      859.589
07/19/2013  20:51:00     -345.201      -52.917      -21.000      137.967      100.080       67.871    19034.810    10015.947     4606.428        7.802        1.683      349.234       68.601        0.039      350.713       32.078      859.596
07/19/2013  20:52:00     -282.176      -44.554       -6.726      137.314       97.866       70.983    18855.226     9577.752     5038.641        5.756        1.674      285.672       74.631        0.068      350.656       31.979      859.627
07/19/2013  20:53:00     -325.982      -23.839      -16.630      146.280      129.293       64.240    21397.887    16716.642     4126.820        7.467        2.112      326.853       68.446        0.044      350.670       32.003      859.630
07/19/2013  20:54:00     -288.404      -53.969      -17.969      150.635       93.475       58.703    22690.771     8737.537     3446.069        6.064        1.744      293.411       57.729        0.039      350.667       31.997      859.662
07/19/2013  20:55:00     -275.026      -81.123       -8.537      167.402      110.654       59.231    28023.364    12244.304     3508.354        6.303        2.189      286.740       70.225        0.060      350.595       31.873      859.673
07/19/2013  20:56:00     -346.683     -136.030      -13.378      137.700      102.395       65.626    18961.404    10484.758     4306.780        8.631        1.688      372.415       70.690        0.036      350.664       31.993      859.678
07/19/2013  20:57:00     -361.876      -62.794       -8.283      138.758       98.180       62.122    19253.913     9639.258     3859.119        8.385        1.638      367.283       66.143        0.032      350.651       31.969      859.695
07/19/2013  20:58:00     -368.936      -44.645      -17.626       92.270      101.456       55.826     8513.775    10293.254     3116.563        8.017        1.096      371.627       50.943        0.019      350.672       32.006      859.724
07/19/2013  20:59:00     -398.723       -4.121      -35.896      115.940       96.557       60.283    13442.054     9323.259     3634.070        9.334        1.320      398.745       56.620        0.020      350.619       31.914      859.750
07/19/2013  21:00:00     -382.167      -98.928      -10.867      131.676      154.309       64.283    17338.531    23811.316     4132.290       10.061        2.264      394.763       66.439        0.028      350.637       31.944      859.768
07/19/2013  21:01:00     -328.150      -65.635      -28.329      112.909      119.977       61.318    12748.479    14394.582     3759.856        7.184        1.545      334.650       54.601        0.027      350.580       31.845      859.780
07/19/2013  21:02:00     -362.537      -81.490      -16.752      138.509      128.337       67.371    19184.753    16470.345     4538.820        8.927        2.010      371.583       69.013        0.034      350.595       31.872      859.800
07/19/2013  21:03:00     -421.305     -133.250      -24.406      123.134      105.500       73.812    15161.869    11130.251     5448.276       11.379        1.587      441.875       59.188        0.018      350.582       31.849      859.805
07/19/2013  21:04:00     -365.925     -100.086       -1.473      149.018      120.097       66.891    22206.384    14423.351     4474.453        9.250        2.055      379.366       72.205        0.036      350.530       31.758      859.827
07/19/2013  21:05:00     -333.331      -61.135        0.241      157.641      120.776       67.085    24850.771    14586.938     4500.455        7.938        2.197      338.891       79.868        0.056      350.514       31.729      859.827
07/19/2013  21:06:00     -384.687      -72.457      -18.286      181.533      127.161       67.789    32954.133    16169.914     4595.323       10.363        2.686      391.451       65.441        0.028      350.542       31.778      859.827
07/19/2013  21:07:00     -376.335      -84.174      -14.133      100.443       99.129       59.136    10088.837     9826.494     3497.027        8.616        1.171      385.633       51.488        0.018      350.484       31.680      859.823
07/19/2013  21:08:00     -350.133      -84.523       -8.934      135.504      119.100       61.660    18361.224    14184.909     3801.899        8.308        1.817      360.191       59.499        0.027      350.475       31.662      859.825
07/19/2013  21:09:00     -300.406     -129.855       -8.263      123.329      137.903       68.247    15209.948    19017.196     4657.612        7.302        1.944      327.271       65.700        0.040      350.471       31.657      859.813
07/19/2013  21:10:00     -150.842      -57.341       -5.095       99.580       87.430       59.120     9916.129     7643.928     3495.183        2.356        1.053      161.373       57.437        0.127      350.427       31.580      859.830
07/19/2013  21:11:00     -190.773      -75.501       -5.131      154.171      101.339       51.590    23768.644    10269.616     2661.529        3.940        1.835      205.170       62.045        0.091      350.425       31.578      859.838
07/19/2013  21:12:00     -320.657     -123.577      -15.662      155.896      126.804       80.598    24303.689    16079.143     6496.038        8.260        2.344      343.645       76.070        0.049      350.465       31.646      859.831
07/19/2013  21:13:00     -188.009      -54.206        1.848      144.254      136.168       75.635    20809.206    18541.642     5720.603        4.167        2.254      195.668       78.683        0.162      350.432       31.588      859.844
07/19/2013  21:14:00     -334.746      -60.048      -33.333      219.529      158.451       70.021    48192.768    25106.683     4902.913        9.747        3.910      340.089       89.689        0.070      350.508       31.719      859.836
07/19/2013  21:15:00     -250.062     -111.745       -5.309      181.470      107.642       66.315    32931.216    11586.824     4397.614        6.197        2.446      273.894       79.403        0.084      350.476       31.664      859.873
07/19/2013  21:16:00     -241.195     -133.240       13.314      212.658      144.277       90.267    45223.276    20815.727     8148.159        7.513        3.709      275.550      113.535        0.170      350.443       31.609      859.867
07/19/2013  21:17:00     -345.568     -118.539       -8.535      200.488      129.613       88.073    40195.533    16799.468     7756.803        9.913        3.238      365.334       99.118        0.074      350.504       31.712      859.897
07/19/2013  21:18:00     -383.970     -132.327       -5.827      148.331      127.911       70.682    22002.164    16361.140     4995.909       10.416        2.168      406.133       70.733        0.030      350.506       31.715      859.898
07/19/2013  21:19:00     -235.567     -150.215       -2.773      147.132      122.829       68.779    21647.884    15087.015     4730.561        5.976        2.073      279.385       71.460        0.065      350.471       31.654      859.899
07/19/2013  21:20:00     -239.156      -88.424       14.603      203.621      156.423       70.847    41461.337    24468.036     5019.260        6.807        3.547      254.980       85.860        0.113      350.442       31.606      859.929
07/19/2013  21:21:00     -335.583      -93.423       -1.467      229.176      137.238       85.920    52521.566    18834.284     7382.177       10.003        3.937      348.344      106.836        0.094      350.459       31.635      859.938
07/19/2013  21:22:00     -276.865     -117.006        4.326      208.048      118.904       74.575    43283.954    14138.219     5561.431        7.666        3.149      300.574       83.893        0.078      350.442       31.605      859.953
07/19/2013  21:23:00     -229.415      -41.808       -1.501      158.166      145.329       60.052    25016.639    21120.649     3606.287        5.205        2.487      233.194       70.852        0.092      350.448       31.616      859.973
07/19/2013  21:24:00     -396.610     -171.785      -12.055      145.536      177.902       73.154    21180.772    31649.127     5351.527       12.256        2.909      432.214       67.450        0.024      350.471       31.655      859.989
07/19/2013  21:25:00     -234.492     -126.546       -6.399      110.603      135.160       69.255    12233.041    18268.264     4796.272        5.316        1.765      266.459       57.724        0.047      350.439       31.600      859.987
07/19/2013  21:26:00     -340.477     -118.576       -9.537      162.207      133.561       74.228    26311.039    17838.672     5509.758        8.986        2.483      360.534       80.668        0.050      350.430       31.586      860.010
07/19/2013  21:27:00     -301.714     -203.252       -6.261      209.206      119.931       82.461    43767.277    14383.482     6799.777        9.865        3.248      363.790      102.077        0.079      350.407       31.546      860.010
07/19/2013  21:28:00     -206.330     -101.158        8.504      151.088      121.160       71.548    22827.517    14679.656     5119.084        4.774        2.131      229.793       79.574        0.120      350.372       31.485      860.012
07/19/2013  21:29:00     -270.240     -140.775       11.029      211.355      162.058       79.051    44670.750    26262.704     6249.004        8.506        3.859      304.708      100.697        0.109      350.350       31.449      860.025
07/19/2013  21:30:00     -224.893     -154.899        5.397      182.823      140.273       76.192    33424.086    19676.392     5805.166        6.674        2.945      273.076       85.110        0.097      350.346       31.441      860.041
07/19/2013  21:31:00     -328.889     -173.362        7.983      210.218      132.299       77.205    44191.662    17502.941     5960.641       10.296        3.383      371.782       95.332        0.066      350.352       31.452      860.057
07/19/2013  21:32:00     -322.857     -165.680       -9.832      149.844      120.164       70.219    22453.096    14439.446     4930.660        8.679        2.091      362.886       68.465        0.036      350.341       31.434      860.074
07/19/2013  21:33:00     -332.575     -210.964      -13.003      156.522       96.208       73.612    24498.998     9255.884     5418.736        9.722        1.959      393.843       78.664        0.040      350.312       31.380      860.076
07/19/2013  21:34:00     -261.510     -152.744       -5.527      160.335      109.244       72.738    25707.444    11934.275     5290.748        6.733        2.147      302.850       92.304        0.093      350.284       31.333      860.091
07/19/2013  21:35:00     -261.648     -185.405        0.841      126.432      125.902       60.747    15985.161    15851.232     3690.193        6.917        1.776      320.678       65.864        0.042      350.268       31.305      860.093
07/19/2013  21:36:00     -168.380     -118.088        3.885      141.605      104.333       68.133    20051.936    10885.401     4642.108        3.894        1.779      205.662       71.511        0.121      350.212       31.205      860.092
07/19/2013  21:37:00     -141.977      -64.588       20.821      156.332      120.352       68.791    24439.680    14484.507     4732.226        3.420        2.183      155.978       78.944        0.256      350.174       31.143      860.076
07/19/2013  21:38:00     -181.898     -160.248        9.537      196.240      160.892       94.719    38510.277    25886.312     8971.641        6.610        3.668      242.418       94.301        0.151      350.210       31.204      860.061
07/19/2013  21:39:00     -318.614     -166.686      -28.466      121.338      108.919       61.131    14722.963    11863.266     3737.013        8.021        1.516      359.582       60.317        0.028      350.212       31.206      860.082
07/19/2013  21:40:00     -246.474     -156.650      -13.464      161.208      109.196       64.210    25987.943    11923.669     4122.954        6.374        2.102      292.043       75.915        0.068      350.186       31.163      860.092
07/19/2013  21:41:00     -304.445      -97.052      -21.774      203.297      101.472       66.209    41329.565    10296.649     4383.604        7.928        2.800      319.540       91.662        0.082      350.166       31.127      860.084
07/19/2013  21:42:00     -284.112     -147.297       -2.787      175.053      116.868       71.722    30643.386    13658.210     5144.047        7.592        2.472      320.025       84.679        0.070      350.154       31.105      860.102
07/19/2013  21:43:00     -415.691     -221.613      -17.521      178.436      124.812       72.734    31839.559    15577.946     5290.299       13.745        2.635      471.075       77.526        0.027      350.192       31.171      860.098
07/19/2013  21:44:00     -329.155     -162.815      -15.345      135.854      112.778       70.402    18456.184    12718.872     4956.426        8.560        1.807      367.222       61.509        0.028      350.152       31.100      860.097
07/19/2013  21:45:00     -370.193     -192.679       -7.813      174.643      161.637       89.925    30500.288    26126.596     8086.565       11.946        3.236      417.334       96.058        0.053      350.137       31.075      860.086
07/19/2013  21:46:00     -330.610      -93.430        4.124      190.198      159.604       92.680    36175.439    25473.572     8589.643        9.413        3.512      343.558      116.776        0.116      350.119       31.045      860.085
07/19/2013  21:47:00     -309.895     -165.458       -3.711      203.595      123.380       82.901    41450.766    15222.747     6872.555        9.347        3.177      351.299       96.359        0.075      350.098       31.007      860.107
07/19/2013  21:48:00     -337.266      -70.158      -11.882      203.817      115.341       77.161    41541.232    13303.506     5953.775        8.979        3.040      344.486       89.385        0.067      350.096       31.003      860.113
07/19/2013  21:49:00     -451.475     -105.639      -36.896      184.945      151.744       75.883    34204.513    23026.169     5758.167       13.966        3.149      463.669       83.739        0.033      350.136       31.075      860.127
07/19/2013  21:50:00     -390.201     -218.609      -29.310      165.918      157.685       88.393    27528.628    24864.655     7813.341       13.054        3.010      447.266       77.974        0.030      350.132       31.065      860.129
07/19/2013  21:51:00     -215.979     -101.550       17.411      145.072      121.933       71.456    21045.803    14867.704     5105.973        4.913        2.051      238.661       75.842        0.101      350.071       30.962      860.140
07/19/2013  21:52:00     -301.751     -104.509      -18.198      156.071      130.505       62.722    24358.236    17031.428     3934.023        7.381        2.266      319.336       57.645        0.033      350.063       30.947      860.126
07/19/2013  21:53:00     -374.793     -132.751      -22.374      182.726      153.404       76.875    33388.772    23532.713     5909.781       11.070        3.142      397.608       80.347        0.041      350.014       30.861      860.144
07/19/2013  21:54:00     -236.427     -162.506        1.308      159.916      133.295       80.051    25573.241    17767.676     6408.170        6.602        2.487      286.890       83.673        0.085      349.991       30.822      860.145
07/19/2013  21:55:00     -406.114     -144.589      -13.692      154.419      165.471       68.368    23845.351    27380.622     4674.249       12.095        2.795      431.085       68.534        0.025      350.004       30.844      860.162
07/19/2013  21:56:00     -271.973     -202.988      -18.338      172.275      133.284       82.987    29678.626    17764.532     6886.887        8.491        2.717      339.372       90.981        0.072      350.000       30.839      860.153
07/19/2013  21:57:00     -249.527     -163.486        9.532      203.197      151.067       80.108    41288.929    22821.347     6417.340        7.979        3.526      298.314       93.793        0.099      349.965       30.777      860.153
07/19/2013  21:58:00     -253.560      -68.226       -1.875      132.775      108.244       64.241    17629.271    11716.696     4126.919        5.121        1.674      262.579       64.453        0.060      349.949       30.750      860.176
07/19/2013  21:59:00     -288.174     -128.292       -4.460      153.843      143.334       75.424    23667.779    20544.645     5688.833        7.470        2.495      315.441       77.460        0.060      349.952       30.754      860.174
07/19/2013  22:00:00     -313.233     -129.245      -16.879      166.474      109.354       71.275    27713.657    11958.315     5080.171        7.992        2.238      338.850       84.907        0.063      349.954       30.760      860.173
07/19/2013  22:01:00     -272.639     -181.960      -13.714      157.340       99.391       64.415    24755.866     9878.571     4149.286        7.320        1.939      327.783       62.193        0.036      349.926       30.711      860.172
07/19/2013  22:02:00     -210.157     -107.008       14.026      180.296      124.768       77.213    32506.703    15566.937     5961.830        5.491        2.702      235.832       89.495        0.144      349.861       30.596      860.170
07/19/2013  22:03:00     -237.450      -99.397       -4.350       98.333      110.647       61.613     9669.282    12242.683     3796.126        4.599        1.285      257.415       43.563        0.029      349.892       30.650      860.189
07/19/2013  22:04:00     -312.585     -210.866      -14.877      169.275      125.960       74.598    28654.077    15865.955     5564.818        9.623        2.504      377.059       90.421        0.058      349.928       30.714      860.181
07/19/2013  22:05:00     -361.321     -154.456      -21.858      168.287      130.806       73.065    28320.476    17110.173     5338.509       10.282        2.538      392.950       70.442        0.032      349.950       30.751      860.166
07/19/2013  22:06:00     -282.765     -116.477        7.518      246.732      157.615       81.730    60876.558    24842.376     6679.780        9.297        4.620      305.815      100.328        0.108      349.890       30.648      860.167
07/19/2013  22:07:00     -412.773      -90.483      -22.772      207.182      152.885       77.414    42924.475    23373.686     5992.934       12.567        3.615      422.574       90.840        0.046      349.873       30.618      860.165
07/19/2013  22:08:00     -223.916     -115.271       -6.756      151.342      111.843       65.902    22904.475    12508.881     4343.032        5.161        1.988      251.845       67.852        0.073      349.840       30.560      860.159
07/19/2013  22:09:00     -156.774     -135.374        6.113      143.751      126.004       76.201    20664.241    15876.977     5806.576        4.264        2.117      207.133       80.288        0.150      349.836       30.554      860.164
07/19/2013  22:10:00     -363.859     -119.861      -26.000      158.117      112.022       62.698    25000.959    12548.960     3931.041        9.445        2.074      383.093       56.737        0.022      349.886       30.640      860.148
07/19/2013  22:11:00     -284.222     -162.385       -7.070      167.763      164.644       77.958    28144.429    27107.778     6077.454        8.425        3.066      327.340       82.142        0.063      349.827       30.539      860.133
07/19/2013  22:12:00     -214.366     -121.095       -1.338      187.280      127.753       79.960    35073.670    16320.903     6393.552        5.919        2.889      246.205       90.304        0.135      349.830       30.544      860.132
07/19/2013  22:13:00     -333.128      -92.659      -20.626      177.195      154.932       90.616    31397.988    24003.831     8211.230        9.179        3.181      345.775       80.080        0.054      349.862       30.598      860.100
07/19/2013  22:14:00     -214.749     -101.646        6.845      197.175      117.809       91.470    38878.149    13879.015     8366.782        5.880        3.056      237.590       95.451        0.161      349.839       30.559      860.088
07/19/2013  22:15:00     -211.632      -96.572        2.904      144.481      138.340       81.388    20874.877    19138.025     6624.073        5.037        2.332      232.625       89.060        0.147      349.802       30.493      860.093
07/19/2013  22:16:00     -250.609      -98.058        2.833      184.785      118.394       63.480    34145.450    14017.229     4029.745        6.230        2.610      269.110       77.632        0.083      349.762       30.424      860.088
07/19/2013  22:17:00     -301.542     -111.537       -5.660      154.212      143.789       73.354    23781.350    20675.139     5380.811        7.661        2.492      321.510       70.352        0.048      349.814       30.515      860.084
07/19/2013  22:18:00     -331.816     -116.881      -18.918      208.760      118.611       81.407    43580.691    14068.580     6627.054        9.419        3.214      351.800       83.160        0.056      349.817       30.521      860.076
07/19/2013  22:19:00     -292.855     -105.711       -9.610      142.531      100.607       65.179    20314.981    10121.808     4248.295        6.585        1.734      311.350       62.961        0.041      349.801       30.492      860.080
07/19/2013  22:20:00     -274.400      -62.273        0.038      136.540      105.421       63.315    18643.247    11113.608     4008.802        5.646        1.688      281.378       64.832        0.053      349.746       30.397      860.081
07/19/2013  22:21:00     -347.940     -129.995      -12.572      162.313      115.911       74.689    26345.487    13435.429     5578.491        9.173        2.268      371.431       72.739        0.038      349.785       30.465      860.066
07/19/2013  22:22:00     -345.448      -38.805      -14.449      194.355      119.679       81.339    37773.998    14323.022     6616.074        8.987        2.936      347.620      100.732        0.084      349.750       30.403      860.073
07/19/2013  22:23:00     -297.733      -99.845        4.759      204.798      161.086       90.712    41942.083    25948.633     8228.691        8.736        3.806      314.028       96.258        0.094      349.716       30.343      860.068
07/19/2013  22:24:00     -330.876      -53.502       -6.420      174.347      110.037       69.078    30396.900    12108.223     4771.705        7.982        2.364      335.173       78.263        0.055      349.718       30.347      860.068
07/19/2013  22:25:00     -291.047       11.842      -17.081      184.343       83.870       64.718    33982.317     7034.113     4188.359        6.516        2.260      291.287       81.302        0.078      349.678       30.278      860.067
07/19/2013  22:26:00     -402.434     -177.930      -26.707      209.498      126.847       71.407    43889.348    16090.115     5098.914       12.969        3.254      440.013       82.061        0.035      349.713       30.340      860.074
07/19/2013  22:27:00     -368.015     -126.549      -20.261      147.463      129.410       76.308    21745.222    16746.995     5822.885        9.808        2.216      389.165       75.400        0.038      349.683       30.285      860.068
07/19/2013  22:28:00     -340.118     -138.050       -4.852      142.159      134.401       76.596    20209.234    18063.692     5867.009        8.944        2.207      367.067       75.513        0.042      349.671       30.265      860.058
07/19/2013  22:29:00     -292.462      -67.429       -4.144      157.584      146.381       68.639    24832.754    21427.449     4711.342        7.052        2.549      300.135       80.776        0.072      349.657       30.243      860.061
07/19/2013  22:30:00     -228.544      -25.182       -9.037      119.225      108.635       58.214    14214.530    11801.539     3388.908        4.117        1.470      229.927       46.715        0.041      349.600       30.144      860.058
07/19/2013  22:31:00     -341.130      -69.474      -16.000      179.274      141.786       74.050    32139.313    20103.190     5483.419        8.958        2.886      348.133       85.601        0.060      349.638       30.210      860.054
07/19/2013  22:32:00     -287.804        1.683       -9.593      171.254      118.306       65.949    29328.067    13996.334     4349.217        6.529        2.384      287.809       74.339        0.067      349.634       30.202      860.054
07/19/2013  22:33:00     -324.689      -27.061      -23.144      113.903      105.806       63.033    12973.894    11194.912     3973.222        6.741        1.407      325.814       58.229        0.032      349.624       30.185      860.052
07/19/2013  22:34:00     -240.748      -59.102      -16.431      184.929      100.483       68.599    34198.616    10096.931     4705.765        5.535        2.450      247.896       74.564        0.090      349.586       30.121      860.045
07/19/2013  22:35:00     -321.127      -52.628      -23.207      104.398      112.531       58.162    10898.998    12663.332     3382.762        6.668        1.347      325.411       49.993        0.024      349.586       30.120      860.055
07/19/2013  22:36:00     -226.921      -90.330        8.198      126.841      126.791       68.029    16088.669    16075.966     4627.951        4.825        1.840      244.239       44.967        0.034      349.564       30.080      860.048
07/19/2013  22:37:00     -170.184      -70.043        3.324      119.614       99.311       65.103    14307.481     9862.656     4238.385        3.114        1.420      184.034       58.890        0.102      349.545       30.047      860.051
07/19/2013  22:38:00     -243.704     -110.050        4.684      145.540       99.482       53.465    21181.922     9896.654     2858.503        5.272        1.697      267.400       63.491        0.056      349.542       30.044      860.043
07/19/2013  22:39:00     -309.227      -83.280      -14.888      137.991      120.795       67.717    19041.636    14591.461     4585.616        7.049        1.911      320.245       70.134        0.048      349.560       30.075      860.024
07/19/2013  22:40:00     -344.168      -57.485        0.523      195.818      124.575       72.478    38344.813    15518.942     5253.072        9.043        2.956      348.936       79.541        0.052      349.577       30.104      860.026
07/19/2013  22:41:00     -253.468      -70.706       -2.412      180.438      125.176       71.099    32557.729    15669.011     5055.011        6.126        2.664      263.146       89.187        0.115      349.541       30.042      860.036
07/19/2013  22:42:00     -407.235      -65.031      -24.906      108.536      121.948       66.531    11779.984    14871.209     4426.359       10.088        1.554      412.394       56.119        0.019      349.600       30.144      860.037
07/19/2013  22:43:00     -355.196       -8.484      -14.972      181.558      113.951       63.356    32963.397    12984.911     4014.002        8.820        2.498      355.297       72.723        0.042      349.564       30.081      860.038
07/19/2013  22:44:00     -380.711     -111.782      -28.552      155.349      134.698       68.291    24133.239    18143.554     4663.607       10.259        2.347      396.782       74.821        0.036      349.564       30.081      860.041
07/19/2013  22:45:00     -288.816     -100.204      -16.594      139.705      127.442       61.392    19517.352    16241.384     3768.957        6.662        1.976      305.705       45.652        0.022      349.563       30.080      860.034
07/19/2013  22:46:00     -368.146     -133.486      -18.213      165.988      139.653       76.620    27552.093    19502.933     5870.635       10.329        2.646      391.599       89.198        0.052      349.582       30.113      860.038
07/19/2013  22:47:00     -272.684      -61.134      -13.687      115.374      109.540       61.090    13311.170    11998.927     3731.984        5.366        1.452      279.453       60.836        0.047      349.582       30.111      860.050
07/19/2013  22:48:00     -311.534      -19.679       -7.587      138.690       85.533       63.357    19234.949     7315.825     4014.136        6.403        1.528      312.155       73.501        0.055      349.575       30.101      860.058
07/19/2013  22:49:00     -208.811      -72.339       -3.884      114.821      121.874       63.870    13183.907    14853.195     4079.413        4.048        1.606      220.987       62.980        0.081      349.539       30.039      860.052
07/19/2013  22:50:00     -257.614      -70.137       -4.583      163.349      120.371       73.913    26682.907    14489.077     5463.138        5.896        2.332      266.991       66.659        0.062      349.564       30.081      860.049
07/19/2013  22:51:00     -195.780      -57.994       -1.281      152.809      110.570       71.214    23350.640    12225.680     5071.426        4.116        2.032      204.189       72.941        0.128      349.513       29.994      860.048
07/19/2013  22:52:00     -207.601      -65.014        2.640      147.717      134.650       79.790    21820.292    18130.544     6366.435        4.682        2.316      217.543       80.928        0.138      349.529       30.022      860.053
07/19/2013  22:53:00     -439.844      -87.299      -45.873      159.605      136.753       71.571    25473.754    18701.469     5122.346       12.623        2.465      448.424       78.221        0.030      349.592       30.130      860.054
07/19/2013  22:54:00     -231.404      -79.411      -14.299      110.809       65.640       51.617    12278.683     4308.629     2664.363        3.965        0.963      244.651       46.687        0.036      349.514       29.994      860.071
07/19/2013  22:55:00     -170.512       -6.066       -1.288      135.574       68.177       64.787    18380.436     4648.143     4197.334        2.816        1.361      170.620       65.648        0.148      349.460       29.902      860.068
07/19/2013  22:56:00     -286.974      -31.719        0.638      145.656      113.157       68.457    21215.807    12804.606     4686.365        6.103        1.935      288.721       70.346        0.059      349.486       29.945      860.084
07/19/2013  22:57:00     -326.872       -8.036      -25.004      141.233       78.581       60.570    19946.846     6175.038     3668.744        6.866        1.490      326.971       59.147        0.033      349.526       30.015      860.092
07/19/2013  22:58:00     -308.593      -74.086        2.414      172.030      102.325       64.219    29594.355    10470.438     4124.144        7.245        2.209      317.361       78.427        0.061      349.543       30.044      860.107
07/19/2013  22:59:00     -185.470      -24.292       -2.529       99.207       75.546       46.751     9842.091     5707.242     2185.633        2.636        0.887      187.054       42.487        0.052      349.457       29.896      860.113
07/19/2013  23:00:00     -300.524       16.725      -10.850      138.925      100.094       57.019    19300.243    10018.835     3251.176        6.163        1.629      300.989       60.465        0.040      349.474       29.926      860.137
07/19/2013  23:01:00     -164.893      -96.960      -17.983      160.523      128.292       62.735    25767.478    16458.872     3935.734        4.153        2.308      191.287       46.251        0.058      349.496       29.966      860.144
07/19/2013  23:02:00     -200.645      -32.752      -11.538      104.232       89.002       53.490    10864.283     7921.334     2861.203        3.155        1.082      203.301       55.742        0.075      349.466       29.912      860.184
07/19/2013  23:03:00     -307.095        5.004      -24.399      118.571       93.170       54.084    14059.019     8680.713     2925.039        6.029        1.283      307.136       57.256        0.035      349.484       29.942      860.194
07/19/2013  23:04:00     -194.172      107.846      -12.213      124.371       79.514       48.981    15468.085     6322.542     2399.181        3.683        1.209      222.112       36.996        0.028      349.434       29.857      860.214
07/19/2013  23:05:00     -175.796       52.208      -16.337      135.858       76.463       48.972    18457.460     5846.601     2398.299        3.029        1.335      183.384       60.332        0.108      349.485       29.945      860.213
07/19/2013  23:06:00      -35.917      140.890       -6.537       69.363       73.836       37.678     4811.261     5451.809     1419.619        1.643        0.584      145.396       35.388        0.059      349.350       29.712      860.245
07/19/2013  23:07:00      -27.869      262.302      -27.200       41.528       73.495       33.390     1724.569     5401.588     1114.886        3.928        0.412      263.779       25.898        0.010      349.495       29.962      860.276
07/19/2013  23:08:00      -29.732      279.698      -37.369       44.413       76.316       35.862     1972.552     5824.123     1286.062        4.480        0.454      281.273       30.474        0.012      349.517       29.999      860.304
07/19/2013  23:09:00      -47.060      170.427      -43.645       78.301       65.134       30.258     6131.116     4242.432      915.570        2.222        0.564      176.805       31.725        0.032      349.428       29.846      860.327
07/19/2013  23:10:00     -102.464       96.130        3.119      137.108       80.356       51.653    18798.718     6457.131     2668.065        2.383        1.396      140.499       58.140        0.171      349.436       29.861      860.361
07/19/2013  23:11:00      122.620       89.850       14.300       75.997       53.137       46.569     5775.550     2823.516     2168.706        1.704        0.538      152.015       33.615        0.049      349.419       29.832      860.362
07/19/2013  23:12:00      110.005      111.329       13.427       68.274       63.571       51.738     4661.293     4041.215     2676.819        1.803        0.569      156.510       31.287        0.040      349.312       29.647      860.372
07/19/2013  23:13:00      113.889      199.456       15.089      116.225      151.953       98.978    13508.174    23089.636     9796.611        4.968        2.320      229.681       90.337        0.155      349.150       29.364      860.375
07/19/2013  23:14:00      124.541      122.678       14.124       91.964       71.795       63.105     8457.436     5154.579     3982.232        2.417        0.880      174.816       30.005        0.029      349.107       29.289      860.398
07/19/2013  23:15:00      102.923      177.316      -21.838       77.096       90.168       56.645     5943.784     8130.315     3208.626        2.989        0.864      205.022       51.965        0.064      349.093       29.266      860.419
07/19/2013  23:16:00      136.962      123.998       12.014       92.468       75.821       68.510     8550.239     5748.767     4693.663        2.663        0.950      184.754       55.090        0.089      349.214       29.473      860.423
07/19/2013  23:17:00       60.875      131.568       -9.904       77.118       88.773       48.501     5947.158     7880.654     2352.355        1.864        0.809      144.969       41.394        0.082      349.175       29.407      860.436
07/19/2013  23:18:00      117.510       86.513       21.800       97.188       66.913       50.406     9445.497     4477.347     2540.715        1.911        0.823      145.921       36.237        0.062      349.197       29.446      860.441
07/19/2013  23:19:00       37.343      121.936      -17.731       72.076       83.063       40.154     5194.957     6899.467     1612.369        1.514        0.685      127.526       37.851        0.088      349.153       29.370      860.443
07/19/2013  23:20:00      117.474      133.194        1.191       97.234       91.052       56.838     9454.510     8290.459     3230.577        2.625        1.049      177.597       55.813        0.099      349.308       29.639      860.412
07/19/2013  23:21:00       49.537       86.318       10.767       60.974       59.711       45.941     3717.804     3565.376     2110.580        0.971        0.470       99.522       41.868        0.177      349.248       29.536      860.393
07/19/2013  23:22:00       83.557      130.331       -2.645       76.691       71.113       51.530     5881.498     5057.076     2655.373        1.878        0.680      154.816       42.812        0.076      349.351       29.714      860.381
07/19/2013  23:23:00      172.933      115.964       19.073       55.557       47.918       39.927     3086.635     2296.167     1594.203        2.535        0.349      208.215       14.605        0.005      349.391       29.780      860.383
07/19/2013  23:24:00      112.680       49.010        9.109       63.017       33.994       25.120     3971.080     1155.572      630.994        1.047        0.288      122.877       15.013        0.015      349.260       29.557      860.391
07/19/2013  23:25:00       56.958       36.675        6.942       42.639       31.168       23.992     1818.045      971.426      575.634        0.400        0.168       67.744       20.978        0.096      349.297       29.622      860.383
07/19/2013  23:26:00      123.047       67.224       27.384       56.752       51.680       39.269     3220.825     2670.781     1542.074        1.392        0.372      140.212       31.193        0.049      349.316       29.656      860.377
07/19/2013  23:27:00      111.296       61.311       24.740       42.341       51.212       39.642     1792.721     2622.697     1571.462        1.137        0.299      127.067       24.004        0.036      349.359       29.728      860.378
07/19/2013  23:28:00       13.820       -2.712       13.804       23.150       28.440       21.558      535.901      808.856      464.753        0.110        0.090       14.083       17.365        1.520      349.203       29.458      860.387
07/19/2013  23:29:00      -10.200      -47.065       20.101       27.836       50.487       27.586      774.832     2548.912      760.985        0.340        0.204       48.158       26.531        0.304      349.223       29.493      860.398
07/19/2013  23:30:00      -49.220      -40.002       -7.797       16.081       18.441       15.549      258.588      340.072      241.782        0.246        0.042       63.426        6.957        0.012      349.104       29.287      860.420
07/19/2013  23:31:00      -35.295      -29.312        0.167       13.456       22.682       11.647      181.072      514.470      135.650        0.147        0.042       45.880        8.066        0.031      349.121       29.315      860.442
07/19/2013  23:32:00       25.378       35.401       39.494       24.138       39.350       34.726      582.654     1548.427     1205.925        0.340        0.167       43.558       33.189        0.581      349.160       29.384      860.423
07/19/2013  23:33:00       57.787      113.802       97.003       77.452       44.075       56.492     5998.760     1942.569     3191.381        1.841        0.557      127.633       57.061        0.200      349.236       29.515      860.387
07/19/2013  23:34:00       31.091       41.331       20.542       32.892       38.188       44.065     1081.857     1458.333     1941.727        0.379        0.224       51.719       38.238        0.547      349.344       29.702      860.391
07/19/2013  23:35:00       -9.782       21.517       -0.702        8.194       10.361       10.287       67.147      107.360      105.829        0.042        0.014       23.637        5.409        0.052      349.298       29.622      860.414
07/19/2013  23:36:00      -46.890       35.486      -16.608       13.784       13.082        9.325      189.993      171.151       86.959        0.209        0.022       58.804        6.474        0.012      349.031       29.160      860.436
07/19/2013  23:37:00        5.294        8.547        0.179       21.314        9.195        7.590      454.306       84.544       57.610        0.035        0.030       10.054       10.125        1.014      349.273       29.580      860.444
07/19/2013  23:38:00       37.268      -40.684        2.789       24.038       40.533       25.324      577.812     1642.892      641.306        0.296        0.143       55.173       24.504        0.197      348.947       29.014      860.413
07/19/2013  23:39:00       -0.734       15.288       31.409       15.997       18.366       22.736      255.888      337.295      516.919        0.117        0.056       15.306       12.331        0.649      348.639       28.481      860.402
07/19/2013  23:40:00       -2.999       25.018       22.164       19.633       22.830       26.532      385.458      521.218      703.958        0.137        0.081       25.197       14.915        0.350      348.601       28.414      860.423
07/19/2013  23:41:00      -21.905       49.544      -20.496       34.076       28.507        7.829     1161.148      812.665       61.286        0.269        0.102       54.171        8.748        0.026      348.781       28.727      860.459
07/19/2013  23:42:00      -55.583       24.305      -14.754        9.384       21.303        6.164       88.061      453.827       37.997        0.224        0.029       60.665        9.866        0.026      349.003       29.111      860.466
07/19/2013  23:43:00      -45.442      -12.231        0.530       31.083       17.415       11.532      966.134      303.277      132.990        0.181        0.070       47.060       11.251        0.057      349.011       29.126      860.453
07/19/2013  23:44:00       48.432       53.314        5.594       21.836       15.842       12.279      476.826      250.978      150.768        0.305        0.044       72.028        9.723        0.018      348.970       29.055      860.435
07/19/2013  23:45:00        4.085       78.163       -5.890       25.620       40.983       17.951      656.376     1679.646      322.250        0.441        0.133       78.269       16.582        0.045      349.174       29.409      860.432
07/19/2013  23:46:00      -88.694       24.923      -13.090       30.543       22.229       12.929      932.880      494.142      167.146        0.513        0.080       92.129       11.325        0.015      348.773       28.715      860.435
07/19/2013  23:47:00      -74.567        6.252       -3.878       36.659       29.928       16.224     1343.884      895.694      263.213        0.406        0.125       74.828       18.126        0.059      348.818       28.793      860.445
07/19/2013  23:48:00     -112.605      -49.962       -1.130       41.712       32.875       20.728     1739.921     1080.738      429.657        0.921        0.163      123.192       20.594        0.028      348.482       28.210      860.439
07/19/2013  23:49:00      -44.494      -45.924        7.210       43.380       29.368       17.071     1881.813      862.502      291.412        0.359        0.152       63.943       19.654        0.094      348.616       28.441      860.407
07/19/2013  23:50:00      -44.684      -77.079        8.466       70.558       49.364       31.011     4978.413     2436.790      961.685        0.819        0.419       89.094       24.368        0.075      348.776       28.718      860.376
07/19/2013  23:51:00     -259.764      -80.857       -1.850       75.892       61.731       37.582     5759.549     3810.742     1412.409        4.250        0.549      272.057       38.257        0.020      348.696       28.576      860.407
07/19/2013  23:52:00     -149.417      -25.145       14.813       86.316       77.171       47.487     7450.420     5955.303     2255.006        1.942        0.783      151.518       41.199        0.074      348.424       28.109      860.448
07/19/2013  23:53:00      -96.041      -65.649        7.080       85.014       52.303       38.872     7227.298     2735.638     1511.018        1.253        0.574      116.334       43.938        0.143      348.576       28.373      860.420
07/19/2013  23:54:00     -116.155     -133.277       -6.086       58.555       49.951       34.917     3428.686     2495.138     1219.213        1.922        0.357      176.790       34.441        0.038      348.825       28.802      860.396
07/19/2013  23:55:00     -159.500      -58.876       -6.419       44.291       63.668       26.354     1961.730     4053.560      694.535        1.783        0.335      170.020       22.030        0.017      348.554       28.334      860.410
07/19/2013  23:56:00     -139.209       62.417       -7.341       51.208       38.974       32.908     2622.309     1518.952     1082.960        1.428        0.261      152.561       19.353        0.016      348.327       27.940      860.461
07/19/2013  23:57:00     -152.350       43.191      -17.413       49.798       73.909       30.503     2479.866     5462.579      930.409        1.712        0.444      158.354       30.374        0.037      348.273       27.847      860.482
07/19/2013  23:58:00     -116.855      -47.737      -10.034       55.638       38.428       35.742     3095.548     1476.689     1277.474        1.094        0.292      126.230       31.231        0.061      348.189       27.705      860.467
07/19/2013  23:59:00     -109.901      -94.333        1.795       59.787       56.550       30.170     3574.437     3197.916      910.230        1.433        0.384      144.835       30.916        0.046      348.396       28.062      860.444
